     2              OBSERVATION DATA    GPS                 RINEX VERSION / TYPE
teqc 1997Jul24 19970814                                     PGM / RUN BY / DATE
                                                            COMMENT
Original Marker Name: NEED                                  COMMENT
Campaign Name: HPGN 1991                                    COMMENT
4-Character Station Name: NEED                              COMMENT
6-Character Antenna Code: TRMSST                            COMMENT
Vertical Measurement Point: BPA                             COMMENT
Vertical Offset to Rinex Ref. Point: 0.0000                 COMMENT
Radial Measurement Point: RRP                               COMMENT
Radial Offset to Rinex Ref. Point: 0.0000                   COMMENT
Antenna Height from Field Measurement: 2.2200 m             COMMENT
Original XYZ: -2182831.7394 -4766842.2323 3620382.6034      COMMENT
New XYZ position is based on association with SCEC monument COMMENT
E1F3O4M8+0011. Position of that monument is believed to be  COMMENT
valid to within 1 m horizontally; vertical accuracy         COMMENT
should be no worse than 3-times this value.                 COMMENT
                                                            COMMENT
Revised Rinex header created by UCSD GPS archive for        COMMENT
GSAC on 14-Apr-1999 (1999:104) 23:57:08 GMT                 COMMENT
For assistance contact dagnew@ucsd.edu or hjohnson@ucsd.edu COMMENT
                                                            COMMENT
NEEDLES 1934                                                MARKER NAME
unknown NATIONAL GEODETIC SURVEY                            OBSERVER / AGENCY
485 TRIMBLE 4000 SST NP 4.30 / SP 4.20                      REC # / TYPE / VERS
16 TR 4000SST L1/L2 GEO                                     ANT # / TYPE
 -2182830.0000 -4766839.0000  3620381.0000                  APPROX POSITION XYZ
        2.2200        0.0000        0.0000                  ANTENNA: DELTA H/E/N
     1     1     0                                          WAVELENGTH FACT L1/2
     3    C1    L1    L2                                    # / TYPES OF OBSERV
     0                                                      INTERVAL
  1991     4    18    20    18   15.000000                  TIME OF FIRST OBS
  1991     4    19     2    17   60.000000                  TIME OF LAST OBS
     0                                                      # OF SATELLITES
                                                            END OF HEADER
 91  4 18 20 18 15.0000000  0  4G18G 2G11G19
  20575095.4064         -0.78958
  23890745.0864         -0.72655
  23341192.875          -0.64116
  20836585.9454         -0.97056
 91  4 18 20 18 30.0000000  0  4G18G 2G11G19
  20576651.0864       8176.47248        -0.17373
  23879989.7344     -56519.49645
  23333503.9064     -40397.08846
  20833560.961      -15907.689 6        -0.21732
 91  4 18 20 18 45.0000000  0  4G18G 2G11G19
  20578211.0394      16372.72848      6386.49163
  23869221.6644    -113091.39645        -0.12971
  23325818.273      -80786.385 6        -0.30131
  20830522.781      -31868.699 6    -12437.34622
 91  4 18 20 19  0.0000000  0  4G18G 2G11G19
  20579777.9774      24609.58548     12804.79363
  23858453.148     -169694.545 5    -44106.24421
  23318137.688     -121146.568 6    -31449.65321
  20827478.945      -47862.459 6    -24899.99322
 91  4 18 20 19 15.0000000  0  4G18G 2G11G19
  20581354.3754      32890.30948     19257.27063
  23847676.102     -226325.438 5    -88233.97421
  23310462.6484    -161474.04146    -62873.52961
  20824430.719      -63885.791 6    -37385.68922
 91  4 18 20 19 30.0000000  0  4G18G 2G11G19
  20582940.6334      41226.60348     25753.05563
  23836894.3754    -282972.31845   -132374.16461
  23302797.391     -201756.592 6    -94262.39921
  20821378.570      -79926.801 6    -49885.15622
 91  4 18 20 19 45.0000000  0  4G18G 2G11G19
  20584540.0164      49629.57648     32300.79363
  23826113.977     -339623.479 5   -176517.67721
  23295142.000     -241982.578 6   -125607.18721
  20818324.250      -95974.003 6    -62389.45322
 91  4 18 20 20  0.0000000  0  4G18G 2G11G19
  20586151.6254      58099.18848     38900.45963
  23815334.1724    -396278.95845   -220664.56161
  23287499.406     -282151.763 6   -156907.72221
  20815269.430     -112027.565 6    -74898.70422
 91  4 18 20 20 15.0000000  0  4G18G 2G11G19
  20587777.6724      66644.49648     45559.10863
  23804553.3524    -452929.81645   -264807.86061
  23279865.953     -322254.799 6   -188156.70321
  20812214.133     -128078.493 6    -87405.90922
 91  4 18 20 20 30.0000000  0  4G18G 2G11G19
  20589418.7894      75270.78948     52280.86563
  23793770.719     -509570.417 5   -308943.15121
  23272249.5164    -362285.95546   -219349.68661
  20809161.344     -144121.677 6    -99907.08322
 91  4 18 20 20 45.0000000  0  4G18G 2G11G19
  20591075.0944      83973.54948     59062.20963
  23782998.063     -566204.920 5   -353073.70621
  23264643.4534    -402249.24446   -250489.76561
  20806109.9844    -160161.14846   -112405.36562
 91  4 18 20 21  0.0000000  0  4G18G 2G11G19
  20592745.9924      92751.95648     65902.49863
  23772222.4304    -622833.93745   -397199.97261
  23257052.2114    -442145.09046   -281577.31561
  20803060.5394    -176197.65746   -124901.33962
 91  4 18 20 21 15.0000000  0  4G18G 2G11G19
  20594432.938      101616.194 8     72809.66923
  23761446.094     -679447.001 5   -441313.82421
  23249475.8594    -481962.76146   -312603.95161
  20800009.5004    -192220.95446   -137387.02762
 91  4 18 20 21 30.0000000  0  4G18G 2G11G19
  20596136.2114     110567.42448     79784.62163
  23750681.0004    -736042.90645   -485414.29461
  23241913.859     -521700.781 6   -343568.50221
  20796963.9304    -208229.78146   -149861.43862
 91  4 18 20 21 45.0000000  0  4G18G 2G11G19
  20597855.4304     119602.12248     86824.61463
  23739911.5784    -792625.33645   -529504.26961
  23234367.0634    -561362.64446   -374473.72961
  20793918.0864    -224228.06146   -162327.62762
 91  4 18 20 22  0.0000000  0  4G18G 2G11G19
  20599591.1804     128718.70548     93928.41163
  23729143.8594    -849195.20345   -573584.44461
  23226833.023     -600949.311 6   -405320.34621
  20790878.2734    -240216.94246   -174786.48962
 91  4 18 20 22 15.0000000  0  4G18G 2G11G19
  20601341.2194     137916.85748    101095.76863
  23718381.352     -905752.589 5   -617654.89321
  23219314.984     -640460.651 6   -436108.27121
  20787834.5784    -256196.71846   -187238.25962
 91  4 18 20 22 30.0000000  0  4G18G 2G11G19
  20603107.2814     147199.96648    108329.32363
  23707624.703     -962294.039 5   -661712.94821
  23211809.453     -679892.911 6   -466834.56621
  20784797.1174    -272163.97346   -199680.27962
 91  4 18 20 22 45.0000000  0  4G18G 2G11G19
  20604888.9454     156563.67048    115625.67763
  23696866.547    -1018823.810 5   -705761.89821
  23204319.758     -719250.096 6   -497502.37121
  20781760.4614    -288123.08546   -212115.95462
 91  4 18 20 23  0.0000000  0  4G18G 2G11G19
  20606686.7194     166008.81248    122985.48963
  23686107.8524   -1075340.65745   -749800.77861
  23196845.242     -758530.789 6   -528110.55921
  20778723.9384    -304073.01246   -224544.47162
 91  4 18 20 23 15.0000000  0  4G18G 2G11G19
  20608500.2584     175539.17748    130411.71163
  23675355.4144   -1131840.60745   -793826.48461
  23189386.844     -797730.889 6   -558655.95221
  20775692.0864    -320009.78546   -236962.73562
 91  4 18 20 23 30.0000000  0  4G18G 2G11G19
  20610329.547      185151.849 8    137902.06023
  23664604.8984   -1188326.47545   -837841.23361
  23181942.406     -836852.932 6   -589140.52921
  20772659.5164    -335936.37846   -249373.06862
 91  4 18 20 23 45.0000000  0  4G18G 2G11G19
  20612174.9224     194851.28348    145460.02163
  23653862.844    -1244793.636 5   -881841.38321
  23174512.0164    -875892.05046   -619560.47861
  20769633.6724    -351848.15346   -261771.86062
 91  4 18 20 24  0.0000000  0  4G18G 2G11G19
  20614036.953      204634.417 8    153083.20023
  23643121.648    -1301244.876 5   -925829.16821
  23167099.961     -914851.056 6   -649918.00521
  20766606.5704    -367748.26746   -274161.55762
 91  4 18 20 24 15.0000000  0  4G18G 2G11G19
  20615915.0084     214500.84448    160771.28363
  23632381.477    -1357680.427 5   -969804.72121
  23159698.969     -953729.930 6   -680213.10521
  20763584.5474    -383636.93646   -286542.34162
 91  4 18 20 24 30.0000000  0  4G18G 2G11G19
  20617808.930      224457.713 8    168529.84223
  23621645.922    -1414092.858 5  -1013762.27021
  23152318.070     -992521.031 6   -710439.80121
  20760564.2814    -399506.91946   -298908.56162
 91  4 18 20 24 45.0000000  0  4G18G 2G11G19
  20619721.0234     234502.14448    176356.62963
  23610914.5944   -1470484.94245  -1057703.94061
  23144952.289    -1031226.812 6   -740600.03621
  20757547.6484    -415361.02946   -311262.40562
 91  4 18 20 25  0.0000000  0  4G18G 2G11G19
  20621648.6174     244633.16048    184250.88663
  23600186.320    -1526857.094 5  -1101630.06621
  23137602.9534   -1069847.87346   -770694.24461
  20754535.7194    -431200.10146   -323604.53662
 91  4 18 20 25 15.0000000  0  4G18G 2G11G19
  20623591.352      254843.524 8    192206.97123
  23589462.234    -1583216.475 5  -1145546.26421
  23130269.8054   -1108391.01046   -800727.73461
  20751520.1804    -447031.43646   -335940.63162
 91  4 18 20 25 30.0000000  0  4G18G 2G11G19
  20625550.7504     265137.86348    200228.49363
  23578740.9064   -1639558.43745  -1189448.87361
  23122949.4534   -1146851.25246   -830696.63561
  20748511.1724    -462850.24246   -348266.96862
 91  4 18 20 25 45.0000000  0  4G18G 2G11G19
  20627527.227      275522.098 8    208320.06223
  23568021.086    -1695877.041 5  -1233333.30221
  23115647.7274   -1185222.35046   -860596.06361
  20745503.7584    -478650.59846   -360578.92262
 91  4 18 20 26  0.0000000  0  4G18G 2G11G19
  20629519.602      285994.399 8    216480.25323
  23557311.5704   -1752173.73945  -1277200.66161
  23108364.2274   -1223505.65546   -890427.08961
  20742499.3754    -494434.10746   -372877.75062
 91  4 18 20 26 15.0000000  0  4G18G 2G11G19
  20631529.141      296555.020 8    224709.26823
  23546602.750    -1808447.893 5  -1321050.44521
  23101096.2584   -1261700.44346   -920189.13761
  20739499.813     -510200.291 6   -385163.07522
 91  4 18 20 26 30.0000000  0  4G18G 2G11G19
  20633555.0704     307201.49847    233005.18063
  23535898.344    -1864701.935 5  -1364884.53521
  23093843.6564   -1299808.88546   -949883.90561
  20736504.258     -525951.519 6   -397436.74622
 91  4 18 20 26 45.0000000  0  4G18G 2G11G19
  20635597.320      317935.839 7    241369.55823
  23525197.758    -1920933.644 5  -1408701.25921
  23086607.5704   -1337828.70646   -979509.62061
  20733508.508     -541685.902 6   -409697.29522
 91  4 18 20 27  0.0000000  0  4G18G 2G11G19
  20637657.3674     328755.81047    249800.66663
  23514502.258    -1977144.926 6  -1452502.04721
  23079390.1724   -1375761.46946  -1009067.49361
  20730517.1334    -557405.39046   -421946.23462
 91  4 18 20 27 15.0000000  0  4G18G 2G11G19
  20639732.9384     339665.69248    258301.83463
  23503808.852    -2033331.305 6  -1496283.44121
  23072188.6484   -1413602.49846  -1038553.88261
  20727529.938     -573105.857 6   -434180.35222
 91  4 18 20 27 30.0000000  0  4G18G 2G11G19
  20641826.281      350664.157 8    266872.02423
  23493123.305    -2089493.816 5  -1540046.23821
  23065003.492    -1451352.882 6  -1067969.65521
  20724545.563     -588788.482 6   -446400.56122
 91  4 18 20 27 45.0000000  0  4G18G 2G11G19
  20643935.539      361750.810 7    275510.93123
  23482438.023    -2145632.847 5  -1583790.74221
  23057837.7894   -1489012.53046  -1097314.71161
  20721563.742     -604453.433 6   -458607.00222
 91  4 18 20 28  0.0000000  0  4G18G 2G11G19
  20646061.727      372924.779 7    284217.87423
  23471760.305    -2201748.972 5  -1627517.38821
  23050688.4064   -1526581.86246  -1126589.39861
  20718586.484     -620101.634 6   -470800.39022
 91  4 18 20 28 15.0000000  0  4G18G 2G11G19
  20648204.9534     384185.98047    292992.79463
  23461086.6564   -2257841.89745  -1671225.96961
  23043558.0554   -1564060.60646  -1155793.50361
  20715611.4384    -635732.81646   -482980.52062
 91  4 18 20 28 30.0000000  0  4G18G 2G11G19
  20650363.867      395532.858 7    301834.47323
  23450419.0394   -2313912.95146  -1714917.49661
  23036441.5314   -1601449.79546  -1184927.81861
  20712641.320     -651348.353 6   -495148.45722
 91  4 18 20 28 45.0000000  0  4G18G 2G11G19
  20652541.266      406971.926 7    310747.99123
  23439750.047    -2369955.600 5  -1758586.89021
  23029345.391    -1638742.824 6  -1213987.19921
  20709671.953     -666941.904 6   -507299.26522
 91  4 18 20 29  0.0000000  0  4G18G 2G11G19
  20654735.758      418502.307 7    319732.65923
  23429088.305    -2425970.481 5  -1802234.66221
  23022266.2194   -1675940.19546  -1242972.04961
  20706710.367     -682514.284 6   -519433.57222
 91  4 18 20 29 14.9990000  0  4G18G 2G11G19
  20656946.417      430121.479 7    328786.51323
  23418439.159    -2481955.157 6  -1845858.89121
  23015205.0424   -1713040.50846  -1271881.25961
  20703749.7614    -698065.90946   -531551.70862
 91  4 18 20 29 29.9990000  0  4G18G 2G11G19
  20659174.714      441831.188 7    337910.91323
  23407789.355    -2537916.845 6  -1889465.21421
  23008164.6364   -1750048.17346  -1300718.27761
  20700794.776     -713598.762 6   -543655.21922
 91  4 18 20 29 44.9990000  0  4G18G 2G11G19
  20661420.284      453631.215 7    347105.69623
  23397144.5584   -2593851.18445  -1933050.22461
  23001139.612    -1786959.856 6  -1329480.51921
  20697843.0734    -729110.98946   -555742.65662
 91  4 18 20 29 59.9990000  0  4G18G 2G11G19
  20663684.183      465526.086 7    356374.38123
  23386504.230    -2649753.051 5  -1976609.93421
  22994134.120    -1823770.403 6  -1358163.92421
  20694895.1284    -744597.80046   -567810.29062
 91  4 18 20 30 14.9990000  0  4G18G 2G11G19
  20665964.394      477510.620 7    365712.93323
  23375872.5264   -2705627.58346  -2020148.32661
  22987148.5344   -1860484.76946  -1386772.39561
  20691952.2534    -760064.21046   -579862.02762
 91  4 18 20 30 29.9990000  0  4G18G 2G11G19
  20668263.675      489586.862 7    375122.94523
  23365245.7064   -2761472.67846  -2063663.81161
  22980181.1674   -1897100.59846  -1415304.08961
  20689015.8004    -775508.27146   -591896.35462
 91  4 18 20 30 44.9990000  0  4G18G 2G11G19
  20670579.456      501762.599 7    384610.48423
  23354627.9254   -2817280.33146  -2107150.10961
  22973233.784    -1933609.719 6  -1443752.62321
  20686079.4094    -790922.22046   -603907.21862
 91  4 18 20 30 59.9990000  0  4G18G 2G11G19
  20672915.417      514037.574 7    394175.34823
  23344015.2374   -2873050.40246  -2150607.11261
  22966305.675    -1970011.885 6  -1472117.82721
  20683154.2534    -806306.07546   -615894.63062
 91  4 18 20 31 14.9990000  0  4G18G 2G11G19
  20675268.987      526402.973 7    403810.67523
  23333404.511    -2928791.535 5  -2194041.57921
  22959398.4174   -2006315.53746  -1500406.26861
  20680229.7614    -821668.44546   -627865.30662
 91  4 18 20 31 29.9990000  0  4G18G 2G11G19
  20677639.644      538863.142 7    413519.84823
  23322805.206    -2984499.319 5  -2237450.05821
  22952509.6284   -2042516.08646  -1528614.36161
  20677310.9954    -837005.01946   -639815.88362
 91  4 18 20 31 44.9990000  0  4G18G 2G11G19
  20680029.534      551420.458 7    423304.72223
  23312210.628    -3040170.864 5  -2280830.30121
  22945639.253    -2078610.556 6  -1556739.80721
  20674398.4484    -852313.04646   -651744.21762
 91  4 18 20 31 59.9990000  0  4G18G 2G11G19
  20682459.261      564186.539 7    433252.26523
  23301644.9874   -3095694.43345  -2324095.23761
  22938814.0894   -2114486.76646  -1584695.18361
  20671513.3474    -867480.77846   -663563.22862
 91  4 18 20 32 14.9990000  0  4G18G 2G11G19
  20684909.433      577062.619 7    443285.52423
  23291091.183    -3151168.251 6  -2367321.40521
  22932008.8314   -2150243.08446  -1612557.12761
  20668633.7224    -882606.86546   -675349.79362
 91  4 18 20 32 29.9990000  0  4G18G 2G11G19
  20687376.651      590032.599 7    453391.94923
  23280537.3624   -3206608.65245  -2410521.54561
  22925223.800    -2185895.705 6  -1640338.28121
  20665760.6834    -897707.67546   -687116.65962
 91  4 18 20 32 44.9990000  0  4G18G 2G11G19
  20689864.433      603100.695 7    463574.82623
  23269995.5424   -3262011.16645  -2453692.15561
  22918460.9724   -2221439.85046  -1668034.89861
  20662891.9094    -912778.59146   -698860.23462
 91  4 18 20 32 59.9990000  0  4G18G 2G11G19
  20692369.839      616266.976 7    473834.21523
  23259461.1364   -3317375.18846  -2496832.76661
  22911718.159    -2256874.760 6  -1695646.40521
  20660029.9334    -927819.20446   -710580.19162
 91  4 18 20 33 14.9990000  0  4G18G 2G11G19
  20694892.206      629527.059 7    484166.69323
  23248931.862    -3372705.199 6  -2539946.88621
  22904996.019    -2292204.726 6  -1723176.14321
  20657173.7454    -942834.15646   -722280.15162
 91  4 18 20 33 29.9990000  0  4G18G 2G11G19
  20697435.706      642885.641 7    494575.92523
  23238411.2064   -3427996.01646  -2583030.46961
  22898292.4564   -2327424.54546  -1750620.04861
  20654323.6124    -957818.56046   -733956.31162
 91  4 18 20 33 44.9990000  0  4G18G 2G11G19
  20699995.417      656342.971 7    505062.10423
  23227896.495    -3483247.340 5  -2626083.28621
  22891610.440    -2362533.541 6  -1777977.59521
  20651476.2844    -972771.87446   -745608.24262
 91  4 18 20 33 59.9990000  0  4G18G 2G11G19
  20702576.292      669901.060 7    515626.80323
  23217386.097    -3538456.840 5  -2669103.50321
  22884950.9724   -2397529.23946  -1805246.87961
  20648639.0894    -987691.90646   -757234.23562
 91  4 18 20 34 14.9990000  0  4G18G 2G11G19
  20705174.870      683556.578 7    526267.41123
  23206888.3314   -3593627.53645  -2712093.47561
  22878313.2304   -2432414.57146  -1832430.13961
  20645804.1754   -1002581.63746   -768836.61662
 91  4 18 20 34 29.9990000  0  4G18G 2G11G19
  20707792.370      697310.204 7    536984.47423
  23196402.167    -3648758.608 6  -2755052.57521
  22871696.6674   -2467188.64946  -1859526.73561
  20642977.5654   -1017440.48646   -780414.93562
 91  4 18 20 34 44.9990000  0  4G18G 2G11G19
  20710428.315      711166.326 7    547781.39923
  23185917.151    -3703845.292 5  -2797977.10221
  22865099.526    -2501846.545 6  -1886532.78721
  20640154.7304   -1032263.93946   -791965.66862
 91  4 18 20 34 59.9990000  0  4G18G 2G11G19
  20713083.667      725118.175 7    558652.92223
  23175444.0344   -3758894.45146  -2840872.37261
  22858525.9094   -2536394.95046  -1913453.52761
  20637340.1514   -1047058.96646   -803494.25262
 91  4 18 20 35 14.9990000  0  4G18G 2G11G19
  20715759.089      739173.405 7    569604.99923
  23164975.4334   -3813897.84146  -2883732.00561
  22851974.0814   -2570825.40146  -1940282.36561
  20634530.9334   -1061817.16746   -814994.13962
 91  4 18 20 35 29.9990000  0  4G18G 2G11G19
  20718451.315      753323.553 7    580631.03623
  23154515.3704   -3868863.59645  -2926562.27861
  22845444.1054   -2605145.79746  -1967025.43861
  20631726.4804   -1076546.87946   -826471.82462
 91  4 18 20 35 44.9990000  0  4G18G 2G11G19
  20721162.487      767574.749 7    591735.81223
  23144059.808    -3923785.855 5  -2969358.67321
  22838932.9174   -2639350.11846  -1993678.06361
  20628932.0114   -1091242.37446   -837922.84762
 91  4 18 20 35 59.9990000  0  4G18G 2G11G19
  20723894.120      781924.431 7    602917.32623
  23133619.9804   -3978666.55246  -3012122.69061
  22832445.7144   -2673440.14446  -2020241.62261
  20626140.097    -1105905.656 6   -849348.76622
 91  4 18 20 36 14.9990000  0  4G18G 2G11G19
  20726643.894      796375.876 7    614178.13723
  23123185.917    -4033502.182 6  -3054851.57121
  22825981.8944   -2707412.21046  -2046713.27461
  20623358.511    -1120533.210 6   -860746.84722
 91  4 18 20 36 29.9990000  0  4G18G 2G11G19
  20729413.2844     810929.69947    625518.72663
  23112757.8154   -4088292.35846  -3097545.04561
  22819540.948    -2741265.685 6  -2073092.49321
  20620579.5194   -1135124.68146   -872116.81362
 91  4 18 20 36 44.9990000  0  4G18G 2G11G19
  20732202.292      825583.990 7    636937.59823
  23102339.9094   -4143038.52645  -3140204.21461
  22813117.284    -2775001.914 6  -2099380.39221
  20617810.151    -1149681.607 6   -883459.85922
 91  4 18 20 36 59.9990000  0  4G18G 2G11G19
  20735010.206      840340.339 7    648436.00623
  23091930.081    -4197738.767 5  -3182827.59821
  22806722.925    -2808619.074 6  -2125575.46721
  20615047.4874   -1164202.33446   -894774.69862
 91  4 18 20 37 14.9990000  0  4G18G 2G11G19
  20737837.519      855196.108 7    660011.87523
  23081530.2374   -4252395.41646  -3225417.01861
  22800344.9724   -2842119.11746  -2151679.30261
  20612291.128    -1178689.091 6   -906063.07022
 91  4 18 20 37 29.9990000  0  4G18G 2G11G19
  20740683.378      870153.586 7    671667.00923
  23071138.706    -4307005.844 6  -3267970.42621
  22793996.2374   -2875499.51446  -2177689.91061
  20609544.550    -1193139.568 6   -917323.16922
 91  4 18 20 37 44.9990000  0  4G18G 2G11G19
  20743548.753      885211.085 7    683400.06923
  23060753.8784   -4361571.61546  -3310489.03261
  22787665.2534   -2908761.47346  -2203608.22561
  20606798.659    -1207555.417 6   -928556.28622
 91  4 18 20 37 59.9990000  0  4G18G 2G11G19
  20746434.120      900375.125 7    695216.15023
  23050379.8784   -4416086.34246  -3352967.86461
  22781359.003    -2941898.487 6  -2229429.17921
  20604065.417    -1221930.015 6   -939757.25722
 91  4 18 20 38 14.9990000  0  4G18G 2G11G19
  20749339.597      915643.777 8    707113.75123
  23040016.1904   -4470551.42446  -3395408.00961
  22775078.159    -2974911.588 6  -2255153.59221
  20601334.1904   -1236264.89446   -950927.28662
 91  4 18 20 38 29.9990000  0  4G18G 2G11G19
  20752266.019      931019.029 8    719094.42023
  23029661.347    -4524964.340 6  -3437807.49921
  22768818.167    -3007798.396 6  -2280779.57321
  20598613.5654   -1250557.90546   -962064.69062
 91  4 18 20 38 44.9990000  0  4G18G 2G11G19
  20755211.011      946500.753 7    731158.05023
  23019314.9644   -4579325.12646  -3480166.36761
  22762585.878    -3040558.833 6  -2306307.09421
  20595903.1124   -1264809.14446   -973169.54162
 91  4 18 20 38 59.9990000  0  4G18G 2G11G19
  20758179.073      962089.170 7    743304.81723
  23008983.0424   -4633633.38446  -3522484.31061
  22756376.6834   -3073192.26946  -2331735.66761
  20593199.9804   -1279018.07246   -984241.42762
 91  4 18 20 39 14.9990000  0  4G18G 2G11G19
  20761164.456      977783.872 7    755534.40023
  22998654.5894   -4687889.43145  -3564761.57061
  22750189.183    -3105698.824 6  -2357065.35721
  20590504.7614   -1293185.11146   -995280.67062
 91  4 18 20 39 29.9990000  0  4G18G 2G11G19
  20764172.214      993585.250 7    767847.11023
  22988344.9254   -4742092.58046  -3606997.60761
  22744029.448    -3138077.795 6  -2382295.64621
  20587813.7064   -1307309.79946  -1006286.91763
 91  4 18 20 39 44.9990000  0  4G18G 2G11G19
  20767200.222     1009495.319 7    780244.51623
  22978038.3864   -4796240.36946  -3649190.51361
  22737892.886    -3170326.461 6  -2407424.39021
  20585135.7534   -1321389.59346  -1017258.18162
 91  4 18 20 39 59.9990000  0  4G18G 2G11G19
  20770246.698     1025511.789 7    792724.83023
  22967745.081    -4850335.131 6  -3691342.10821
  22731779.589    -3202446.968 6  -2432453.27421
  20582465.3624   -1335426.96346  -1028196.38562
 91  4 18 20 40 14.9990000  0  4G18G 2G11G19
  20773316.315     1041632.053 7    805286.02723
  22957460.222    -4904379.102 6  -3733454.13221
  22725690.917    -3234441.336 6  -2457383.87121
  20579801.7224   -1349424.34546  -1039103.43662
 91  4 18 20 40 29.9990000  0  4G18G 2G11G19
  20776402.167     1057854.344 7    817926.71823
  22947184.1284   -4958373.58946  -3775527.57661
  22719625.1834   -3266310.91546  -2482217.22161
  20577144.4094   -1363382.92446  -1049980.24962
 91  4 18 20 40 44.9990000  0  4G18G 2G11G19
  20779510.667     1074189.050 7    830655.00523
  22936921.855    -5012308.110 6  -3817554.29721
  22713586.722    -3298045.139 6  -2506945.10821
  20574498.2224   -1377292.27146  -1060818.70162
 91  4 18 20 40 59.9990000  0  4G18G 2G11G19
  20782639.855     1090633.421 7    843468.74523
  22926670.5264   -5066185.28646  -3859536.36561
  22707573.1444   -3329646.27646  -2531569.28861
  20571860.8624   -1391155.24946  -1071621.02162
 91  4 18 20 41 14.9990000  0  4G18G 2G11G19
  20785788.8624    1107182.24447    856363.87363
  22916425.105    -5120009.954 6  -3901477.49721
  22701583.097    -3361119.128 6  -2556093.50921
  20569228.9954   -1404976.79046  -1082391.04762
 91  4 18 20 41 29.9990000  0  4G18G 2G11G19
  20788958.6834    1123840.92247    869344.60363
  22906194.7454   -5173776.34246  -3943373.20861
  22695619.581    -3392457.989 6  -2580513.31821
  20566609.8314   -1418751.38446  -1093124.49762
 91  4 18 20 41 44.9990000  0  4G18G 2G11G19
  20792150.1284    1140607.34447    882409.28863
  22895972.972    -5227486.430 6  -3985225.05221
  22689682.948    -3423664.512 6  -2604830.00121
  20563996.5424   -1432480.87546  -1103822.80063
 91  4 18 20 41 59.9990000  0  4G18G 2G11G19
  20795362.5814    1157486.22347    895561.59963
  22885764.917    -5281135.375 6  -4027029.25421
  22683770.323    -3454733.706 6  -2629039.68721
  20561392.9644   -1446160.27446  -1114482.07263
 91  4 18 20 42 14.9990000  0  4G18G 2G11G19
  20798599.1364    1174498.31947    908817.71763
  22875570.972    -5334702.073 6  -4068769.37621
  22677888.417    -3485644.343 6  -2653125.81521
  20558803.6444   -1459768.69746  -1125086.03962
 91  4 18 20 42 29.9990000  0  4G18G 2G11G19
  20801863.8864    1191654.08547    922185.78863
  22865399.0264   -5388175.79546  -4110437.04261
  22672037.440    -3516385.658 6  -2677080.00921
  20556229.1364   -1473295.61646  -1135626.49663
 91  4 18 20 42 44.9990000  0  5G18G 2G11G19G16
  20805156.7224    1208955.92347    935667.67963
  22855237.440    -5441554.008 6  -4152030.28921
  22666221.870    -3546954.950 6  -2700900.15421
  20553670.5264   -1486738.31746  -1146101.32862
  24012765.526          -0.52615
 91  4 18 20 42 59.9990000  0  5G18G 2G11G19G16
  20808474.4804    1226391.70947    949253.94463
  22845094.886    -5494848.473 6  -4193558.27521
  22660434.5194   -3577363.71446  -2724595.20961
  20551128.8394   -1500108.65646  -1156519.76963
  24006839.644      -31149.732 5
 91  4 18 20 43 14.9990000  0  5G18G 2G11G19G16
  20811816.4254    1243953.22047    962938.17363
  22834969.8394   -5548067.20346  -4235027.25961
  22654676.4484   -3607619.79646  -2748171.28861
  20548595.0654   -1513414.65546  -1166888.08162
  24000939.792      -62154.709 5        -0.33131
 91  4 18 20 43 29.9990000  0  5G18G 2G11G19G16
  20815181.0654    1261635.43547    976716.46163
  22824856.1984   -5601214.85246  -4276440.85461
  22648944.698    -3637727.841 6  -2771632.03121
  20546073.3944   -1526661.25146  -1177210.09562
  23995068.9334     -93020.19745    -24051.35461
 91  4 18 20 43 44.9990000  0  5G18G 2G11G19G16
  20818570.6124    1279445.36047    990594.26363
  22814756.9724   -5654284.28846  -4317793.50561
  22643246.4404   -3667680.46446  -2794971.64061
  20543566.1674   -1539841.28646  -1187480.24962
  23989220.9874    -123739.05945    -47988.16961
 91  4 18 20 43 59.9990000  0  5G18G 2G11G19G16
  20821982.2764    1297378.04047   1004567.70963
  22804671.987    -5707280.629 6  -4359089.19721
  22637575.253    -3697482.729 6  -2818194.09821
  20541069.9724   -1552959.84446  -1197702.49862
  23983399.925     -154316.642 5    -71814.83921
 91  4 18 20 44 14.9990000  0  5G18G 2G11G19G16
  20825418.3624    1315432.77547   1018636.27263
  22794599.620    -5760204.014 6  -4400328.02721
  22631933.6984   -3727134.63046  -2841299.38461
  20538585.4254   -1566017.25146  -1207877.09463
  23977607.2534    -184752.79145    -95531.34161
 91  4 18 20 44 29.9990000  0  5G18G 2G11G19G16
  20828876.6754    1333605.30347   1032796.62263
  22784540.800    -5813058.026 6  -4441512.80321
  22626319.1124   -3756639.74046  -2864290.29361
  20536112.9254   -1579017.08746  -1218006.83663
  23971845.495     -215051.207 5   -119140.50221
 91  4 18 20 44 44.9990000  0  5G18G 2G11G19G16
  20832359.0344    1351899.51747   1047051.79163
  22774497.1444   -5865838.86746  -4482640.57361
  22620731.3784   -3785994.12846  -2887163.74761
  20533648.5584   -1591955.84646  -1228088.98263
  23966105.5424    -245208.44845   -142639.65961
 91  4 18 20 44 59.9990000  0  5G18G 2G11G19G16
  20835859.6754    1370302.76447   1061391.91863
  22764464.9174   -5918558.81746  -4523720.89561
  22615171.9484   -3815209.86446  -2909929.17161
  20531197.7224   -1604845.62446  -1238132.96562
  23960390.4014    -275236.43945   -166038.08661
 91  4 18 20 45 14.9990000  0  5G18G 2G11G19G16
  20839383.6904    1388820.74647   1075821.44663
  22754448.378    -5971212.003 6  -4564749.19221
  22609640.5114   -3844281.03446  -2932581.94561
  20528754.2454   -1617680.66146  -1248134.29462
  23954699.808     -305129.224 5   -189331.17621
 91  4 18 20 45 29.9990000  0  5G18G 2G11G19G16
  20842928.7694    1407446.28047   1090334.78063
  22744436.394    -6023805.551 6  -4605731.00821
  22604134.331    -3873214.682 6  -2955127.56421
  20526319.4874   -1630468.13046  -1258098.55862
  23949037.198     -334894.246 5   -212524.69921
 91  4 18 20 45 44.9990000  0  5G18G 2G11G19G16
  20846492.9254    1426181.27747   1104933.42163
  22734441.128    -6076337.100 6  -4646664.51721
  22598655.534    -3902008.242 6  -2977564.03121
  20523897.0344   -1643205.79546  -1268024.01262
  23943396.339     -364529.069 5   -235616.76821
 91  4 18 20 45 59.9990000  0  5G18G 2G11G19G16
  20850079.8554    1445024.24947   1119616.19563
  22724457.9094   -6128807.77146  -4687550.59561
  22593202.105    -3930662.617 6  -2999892.03421
  20521483.9254   -1655894.75046  -1277911.51262
  23937787.284     -394034.683 5   -258608.13621
 91  4 18 20 46 14.9990000  0  5G18G 2G11G19G16
  20853685.3234    1463971.74847   1134380.41563
  22714481.714    -6181220.884 6  -4728391.84021
  22587775.597    -3959180.975 6  -3022114.05521
  20519076.3154   -1668538.43446  -1287763.73962
  23932196.378     -423414.316 5   -281501.35121
 91  4 18 20 46 29.9990000  0  5G18G 2G11G19G16
  20857310.8554    1483024.37547   1149226.55163
  22704518.9954   -6233575.60746  -4769187.56961
  22582373.565    -3987562.568 6  -3044229.50221
  20516681.5034   -1681136.06146  -1297580.06862
  23926625.9874    -452667.36645   -304295.93561
 91  4 18 20 46 44.9990000  0  5G18G 2G11G19G16
  20860957.5584    1502188.67247   1164159.70763
  22694567.6054   -6285864.81846  -4809932.25661
  22577002.6284   -4015800.20046  -3066232.78461
  20514291.1674   -1693680.71046  -1307355.13162
  23921084.7764    -481786.93445   -326986.49661
 91  4 18 20 46 59.9990000  0  5G18G 2G11G19G16
  20864623.8314    1521456.01447   1179173.16363
  22684627.8624   -6338097.26646  -4850632.71561
  22571654.0504   -4043902.44446  -3088130.57461
  20511914.7224   -1706180.98346  -1317095.60562
  23915568.9404    -510781.68345   -349579.83561
 91  4 18 20 47 14.9990000  0  5G18G 2G11G19G16
  20868311.8474    1540830.96947   1194270.46763
  22674700.1754   -6390267.89446  -4891285.00261
  22566333.4254   -4071864.11146  -3109918.81961
  20509543.8394   -1718631.80846  -1326797.55362
  23910074.183     -539646.441 5   -372071.81921
 91  4 18 20 47 29.9990000  0  5G18G 2G11G19G16
  20872017.2764    1560309.92247   1209448.81463
  22664785.003    -6442379.849 6  -4931891.57821
  22561038.0424   -4099688.29246  -3131599.93861
  20507183.5034   -1731036.40846  -1336463.48262
  23904606.2534    -568384.35245   -394464.97561
 91  4 18 20 47 44.9990000  0  5G18G 2G11G19G16
  20875744.511     1579895.556 7   1224710.29023
  22654879.3554   -6494430.63246  -4972450.48261
  22555768.6984   -4127372.33246  -3153171.85261
  20504831.8784   -1743392.52746  -1346091.63762
  23899161.901     -596993.048 5   -416757.45821
 91  4 18 20 47 59.9990000  0  5G18G 2G11G19G16
  20879492.128     1599586.764 7   1240054.04023
  22644987.5034   -6546421.12846  -5012962.40761
  22550528.6124   -4154917.07946  -3174635.23461
  20502487.519    -1755701.146 6  -1355682.78022
  23893740.745     -625473.418 5   -438949.96121
 91  4 18 20 48 14.9990000  0  5G18G 2G11G19G16
  20883259.519     1619383.865 7   1255480.29923
  22635106.5114   -6598350.62346  -5053426.79961
  22545314.4404   -4182321.58346  -3195989.33461
  20500155.1984   -1767961.40446  -1365236.24062
  23888347.3704    -653824.48845   -461041.66961
 91  4 18 20 48 29.9990000  0  5G18G 2G11G19G16
  20887046.542     1639288.901 7   1270990.66123
  22625235.3704   -6650216.71746  -5093841.79461
  22540125.230    -4209583.233 6  -3217232.13121
  20497831.5654   -1780170.84446  -1374750.09762
  23882978.190     -682043.747 5   -483030.74421
 91  4 18 20 48 44.9990000  0  5G18G 2G11G19G16
  20890855.151     1659300.339 7   1286583.93523
  22615378.464    -6702020.935 6  -5134208.58921
  22534964.573    -4236703.497 6  -3238364.74821
  20495519.245    -1792331.183 6  -1384225.69822
  23877630.8784    -710133.08345   -504918.53061
 91  4 18 20 48 59.9990000  0  5G18G 2G11G19G16
  20894682.870     1679415.235 7   1302257.82723
  22605530.8624   -6753765.65446  -5174529.01161
  22529830.605    -4263684.663 6  -3259388.98221
  20493211.995    -1804444.879 6  -1393664.95322
  23872310.1364    -738094.86545   -526706.92561
 91  4 18 20 49 14.9990000  0  5G18G 2G11G19G16
  20898530.159     1699631.921 7   1318011.03523
  22595695.167    -6805452.511 6  -5214804.35221
  22524723.8084   -4290528.21446  -3280305.97761
  20490917.2144   -1816513.38246  -1403068.99462
  23867017.4724    -765930.76745   -548397.23061
 91  4 18 20 49 29.9990000  0  5G18G 2G11G19G16
  20902396.386     1719952.064 7   1333844.86123
  22585870.347    -6857079.662 6  -5255033.16221
  22519640.2844   -4317232.24946  -3301114.26361
  20488629.1594   -1828535.12746  -1412436.59862
  23861737.4804    -793638.90644   -569987.99761
 91  4 18 20 49 44.9990000  0  5G18G 2G11G19G16
  20906282.128     1740370.109 7   1349754.97523
  22576056.6054   -6908651.94546  -5295219.21161
  22514582.855    -4343801.627 6  -3321817.62121
  20486350.401    -1840515.047 6  -1421771.61122
  23856495.2454    -821224.11145   -591482.92961
 91  4 18 20 49 59.9990000  0  5G18G 2G11G19G16
  20910186.956     1760890.583 7   1365744.89823
  22566252.5734   -6960164.72746  -5335358.89161
  22509555.058    -4370231.637 6  -3342412.38121
  20484083.1204   -1852448.51646  -1431070.42862
  23851268.1754    -848682.05145   -612878.74861
 91  4 18 20 50 14.9990000  0  5G18G 2G11G19G16
  20914112.3234    1781515.82347   1381816.45663
  22556461.9954   -7011615.28546  -5375450.08861
  22504553.7764   -4396519.40646  -3362896.29661
  20481816.980    -1864332.782 6  -1440330.90722
  23846064.6834    -876009.95745   -634173.22161
 91  4 18 20 50 29.9990000  0  5G18G 2G11G19G16
  20918056.8394    1802242.46747   1397967.02863
  22546684.292    -7063007.158 6  -5415495.55621
  22499576.776    -4422668.175 6  -3383271.91221
  20479566.1124   -1876171.27846  -1449555.71662
  23840896.8084    -903211.18745   -655368.98461
 91  4 18 20 50 44.9990000  0  5G18G 2G11G19G16
  20922021.2764    1823072.13547   1414197.87263
  22536914.761    -7114338.330 6  -5455493.73121
  22494626.7224   -4448675.95946  -3403537.66061
  20477321.206    -1887962.179 6  -1458743.44122
  23835738.308     -930283.770 5   -676464.52521
 91  4 18 20 50 59.9990000  0  5G18G 2G11G19G16
  20926003.6124    1844005.74647   1430509.71263
  22527157.323    -7165607.714 6  -5495443.79121
  22489705.409    -4474541.632 6  -3423692.67621
  20475086.6054   -1899704.62346  -1467893.40862
  23830609.964     -957226.871 5   -697459.14821
 91  4 18 20 51 14.9990000  0  5G18G 2G11G19G16
  20930006.3004    1865040.47247   1446900.33863
  22517412.222    -7216817.621 6  -5535347.50421
  22484810.0034   -4500267.39246  -3443738.67061
  20472860.9804   -1911400.91646  -1477007.41162
  23825508.9484    -984042.66445   -718354.58161
 91  4 18 20 51 29.9990000  0  5G18G 2G11G19G16
  20934028.034     1886171.138 7   1463365.72123
  22507676.4954   -7267972.94846  -5575208.67961
  22479939.550    -4525857.917 6  -3463679.28621
  20470644.4484   -1923055.95246  -1486089.26062
  23820427.776    -1010736.118 5   -739154.67621
 91  4 18 20 51 44.9990000  0  5G18G 2G11G19G16
  20938067.5264    1907401.41947   1479908.73163
  22497954.2304   -7319070.04246  -5615024.46661
  22475097.480    -4551309.464 6  -3483511.60721
  20468434.1054   -1934665.85446  -1495135.94762
  23815375.339    -1037303.403 5   -759856.46321
 91  4 18 20 51 59.9990000  0  5G18G 2G11G19G16
  20942127.331     1928728.413 7   1496527.10123
  22488243.0194   -7370111.19746  -5654796.66461
  22470278.987    -4576624.376 6  -3503237.46221
  20466233.4174   -1946233.28146  -1504149.52962
  23810340.3394   -1063747.09745   -780461.93561
 91  4 18 20 52 14.9990000  0  5G18G 2G11G19G16
  20946203.2374    1950154.16447   1513222.42263
  22478540.769    -7421094.312 6  -5694523.62721
  22465489.222    -4601800.407 6  -3522855.09121
  20464039.7614   -1957755.90246  -1513128.20162
  23805337.456    -1090065.061 5   -800969.47121
 91  4 18 20 52 29.9990000  0  5G18G 2G11G19G16
  20950300.237     1971682.109 7   1529997.36623
  22468849.558    -7472015.578 6  -5734202.40321
  22460725.136    -4626833.641 6  -3542361.45221
  20461857.7534   -1969229.97046  -1522069.03862
  23800351.0194   -1116253.55945   -821376.11061
 91  4 18 20 52 44.9990000  0  5G18G 2G11G19G16
  20954414.784     1993307.226 7   1546848.03323
  22459170.097    -7522880.160 6  -5773837.02421
  22455987.651    -4651729.029 6  -3561760.39921
  20459681.0264   -1980660.62646  -1530976.04962
  23795391.2304   -1142317.73045   -841685.85761
 91  4 18 20 52 59.9990000  0  5G18G 2G11G19G16
  20958549.097     2015033.674 7   1563777.66023
  22449503.6594   -7573683.22646  -5813423.70461
  22451278.1984   -4676481.87646  -3581048.27461
  20457514.6364   -1992043.31646  -1539845.67762
  23790451.4404   -1168252.84145   -861895.04861
 91  4 18 20 53 14.9990000  0  5G18G 2G11G19G16
  20962703.3554    2036859.38347   1580784.63963
  22439847.222    -7624426.496 6  -5852963.77721
  22446594.4724   -4701093.68246  -3600226.23861
  20455358.5504   -2003379.57346  -1548679.12662
  23785542.1984   -1194060.20045   -882004.68361
 91  4 18 20 53 29.9990000  0  5G18G 2G11G19G16
  20966874.815     2058781.223 7   1597866.51823
  22430201.3944   -7675112.99746  -5892459.62861
  22441935.2764   -4725567.41546  -3619296.62261
  20453210.6444   -2014672.81246  -1557479.05262
  23780659.7064   -1219743.09345   -902017.32761
 91  4 18 20 53 44.9990000  0  5G18G 2G11G19G16
  20971066.089     2080802.732 7   1615026.05823
  22420567.300    -7725738.743 6  -5931908.12321
  22437305.7694   -4749898.90746  -3638256.15861
  20451069.1204   -2025918.91646  -1566242.25062
  23775798.1204   -1245297.81245   -921930.09661
 91  4 18 20 53 59.9990000  0  5G18G 2G11G19G16
  20975275.081     2102921.761 7   1632261.58723
  22410945.636    -7776305.656 6  -5971310.77321
  22432702.3864   -4774090.09946  -3657106.37561
  20448938.0344   -2037119.89146  -1574970.28262
  23770956.9094   -1270726.49445   -941744.64561
 91  4 18 20 54 14.9990000  0  5G18G 2G11G19G16
  20979502.034     2125133.940 7   1649569.69723
  22401334.706    -7826818.092 6  -6010670.98321
  22428123.9404   -4798145.22446  -3675850.56661
  20446813.0424   -2048280.03246  -1583666.49862
  23766136.565    -1296033.136 5   -961464.13121
 91  4 18 20 54 29.9990000  0  5G18G 2G11G19G16
  20983748.190     2147442.954 7   1666953.26422
  22391731.987    -7877271.894 6  -6049985.50021
  22423573.1204   -4822060.16146  -3694485.51661
  20444699.7614   -2059395.17346  -1592327.65062
  23761344.714    -1321213.803 5   -981085.42621
 91  4 18 20 54 44.9990000  0  5G18G 2G11G19G16
  20988011.136     2169845.904 7   1684410.02922
  22382139.839    -7927669.747 6  -6089256.41921
  22419049.4484   -4845837.45646  -3713013.21861
  20442591.1594   -2070468.01746  -1600955.83962
  23756579.2924   -1346271.39945  -1000610.84161
 91  4 18 20 54 59.9990000  0  5G18G 2G11G19G16
  20992290.987     2192343.554 7   1701940.58422
  22372562.151    -7978010.696 6  -6128482.99221
  22414551.1674   -4869475.94346  -3731432.75261
  20440493.0194   -2081497.67846  -1609550.38362
  23751838.5034   -1371204.43645  -1020039.16861
 91  4 18 20 55 14.9990000  0  5G18G 2G11G19G16
  20996591.355     2214940.353 7   1719548.40622
  22362993.980    -8028289.855 6  -6167661.42421
  22410080.4954   -4892970.67846  -3749740.27261
  20438404.1054   -2092479.33346  -1618107.51862
  23747113.4804   -1396008.49745  -1039367.03261
 91  4 18 20 55 29.9990000  0  5G18G 2G11G19G16
  21000909.823     2237632.840 7   1737230.78022
  22353436.2614   -8078510.63046  -6206794.37561
  22405635.4174   -4916324.96446  -3767938.35761
  20436323.8864   -2103416.27446  -1626629.81362
  23742418.2304   -1420686.94345  -1058596.97161
 91  4 18 20 55 44.9990000  0  5G18G 2G11G19G16
  21005246.253     2260421.837 7   1754988.36122
  22343891.9564   -8128671.97246  -6245881.00261
  22401219.9874   -4939537.75246  -3786026.17161
  20434249.7224   -2114307.53046  -1635116.50962
  23737746.0974   -1445238.73345  -1077728.24761
 91  4 18 20 55 59.9990000  0  5G18G 2G11G19G16
  21009601.292     2283303.669 7   1772818.28422
  22334357.722    -8178776.855 6  -6284923.63021
  22396828.2844   -4962612.03046  -3804006.06661
  20432184.4484   -2125156.15246  -1643569.98262
  23733099.7374   -1469666.89845  -1096763.20261
 91  4 18 20 56 14.9990000  0  5G18G 2G11G19G16
  21013973.011     2306278.870 7   1790720.95822
  22324833.847    -8228824.788 6  -6323921.88321
  22392464.5194   -4985547.23246  -3821877.58861
  20430128.8624   -2135961.94646  -1651990.08662
  23728472.5974   -1493970.99345  -1115701.46861
 91  4 18 20 56 29.9990000  0  5G18G 2G11G19G16
  21018363.222     2329348.087 7   1808696.88722
  22315319.730    -8278814.539 6  -6362874.80321
  22388125.4174   -5008342.07446  -3839639.73961
  20428081.2764   -2146723.46846  -1660375.69062
  23723870.3084   -1518150.00845  -1134542.24461
 91  4 18 20 56 44.9990000  0  5G18G 2G11G19G16
  21022770.558     2352510.160 7   1826745.18222
  22305818.534    -8328747.323 6  -6401783.33121
  22383813.6594   -5030997.62446  -3857293.35761
  20426040.2844   -2157441.77446  -1668727.61962
  23719296.472    -1542205.040 5  -1153286.43721
 91  4 18 20 56 59.9990000  0  5G18G 2G11G19G16
  21027195.894     2375765.528 7   1844866.17122
  22296327.9174   -8378622.44646  -6440646.94461
  22379529.5584   -5053513.04346  -3874837.77961
  20424010.4174   -2168116.34146  -1677045.46562
  23714741.8394   -1566135.51945  -1171933.56361
 91  4 18 20 57 14.9990000  0  6G18G 2G11G19G16G 6
  21031639.464     2399112.343 7   1863058.42222
  22286845.4804   -8428441.38346  -6479466.77161
  22375270.4484   -5075889.75746  -3892274.12261
  20421986.1054   -2178748.72046  -1685330.44262
  23710211.409    -1589943.147 5  -1190484.99821
  24019363.3704         -0.97354
 91  4 18 20 57 29.9990000  0  6G18G 2G11G19G16G 6
  21036100.245     2422555.493 7   1881325.73422
  22277376.9954   -8478198.88246  -6518238.72961
  22371040.4334   -5098122.34346  -3909598.15461
  20419972.8314   -2189333.58946  -1693578.39762
  23705707.1594   -1613622.60145  -1208936.50961
  24010466.1514     -46752.20444
 91  4 18 20 57 44.9990000  0  6G18G 2G11G19G16G 6
  21040578.237     2446091.408 7   1899665.33122
  22267921.7694   -8527898.07046  -6556965.24861
  22366838.1904   -5120214.03946  -3926812.40061
  20417966.6984   -2199874.11046  -1701791.78962
  23701224.8474   -1637176.95345  -1227290.58561
  24001568.761      -93505.764 4
 91  4 18 20 57 59.9990000  0  6G18G 2G11G19G16G 6
  21045075.050     2469722.184 7   1918078.84222
  22258473.1834   -8577537.06446  -6595644.87061
  22362659.636    -5142162.791 6  -3943915.27521
  20415969.2454   -2210368.30146  -1709969.08762
  23696764.167    -1660604.318 5  -1245545.67221
  23992674.3084    -140259.80244
 91  4 18 20 58 14.9990000  0  6G18G 2G11G19G16G 6
  21049589.0034    2493445.12347   1936564.17963
  22249038.417    -8627118.065 6  -6634279.27721
  22358510.4174   -5163970.86746  -3960908.52561
  20413980.8864   -2220818.53546  -1718112.13162
  23692331.159    -1683906.776 5  -1263703.45921
  23983775.565     -187016.717 4        -0.38031
 91  4 18 20 58 29.9990000  0  6G18G 2G11G19G16G 6
  21054122.409     2517262.790 7   1955123.32823
  22239615.206    -8676638.265 6  -6672866.31721
  22354387.565    -5185635.377 6  -3977789.90621
  20412003.7694   -2231222.17846  -1726218.86762
  23687920.5814   -1707081.64045  -1281761.82361
  23974879.940     -233773.851 5    -36434.40121
 91  4 18 20 58 44.9980000  0  6G18G 2G11G19G16G 6
  21058673.0064    2541175.25947   1973756.34963
  22230204.436    -8726092.469 6  -6711401.92221
  22350291.959    -5207152.822 6  -3994556.68921
  20410031.6544   -2241576.52046  -1734287.18162
  23683538.162    -1730125.987 5  -1299718.44621
  23965984.3654    -280526.19145    -72864.68961
 91  4 18 20 58 59.9980000  0  6G18G 2G11G19G16G 6
  21063241.100     2565182.019 7   1992462.84623
  22220805.1934   -8775490.53746  -6749893.79761
  22346224.9044   -5228529.48446  -4011213.77761
  20408071.8504   -2251886.14946  -1742320.66462
  23679175.7324   -1753046.06545  -1317578.28461
  23957085.4044    -327283.52445   -109298.82061
 91  4 18 20 59 14.9980000  0  6G18G 2G11G19G16G 6
  21067828.0224    2589281.05847   2011241.24863
  22211415.8574   -8824829.13246  -6788339.32461
  22342183.8814   -5249763.90346  -4027760.02561
  20406115.4674   -2262150.51246  -1750318.86762
  23674836.365    -1775840.477 5  -1335340.19221
  23948189.092     -374042.770 5   -145734.46021
 91  4 18 20 59 29.9980000  0  6G18G 2G11G19G16G 6
  21072430.3264    2613472.89147   2030091.95863
  22202036.1314   -8874107.70646  -6826738.08661
  22338170.850    -5270855.252 6  -4044194.78421
  20404173.4044   -2272368.93046  -1758281.26862
  23670521.850    -1798508.521 5  -1353003.59721
  23939290.9674    -420803.51544   -182171.27961
 91  4 18 20 59 44.9980000  0  6G18G 2G11G19G16G 6
  21077052.4364    2637758.58847   2049015.80563
  22192671.3654   -8923325.13546  -6865089.20761
  22334183.553    -5291802.115 6  -4060516.96221
  20402236.7954   -2282540.10446  -1766206.85862
  23666232.4514   -1821048.83345  -1370567.48561
  23930388.232     -467564.483 4   -218608.29121
 91  4 18 20 59 59.9980000  0  6G18G 2G11G19G16G 6
  21081690.295     2662135.582 7   2068010.79423
  22183316.7644   -8972483.47946  -6903394.28561
  22330224.553    -5312606.762 6  -4076728.31921
  20400309.7724   -2292666.33646  -1774097.42962
  23661966.3894   -1843463.88744  -1388033.77161
  23921494.318     -514328.002 4   -255047.23421
 91  4 18 21  0 14.9980000  0  6G18G 2G11G19G16G 6
  21086348.865     2686609.680 7   2087081.45323
  22173975.6314   -9021576.67346  -6941648.60161
  22326292.451    -5333263.108 6  -4092824.12521
  20398393.3034   -2302741.50846  -1781948.21262
  23657725.6154   -1865747.74044  -1405397.82461
  23912592.592     -561088.151 4   -291483.60321
 91  4 18 21  0 29.9980000  0  6G18G 2G11G19G16G 6
  21091024.459     2711179.255 7   2106226.50023
  22164645.5844   -9070606.11346  -6979853.23161
  22322391.522    -5353772.381 6  -4108805.32521
  20396482.1934   -2312767.12646  -1789760.38462
  23653514.389    -1887901.541 4  -1422660.52221
  23903694.795     -607846.411 5   -327918.45721
 91  4 18 21  0 44.9980000  0  6G18G 2G11G19G16G 6
  21095719.545     2735847.513 7   2125448.44123
  22155327.5844   -9119568.17446  -7018005.35861
  22318515.014    -5374131.104 6  -4124669.21521
  20394586.2644   -2322739.64746  -1797531.18562
  23649322.248    -1909921.792 5  -1439819.17721
  23894797.3184    -654599.30145   -364349.16761
 91  4 18 21  0 59.9980000  0  6G18G 2G11G19G16G 6
  21100430.818     2760608.580 7   2144742.70423
  22146023.404    -9168468.807 6  -7056109.63821
  22314670.272    -5394344.989 6  -4140420.24321
  20392696.9754   -2332664.72446  -1805265.01462
  23645152.748    -1931814.608 5  -1456878.51921
  23885904.162     -701352.730 5   -400780.28921
 91  4 18 21  1 14.9980000  0  6G18G 2G11G19G16G 6
  21105161.420     2785466.634 7   2164112.54323
  22136728.076    -9217303.455 6  -7094162.50621
  22310852.068    -5414409.436 6  -4156054.82421
  20390819.1314   -2342538.01246  -1812958.48962
  23641012.8894   -1953575.43945  -1473835.03461
  23877003.959     -748102.363 4   -437208.45921
 91  4 18 21  1 29.9980000  0  6G18G 2G11G19G16G 6
  21109909.764     2810419.570 7   2183556.30723
  22127448.5844   -9266073.43646  -7132164.96461
  22307062.162    -5434325.736 6  -4171573.97221
  20388948.7174   -2352361.04246  -1820612.80362
  23636897.7404   -1975205.75745  -1490689.80461
  23868106.029     -794849.812 4   -473634.92621
 91  4 18 21  1 44.9980000  0  6G18G 2G11G19G16G 6
  21114675.232     2835463.794 7   2203071.20323
  22118178.061    -9314782.452 6  -7170119.93121
  22303300.318    -5454097.503 6  -4186980.49421
  20387089.8574   -2362137.21246  -1828230.60362
  23632799.8114   -1996709.09244  -1507445.68461
  23859210.4284    -841598.62745   -510062.44061
 91  4 18 21  1 59.9980000  0  6G18G 2G11G19G16G 6
  21119458.123     2860595.415 7   2222654.19723
  22108921.420    -9363434.282 6  -7208030.34121
  22299565.943    -5473728.318 6  -4202277.18721
  20385237.2794   -2371870.25546  -1835814.79562
  23628735.5294   -2018089.27844  -1524105.58861
  23850317.022     -888352.586 5   -546493.98021
 91  4 18 21  2 14.9980000  0  6G18G 2G11G19G16G 6
  21124258.4514    2885820.59447   2242310.09763
  22099674.6314   -9412022.37646  -7245891.08161
  22295856.170    -5493211.630 6  -4217458.94121
  20383393.5764   -2381553.86146  -1843360.47062
  23624691.092    -2039340.040 4  -1540664.65421
  23841419.8574    -935105.40845   -582924.64961
 91  4 18 21  2 29.9980000  0  6G18G 2G11G19G16G 6
  21129076.865     2911140.625 7   2262039.90923
  22090442.482    -9460545.182 6  -7283700.94721
  22292177.9044   -5512545.95646  -4232524.61261
  20381565.0064   -2391186.45346  -1850866.39562
  23620672.6394   -2060459.93144  -1557121.71761
  23832522.334     -981855.599 5   -619353.25021
 91  4 18 21  2 44.9980000  0  6G18G 2G11G19G16G 6
  21133912.3184    2936552.97247   2281841.65262
  22081221.850    -9509004.636 6  -7321461.45021
  22288526.334    -5531733.286 6  -4247475.73521
  20379738.3974   -2400770.05246  -1858334.13962
  23616683.6934   -2081451.23245  -1573478.58961
  23823624.967    -1028605.315 5   -655781.47321
 91  4 18 21  2 59.9980000  0  6G18G 2G11G19G16G 6
  21138766.1074    2962061.54347   2301718.37463
  22072010.7794   -9557396.96946  -7359169.64261
  22284903.4124   -5550769.70046  -4262309.26261
  20377925.9984   -2410300.71546  -1865760.63962
  23612707.9904   -2102309.90244  -1589732.13461
  23814728.443    -1075350.802 4   -692206.37921
 91  4 18 21  3 14.9980000  0  6G18G 2G11G19G16G 6
  21143636.686     2987658.372 7   2321663.87222
  22062815.1704   -9605729.44046  -7396831.18461
  22281309.748    -5569662.548 6  -4277030.92321
  20376117.9434   -2419785.99546  -1873151.77262
  23608764.131    -2123043.127 4  -1605887.90721
  23805832.5844   -1122099.50444   -728633.79961
 91  4 18 21  3 29.9980000  0  6G18G 2G11G19G16G 6
  21148530.170     3013374.448 7   2341702.28322
  22053633.6784   -9653971.21146  -7434422.04961
  22277745.623    -5588380.807 6  -4291616.53721
  20374327.7014   -2429194.63646  -1880483.19262
  23604850.623    -2143620.234 5  -1621922.03721
  23796944.107    -1168820.525 5   -765039.64621
 91  4 18 21  3 44.9980000  0  6G18G 2G11G19G16G 6
  21153454.295     3039248.137 7   2361863.51422
  22044478.170    -9702083.492 6  -7471912.02521
  22274224.0764   -5606885.68646  -4306035.88861
  20372560.8734   -2438487.92946  -1887724.72662
  23600969.8264   -2164002.76744  -1637804.54461
  23788065.607    -1215475.294 5   -801393.88721
 91  4 18 21  3 59.9980000  0  6G18G 2G11G19G16G 6
  21158396.2254    3065219.23547   2382100.64662
  22035335.311    -9750126.018 6  -7509347.64421
  22270732.9754   -5625236.85746  -4320335.46261
  20370803.3814   -2447725.61446  -1894922.93062
  23597118.365    -2184250.532 5  -1653582.03621
  23779190.420    -1262123.715 5   -837743.16021
 91  4 18 21  4 14.9980000  0  6G18G 2G11G19G16G 6
  21163356.2014    3091281.43147   2402408.76262
  22026205.100    -9798105.293 6  -7546733.98221
  22267270.2874   -5643440.69546  -4334520.23161
  20369052.5374   -2456914.21846  -1902082.89362
  23593292.3974   -2204369.84545  -1669259.44661
  23770313.6934   -1308772.18645   -874092.48661
 91  4 18 21  4 29.9980000  0  6G18G 2G11G19G16G 6
  21168333.0294    3117436.84447   2422789.51262
  22017087.217    -9846018.515 6  -7584068.84821
  22263832.6864   -5661494.48146  -4348588.09161
  20367313.9364   -2466051.10946  -1909202.55662
  23589483.982    -2224358.153 5  -1684834.79621
  23761437.217    -1355418.201 5   -910439.90721
 91  4 18 21  4 44.9980000  0  6G18G 2G11G19G16G 6
  21173328.381     3143686.200 7   2443243.47022
  22007984.037    -9893864.632 6  -7621351.43021
  22260425.9124   -5679397.17046  -4362538.21061
  20365586.5614   -2475135.33046  -1916281.17662
  23585707.5684   -2244214.31044  -1700307.12761
  23752557.1234   -1402060.74745   -946784.60961
 91  4 18 21  4 59.9980000  0  6G18G 2G11G19G16G 6
  21178340.2174    3170023.84147   2463766.21862
  21998890.811    -9941649.123 6  -7658585.99621
  22257049.100    -5697154.198 6  -4376374.83021
  20363866.7094   -2484172.20046  -1923322.90262
  23581954.4044   -2263944.00645  -1715680.94761
  23743681.2094   -1448705.42544   -983130.99261
 91  4 18 21  5 14.9980000  0  6G18G 2G11G19G16G 6
  21183368.2094    3196450.61647   2484358.42262
  21989808.5844   -9989371.11246  -7695771.86861
  22253697.2014   -5714764.55646  -4390097.15861
  20362155.6074   -2493160.54446  -1930326.81462
  23578221.717    -2283546.376 5  -1730955.55821
  23734803.740    -1495351.337 4  -1019478.27721
 91  4 18 21  5 29.9980000  0  6G18G 2G11G19G16G 6
  21188415.139     3222968.892 7   2505021.92922
  21980739.4124  -10037027.49246  -7732906.60961
  22250374.975    -5732225.289 6  -4403702.89621
  20360453.514    -2502097.625 6  -1937290.78622
  23574516.1314   -2303018.45945  -1746128.62361
  23725929.8654   -1541995.67145  -1055824.36261
 91  4 18 21  5 44.9980000  0  6G18G 2G11G19G16G 6
  21193479.2404    3249581.12947   2525758.64762
  21971683.865   -10084615.478 6  -7769988.05221
  22247079.436    -5749533.492 6  -4417189.78421
  20358765.850    -2510980.612 6  -1944212.60122
  23570836.7794   -2322357.76545  -1761198.22061
  23717052.0374   -1588635.63045  -1092167.03561
 91  4 18 21  5 59.9980000  0  6G18G 2G11G19G16G 6
  21198562.2484    3276290.92147   2546571.38062
  21962644.287   -10132131.402 6  -7807013.33521
  22243817.006    -5766685.425 6  -4430554.90121
  20357085.381    -2519805.785 6  -1951089.37222
  23567178.365    -2341560.557 5  -1776161.47521
  23708183.7014   -1635267.77945  -1128503.62261
 91  4 18 21  6 14.9980000  0  6G18G 2G11G19G16G 6
  21203663.0684    3303091.38347   2567454.76162
  21953612.1314  -10179582.12246  -7843987.80061
  22240580.5374   -5783687.81246  -4443803.48861
  20355415.787    -2528579.850 6  -1957926.32222
  23563551.3344   -2360633.65845  -1791023.63561
  23699304.748    -1681898.789 5  -1164839.34321
 91  4 18 21  6 29.9980000  0  6G18G 2G11G19G16G 6
  21208780.1004    3329982.49247   2588408.78062
  21944594.8114  -10226967.31046  -7880911.20561
  22237372.0374   -5800540.32746  -4456935.29061
  20353756.068    -2537302.547 6  -1964723.24122
  23559949.397    -2379576.610 5  -1805784.38121
  23690437.186    -1728528.477 5  -1201174.03921
 91  4 18 21  6 44.9980000  0  6G18G 2G11G19G16G 6
  21213914.0844    3356966.46247   2609435.15862
  21935588.451   -10274284.571 6  -7917781.68221
  22234196.4674   -5817240.51546  -4469948.39361
  20352105.889    -2545971.445 6  -1971478.23822
  23556368.3974   -2398387.14245  -1820441.93661
  23681559.162    -1775154.451 5  -1237505.84121
 91  4 18 21  6 59.9980000  0  6G18G 2G11G19G16G 6
  21219065.7324    3384037.09647   2630529.06362
  21926597.748   -10321539.389 6  -7954603.50321
  22231044.537    -5833794.124 6  -4482847.29121
  20350465.545    -2554592.255 6  -1978195.76822
  23552814.826    -2417071.259 5  -1835001.01021
  23672688.5924   -1821782.60445  -1273839.37561
 91  4 18 21  7 14.9980000  0  6G18G 2G11G19G16G 6
  21224235.6624    3411196.02047   2651691.76262
  21917618.232   -10368730.153 6  -7991375.42021
  22227924.600    -5850199.472 6  -4495630.65921
  20348834.029    -2563163.299 6  -1984874.52022
  23549280.936    -2435627.324 5  -1849460.28121
  23663811.443    -1868411.365 4  -1310173.35421
 91  4 18 21  7 29.9980000  0  6G18G 2G11G19G16G 6
  21229420.1544    3438446.68247   2672925.95162
  21908649.389   -10415853.254 6  -8028094.61621
  22224831.631    -5866452.762 6  -4508295.54421
  20347213.568    -2571680.857 6  -1991511.59122
  23545778.9284   -2454051.64445  -1863816.90561
  23654943.225    -1915036.995 5  -1346504.90521
 91  4 18 21  7 44.9980000  0  6G18G 2G11G19G16G 6
  21234621.9284    3465784.97447   2694228.41862
  21899694.818   -10462912.105 6  -8064763.73921
  22221767.4514   -5882557.40446  -4520844.59161
  20345602.537    -2580148.427 6  -1998109.71222
  23542294.709    -2472347.872 5  -1878073.74021
  23646071.990    -1961663.055 5  -1382836.74121
 91  4 18 21  7 59.9980000  0  6G18G 2G11G19G16G 6
  21239841.3184    3493209.82847   2715598.33562
  21890751.936   -10509907.545 6  -8101383.46021
  22218730.006    -5898514.366 6  -4533278.56222
  20344002.225    -2588566.796 6  -2004669.49022
  23538838.662    -2490517.044 5  -1892231.54721
  23637196.3424   -2008290.60545  -1419169.76861
 91  4 18 21  8 14.9980000  0  6G18G 2G11G19G16G 6
  21245079.717     3520731.413 7   2737043.62722
  21881822.818   -10556829.176 6  -8137945.65021
  22215722.272    -5914313.213 6  -4545589.32821
  20342410.693    -2596925.447 6  -2011182.74122
  23535410.162    -2508548.744 5  -1906282.21721
  23628323.459    -2054909.306 5  -1455495.90621
 91  4 18 21  8 29.9980000  0  6G18G 2G11G19G16G 6
  21250333.3034    3548341.80247   2758558.11462
  21872908.5614  -10603684.94746  -8174456.52061
  22212744.693    -5929961.626 6  -4557782.87721
  20340830.561    -2605232.236 6  -2017655.57822
  23531999.553    -2526450.897 5  -1920231.94421
  23619450.9984   -2101526.96445  -1491821.22661
 91  4 18 21  8 44.9980000  0  6G18G 2G11G19G16G 6
  21255615.9754    3576103.63547   2780190.61762
  21864015.3574  -10650411.63246  -8210866.80461
  22209808.0144   -5945396.45546  -4569809.99161
  20339271.2404   -2613424.07946  -2024038.84262
  23528631.232    -2544160.155 5  -1934031.38521
  23610593.9754   -2148080.56344  -1528096.62961
 91  4 18 21  8 59.9980000  0  6G18G 2G11G19G16G 6
  21260935.4984    3604058.51247   2801973.54562
  21855155.014   -10696967.551 6
  22206922.076    -5960576.085 6  -4581638.25821
  20337740.850    -2621459.397 6  -2030300.13622
  23525305.404    -2561635.247 5  -1947648.34821
  23601757.2724   -2194528.64244
 91  4 18 21  9 14.9980000  0  6G18G 2G11G19G16G 6
  21266273.561     3632107.389 7   2823829.71022
  21846309.897   -10743451.243 6
  22204059.670    -5975599.032 6  -4593344.42621
  20336225.2874   -2629436.70746  -2036516.23162
  23522003.5374   -2578974.83145  -1961159.74461
  23592920.2014   -2240969.72445
 91  4 18 21  9 29.9980000  0  6G18G 2G11G19G16G 6
  21271628.5294    3660250.21147   2845759.08562
  21837478.654   -10789862.647 6
  22201231.561    -5990465.225 6  -4604928.45521
  20334716.7094   -2637355.64746  -2042686.84362
  23518733.732    -2596178.904 5  -1974565.53021
  23584081.3184   -2287403.79645
 91  4 18 21  9 44.9980000  0  6G18G 2G11G19G16G 6
  21277002.373     3688485.768 7   2867760.71722
  21828659.107   -10836202.839 6  -8355638.73321
  22198432.1864   -6005175.65246  -4616391.09961
  20333221.865    -2645217.344 6  -2048812.84922
  23515482.5454   -2613248.21045  -1987866.31561
  23575246.3734   -2333831.99445
 91  4 18 21  9 59.9980000  0  6G18G 2G11G19G16G 6
  21282391.9824    3716811.56647   2889832.66962
  21819855.4984  -10882473.87346  -8391693.96662
  22195663.076    -6019732.403 6  -4627734.00421
  20331733.2254   -2653023.90746  -2054895.89462
  23512260.3974   -2630185.19745  -2001063.98661
  23566411.5844   -2380256.39545
 91  4 18 21 10 14.9980000  0  6G18G 2G11G19G16G 6
  21287799.248     3745223.633 7   2911971.84122
  21811060.4434  -10928679.21046  -8427698.00061
  22192922.475    -6034139.044 6  -4638959.93121
  20330258.264    -2660778.873 6  -2060938.73722
  23509058.9364   -2646993.75544  -2014161.58961
  23557577.4824   -2426680.73044        -0.02371
 91  4 18 21 10 29.9980000  0  6G18G 2G11G19G16G 6
  21293221.5534    3773721.81947   2934178.12162
  21802281.1624  -10974818.96746  -8463650.94762
  22190206.420    -6048395.551 6  -4650068.87221
  20328793.7954   -2668482.13746  -2066941.28562
  23505888.4044   -2663673.59245  -2027158.91361
  23548747.5224   -2473105.12545    -36174.72961
 91  4 18 21 10 44.9980000  0  6G18G 2G11G19G16G 6
  21298662.2644    3802315.13647   2956458.53462
  21793515.3574  -11020883.78846  -8499545.48561
  22187524.428    -6062492.687 6  -4661053.63521
  20327341.2174   -2676124.42846  -2072896.32462
  23502738.7014   -2680215.83345  -2040048.99461
  23539912.3814   -2519520.26145    -72342.26761
 91  4 18 21 10 59.9980000  0  6G18G 2G11G19G16G 6
  21304119.4124    3830992.76647   2978804.64262
  21784761.5454  -11066884.14046  -8535389.79162
  22184872.662    -6076440.939 6  -4671922.38321
  20325897.9514   -2683716.44046  -2078812.18762
  23499620.615    -2696630.888 5  -2052839.99021
  23531079.5454   -2565936.68645   -108510.81361
 91  4 18 21 11 14.9980000  0  6G18G 2G11G19G16G 6
  21309593.1234    3859755.47847   3001217.04862
  21776022.092   -11112819.020 6  -8571183.09422
  22182246.904    -6090239.136 6  -4682674.20021
  20324460.7014   -2691256.97346  -2084687.92962
  23496513.7954   -2712918.19145  -2065531.41361
  23522244.8974   -2612353.47345   -144679.66161
 91  4 18 21 11 29.9980000  0  6G18G 2G11G19G16G 6
  21315083.787     3888604.767 7   3023696.91322
  21767292.975   -11158686.685 6  -8606924.03022
  22179648.967    -6103885.461 6  -4693307.68321
  20323036.0224   -2698744.26746  -2090522.18962
  23493444.0764   -2729075.54145  -2078121.61761
  23513411.123    -2658768.924 5   -180847.44121
 91  4 18 21 11 44.9980000  0  6G18G 2G11G19G16G 6
  21320590.1234    3917549.36447   3046251.04862
  21758579.357   -11204478.000 6  -8642605.47321
  22177082.467    -6117370.887 6  -4703815.78921
  20321622.6704   -2706169.15846  -2096307.82162
  23490395.436    -2745094.168 5  -2090603.67121
  23504584.772    -2705174.068 5   -217007.19521
 91  4 18 21 11 59.9980000  0  6G18G 2G11G19G16G 6
  21326115.467     3946577.930 7   3068870.60522
  21749877.8504  -11250204.15246  -8678236.13861
  22174545.186    -6130706.739 6  -4714207.33821
  20320222.4284   -2713542.78346  -2102053.50162
  23487364.9904   -2760985.31045  -2102986.40261
  23495749.1864   -2751580.10045   -253167.63361
 91  4 18 21 12 14.9980000  0  6G18G 2G11G19G16G 6
  21331654.373     3975686.938 7   3091552.85022
  21741188.4754  -11295868.31846  -8713818.51761
  22172034.045    -6143896.121 6  -4724484.76321
  20318827.2564   -2720868.23546  -2107761.65362
  23484371.8264   -2776752.41245  -2115272.49461
  23486918.7014   -2797990.35345   -289331.34061
 91  4 18 21 12 29.9980000  0  6G18G 2G11G19G16G 6
  21337209.428     4004879.982 7   3114300.57022
  21732508.725   -11341466.795 6  -8749349.69522
  22169554.865    -6156935.187 6  -4734645.04921
  20317441.6864   -2728141.80246  -2113429.37062
  23481391.9674   -2792391.70245  -2127458.97861
  23478086.4594   -2844400.94144   -325495.30261
 91  4 18 21 12 44.9980000  0  6G18G 2G11G19G16G 6
  21342781.201     4034155.632 7   3137112.65822
  21723845.467   -11387000.687 6  -8784830.54422
  22167101.373    -6169825.148 6  -4744689.15621
  20316066.3264   -2735364.52746  -2119057.46962
  23478442.6934   -2807904.62245  -2139546.98161
  23469255.9044   -2890813.22745   -361660.60661
 91  4 18 21 12 59.9980000  0  6G18G 2G11G19G16G 6
  21348368.912     4063518.679 7   3159992.84622
  21715194.357   -11432464.935 6  -8820257.12822
  22164676.170    -6182560.932 6  -4754613.12121
  20314703.4514   -2742531.39146  -2124642.04362
  23475518.1394   -2823285.90645  -2151532.43161
  23460425.662    -2937222.116 5   -397823.27721
 91  4 18 21 13 14.9980000  0  6G18G 2G11G19G16G 6
  21353973.342     4092971.899 7   3182943.30422
  21706555.9434  -11477856.31646  -8855626.93762
  22162284.670    -6195139.551 6  -4764414.62921
  20313348.9514   -2749639.18546  -2130180.58962
  23472617.467    -2838532.574 5  -2163412.98021
  23451596.115    -2983624.629 5   -433980.97221
 91  4 18 21 13 29.9980000  0  6G18G 2G11G19G16G 6
  21359594.115     4122507.160 7   3205957.68622
  21697930.709   -11523182.601 6  -8890946.02222
  22159917.178    -6207568.601 6  -4774099.58121
  20312007.8184   -2756695.72446  -2135679.19362
  23469739.803    -2853652.588 5  -2175194.82621
  23442764.5144   -3030028.55745   -470139.80461
 91  4 18 21 13 44.9980000  0  6G18G 2G11G19G16G 6
  21365229.662     4152122.672 7   3229034.59822
  21689318.522   -11568445.425 6  -8926215.63922
  22157582.670    -6219849.687 6  -4783669.24921
  20310674.2954   -2763702.54046  -2141139.05462
  23466882.6864   -2868647.49445  -2186879.17461
  23433934.7404   -3076435.56544   -506300.97661
 91  4 18 21 13 59.9980000  0  6G18G 2G11G19G16G 6
  21370881.522     4181819.723 7   3252175.04922
  21680716.178   -11613643.086 6  -8961434.48722
  22155273.467    -6231981.225 6  -4793122.37121
  20309349.0454   -2770658.00546  -2146558.90462
  23464054.506    -2883515.996 5  -2198465.03021
  23425102.272    -3122844.037 4   -542463.30021
 91  4 18 21 14 14.9980000  0  6G18G 2G11G19G16G 6
  21376547.303     4211598.915 7   3275379.51022
  21672129.248   -11658774.900 6  -8996602.03022
  22152991.717    -6243962.351 6  -4802458.30021
  20308038.3114   -2777561.25846  -2151938.06962
  23461249.107    -2898257.404 5  -2209951.85521
  23416267.475    -3169253.324 4   -578626.24521
 91  4 18 21 14 29.9980000  0  6G18G 2G11G19G16G 6
  21382232.115     4241466.926 7   3298653.17922
  21663554.795   -11703833.883 6  -9031712.81322
  22150743.756    -6255786.198 6  -4811671.67121
  20306733.9904   -2784405.27646  -2157271.07862
  23458466.139    -2912864.786 5  -2221334.24621
  23407437.3814   -3215656.51844   -614784.46061
 91  4 18 21 14 44.9980000  0  6G18G 2G11G19G16G 6
  21387931.936     4271419.816 7   3321992.98022
  21654991.6704  -11748823.63646  -9066769.66062
  22148523.772    -6267456.344 6  -4820765.27421
  20305441.7094   -2791193.73646  -2162560.78962
  23455712.389    -2927342.025 5  -2232615.24521
  23398607.443    -3262057.352 4   -650940.84521
 91  4 18 21 14 59.9980000  0  6G18G 2G11G19G16G 6
  21393647.592     4301457.788 7   3345399.08822
  21646444.748   -11793743.905 6  -9101772.36422
  22146331.217    -6278972.541 6  -4829738.91721
  20304164.1624   -2797926.35946  -2167806.99562
  23452980.7014   -2941688.89045  -2243794.63661
  23389779.4904   -3308455.41845   -687095.08961
 91  4 18 21 15 14.9980000  0  6G18G 2G11G19G16G 6
  21399379.053     4331574.527 7   3368866.56522
  21637907.6544  -11838600.56246  -9136725.49962
  22144169.537    -6290340.677 6  -4838597.18121
  20302889.5454   -2804608.90646  -2173014.18362
  23450277.4434   -2955911.20845  -2254876.98661
  23380948.725    -3354856.701 5   -723251.82621
 91  4 18 21 15 29.9980000  0  6G18G 2G11G19G16G 6
  21405125.209     4361770.352 7   3392395.67122
  21629386.7254  -11883392.51346  -9171628.22262
  22142032.537    -6301559.862 6  -4847339.38621
  20301629.9514   -2811240.41446  -2178181.59662
  23447595.1934   -2970008.31045  -2265861.74661
  23372119.7954   -3401260.40544   -759410.44961
 91  4 18 21 15 44.9980000  0  6G18G 2G11G19G16G 6
  21410887.701     4392050.203 7   3415990.24622
  21620874.4674  -11928114.89146  -9206476.73562
  22139928.326    -6312625.206 6  -4855961.71122
  20300375.4364   -2817815.85646  -2183305.32362
  23444937.5614   -2983975.17745  -2276745.04661
  23363283.4984   -3447661.62944   -795567.12861
 91  4 18 21 15 59.9980000  0  6G18G 2G11G19G16G 6
  21416665.787     4422407.282 7   3439645.00122
  21612373.5684  -11972774.11846  -9241276.04562
  22137850.514    -6323543.110 6  -4864469.14722
  20299135.3344   -2824341.71546  -2188390.41562
  23442302.0144   -2997818.55245  -2287532.09161
  23354462.0454   -3494066.89745   -831726.96361
 91  4 18 21 16 14.9980000  0  6G18G 2G11G19G16G 6
  21422456.709     4452846.296 7   3463363.60122
  21603889.8894  -12017365.48346  -9276022.47662
  22135798.865    -6334308.814 6  -4872857.98121
  20297904.6314   -2830813.09646  -2193433.05462
  23439692.326    -3011533.719 5  -2298219.24921
  23345628.623    -3540471.298 5   -867886.13721
 91  4 18 21 16 29.9980000  0  6G18G 2G11G19G16G 6
  21428264.6624    4483368.18647   3487146.78162
  21595417.506   -12061887.631 6  -9310714.96822
  22133780.498    -6344920.983 6  -4881127.18221
  20296684.7724   -2837228.57646  -2198432.13862
  23437110.6704   -3025119.59745  -2308805.69461
  23336800.6004   -3586873.72445   -904043.74661
 91  4 18 21 16 44.9980000  0  6G18G 2G11G19G16G 6
  21434087.162     4513965.356 7   3510988.62022
  21586957.3974  -12106348.00746  -9345359.33162
  22131790.600    -6355387.303 7  -4889282.73921
  20295468.9674   -2843595.82546  -2203393.63762
  23434545.6394   -3038583.83945  -2319297.32761
  23327969.264    -3633281.734 5   -940205.72221
 91  4 18 21 16 59.9980000  0  6G18G 2G11G19G16G 6
  21439925.943     4544646.378 7   3534895.79722
  21578510.6544  -12150737.68146  -9379948.59662
  22129826.592    -6365698.756 7  -4897317.62621
  20294270.4434   -2849905.79846  -2208310.51062
  23432006.4514   -3051917.30645  -2329687.05261
  23319137.6704   -3679686.47144   -976365.13261
 91  4 18 21 17 14.9980000  0  6G18G 2G11G19G16G 6
  21445780.897     4575411.658 7   3558868.62622
  21570077.0374  -12195055.69446  -9414482.02362
  22127894.701    -6375854.332 7  -4905231.04021
  20293080.4904   -2856157.40346  -2213181.90062
  23429494.6234   -3065119.12945  -2339974.22161
  23310307.428    -3726086.886 4  -1012521.20321
 91  4 18 21 17 29.9980000  0  6G18G 2G11G19G16G 6
  21451650.225     4606259.538 7   3582905.82522
  21561656.568   -12239303.539 6  -9448960.77622
  22125991.045    -6385855.502 7  -4913024.15122
  20291903.2644   -2862352.17446  -2218008.99962
  23427006.4364   -3078190.89245  -2350160.02261
  23301480.545    -3772484.423 5  -1048675.02521
 91  4 18 21 17 44.9980000  0  6G18G 2G11G19G16G 6
  21457536.3344    4637185.88847   3607004.16762
  21553249.8034  -12283485.17746  -9483387.93862
  22124117.897    -6395706.318 7  -4920700.09022
  20290732.6864   -2868493.91846  -2222794.78862
  23424544.3734   -3091136.92645  -2360247.90661
  23292649.662    -3818883.143 5  -1084829.77921
 91  4 18 21 17 59.9980000  0  6G18G 2G11G19G16G 6
  21463433.740     4668183.570 6   3631158.09322
  21544853.4904  -12327607.39446  -9517768.79862
  22122268.795    -6405413.546 7  -4928264.14522
  20289573.8654   -2874589.48446  -2227544.58862
  23422105.6004   -3103964.13045  -2370243.17561
  23283818.4434   -3865289.93045  -1120990.79361
 91  4 18 21 18 14.9980000  0  6G18G 2G11G19G16G 6
  21469348.053     4699262.720 6   3655375.50122
  21536470.0844  -12371659.75746  -9552095.22562
  22120451.826    -6414966.859 7  -4935708.26821
  20288425.0064   -2880628.42846  -2232250.27062
  23419690.607    -3116661.972 5  -2380137.60821
  23274989.701    -3911694.487 5  -1157150.08421
 91  4 18 21 18 29.9980000  0  6G18G 2G11G19G16G 6
  21475278.1074    4730418.00047   3679652.22962
  21528099.037   -12415647.340 6  -9586371.18222
  22118664.061    -6424371.414 7  -4943036.46921
  20287284.7564   -2886615.61546  -2236915.61562
  23417294.1394   -3129236.23245  -2389935.79561
  23266153.7644   -3958102.08044  -1193311.71961
 91  4 18 21 18 44.9980000  0  6G18G 2G11G19G16G 6
  21481220.209     4761649.581 6   3703988.41322
  21519742.545   -12459569.474 6  -9620596.14822
  22116901.107    -6433626.621 7  -4950248.29821
  20286154.076    -2892550.624 6  -2241540.30822
  23414926.0844   -3141686.30745  -2399637.16761
  23257327.170    -4004512.024 4  -1229475.17921
 91  4 18 21 18 59.9980000  0  6G18G 2G11G19G16G 6
  21487180.8344    4792960.95946   3728386.77262
  21511396.467   -12503422.640 6  -9654767.36622
  22115167.787    -6442728.783 7  -4957340.88021
  20285035.1934   -2898429.63346  -2246121.36662
  23412582.1474   -3154008.53645  -2409238.97161
  23248496.529    -4050920.599 5  -1265637.60121
 91  4 18 21 19 14.9980000  0  6G18G 2G11G19G16G 6
  21493151.982     4824352.390 6   3752847.51922
  21503064.256   -12547206.318 6  -9688884.44822
  22113465.131    -6451677.455 7  -4964313.85321
  20283927.0144   -2904252.09746  -2250658.36262
  23410263.029    -3166202.151 5  -2418740.50521
  23239662.404    -4097327.370 5  -1301798.63621
 91  4 18 21 19 29.9980000  0  6G18G 2G11G19G16G 6
  21499141.2174    4855824.48546   3777371.10862
  21494746.0614  -12590919.49046  -9722946.58862
  22111792.162    -6460471.803 7  -4971166.57522
  20282830.1154   -2910017.15646  -2255150.62662
  23407966.904    -3178266.674 5  -2428141.48621
  23230831.9754   -4143731.44045  -1337957.57561
 91  4 18 21 19 44.9980000  0  6G18G 2G11G19G16G 6
  21505147.2724    4887378.87646   3801958.82762
  21486441.5294  -12634560.31246  -9756952.35562
  22110150.186    -6469109.898 7  -4977897.53822
  20281744.631    -2915722.726 6  -2259596.53522
  23405692.928    -3190200.130 5  -2437440.32721
  23222001.748    -4190131.038 4  -1374113.02921
 91  4 18 21 19 59.9980000  0  6G18G 2G11G19G16G 6
  21511165.740     4919013.354 6   3826608.96222
  21478149.8504  -12678130.56546  -9790903.13562
  22108535.123    -6477593.681 7  -4984508.26222
  20280668.912    -2921370.577 6  -2263997.47022
  23403447.2954   -3202004.85545  -2446638.86161
  23213173.0144   -4236528.09644  -1410266.47161
 91  4 18 21 20 14.9980000  0  6G18G 2G11G19G16G 6
  21517200.756     4950724.032 6   3851318.46422
  21469873.1074  -12721633.82846  -9824801.71562
  22106948.936    -6485926.795 7  -4991001.58722
  20279607.0924   -2926964.30446  -2268356.22962
  23401228.154    -3213684.424 5  -2455739.87021
  23204343.5454   -4282926.21944  -1446420.76061
 91  4 18 21 20 29.9980000  0  6G18G 2G11G19G16G 6
  21523250.068     4982512.706 6   3876088.74622
  21461606.0374  -12765068.53046  -9858646.87262
  22105390.912    -6494107.382 7  -4997376.05421
  20278555.451    -2932502.166 6  -2272671.45622
  23399029.811    -3225237.075 5  -2464741.96321
  23195514.0614   -4329323.51945  -1482574.38661
 91  4 18 21 20 44.9980000  0  6G18G 2G11G19G16G 6
  21529313.9824    5014379.98746   3900920.27162
  21453355.3344  -12808433.46146  -9892437.66062
  22103865.076    -6502134.532 7  -5003630.96221
  20277509.193    -2937982.998 6  -2276942.24722
  23396855.7174   -3236662.03145  -2473644.59761
  23186682.8974   -4375719.12245  -1518726.70561
 91  4 18 21 20 59.9980000  0  6G18G 2G11G19G16G 6
  21535394.1314    5046329.31046   3925815.72062
  21445117.092   -12851724.632 6  -9926170.97122
  22102365.498    -6510004.412 7  -5009763.31221
  20276479.764    -2943402.926 6  -2281165.57922
  23394701.0144   -3247955.37845  -2482444.61861
  23177855.084    -4422109.010 5  -1554874.59421
 91  4 18 21 21 14.9980000  0  6G18G 2G11G19G16G 6
  21541487.7874    5078354.04046   3950769.93762
  21436890.8264  -12894948.60946  -9959851.93162
  22100897.193    -6517723.499 7  -5015778.17722
  20275457.287    -2948768.441 6  -2285346.51422
  23392576.2954   -3259123.97545  -2491147.46661
  23169029.0684   -4468499.88445  -1591023.24161
 91  4 18 21 21 29.9980000  0  6G18G 2G11G19G16G 6
  21547598.4284    5110455.32446   3975783.80462
  21428679.732   -12938103.906 6  -9993479.36022
  22099456.7954   -6525290.49147  -5021674.52362
  20274448.467    -2954077.954 6  -2289483.81122
  23390476.9124   -3270166.38645  -2499751.99061
  23160201.7174   -4514890.23645  -1627171.46561
 91  4 18 21 21 44.9980000  0  6G18G 2G11G19G16G 6
  21553720.3654    5142630.37246   4000855.14862
  21420479.201   -12981193.036 6 -10027055.22922
  22098045.936    -6532707.730 7  -5027454.17922
  20273445.693    -2959333.933 6  -2293579.39722
  23388402.2484   -3281084.97445  -2508260.01661
  23151374.1394   -4561282.50744  -1663321.17561
 91  4 18 21 21 59.9980000  0  6G18G 2G11G19G16G 6
  21559857.2324    5174875.65246   4025981.21862
  21412291.623   -13024219.337 6 -10060582.14022
  22096661.5924   -6539978.69846  -5033119.86262
  20272459.397    -2964539.477 6  -2297635.68522
  23386345.584    -3291883.538 5  -2516674.53121
  23142548.8114   -4607680.17545  -1699475.08361
 91  4 18 21 22 14.9980000  0  6G18G 2G11G19G16G 6
  21566007.420     5207197.253 6   4051166.75322
  21404115.9044  -13067176.41946 -10094055.11962
  22095307.670    -6547096.967 7  -5038666.55222
  20271476.779    -2969688.114 6  -2301647.62522
  23384316.998    -3302555.690 5  -2524990.55221
  23133717.8974   -4654076.77445  -1735628.17861
 91  4 18 21 22 29.9980000  0  6G18G 2G11G19G16G 6
  21572173.1474    5239593.82346   4076410.71162
  21395954.764   -13110065.457 6 -10127475.07622
  22093983.1234   -6554063.80946  -5044095.25162
  20270507.584    -2974781.048 6  -2305616.16122
  23382309.6394   -3313102.73945  -2533209.09761
  23124884.647    -4700473.514 5  -1771781.40021
 91  4 18 21 22 44.9980000  0  6G18G 2G11G19G16G 6
  21578350.4824    5272066.65746   4101714.09362
  21387807.225   -13152884.439 6 -10160840.44722
  22092685.8654   -6560877.47246  -5049404.59661
  20269547.576    -2979816.498 6  -2309539.90722
  23380323.1934   -3323522.89345  -2541328.73561
  23116058.7404   -4746868.59745  -1807933.32661
 91  4 18 21 22 59.9980000  0  6G18G 2G11G19G16G 6
  21584546.1934    5304616.21646   4127077.26862
  21379671.5374  -13195632.83446 -10194150.81562
  22091418.4364   -6567537.45946  -5054594.19362
  20268602.076    -2984793.860 6  -2313418.38622
  23378363.514    -3333816.001 5  -2549349.39621
  23107229.936    -4793261.593 5  -1844083.59621
 91  4 18 21 23 14.9980000  0  6G18G 2G11G19G16G 6
  21590753.8974    5337241.79946   4152499.68062
  21371551.2724  -13238311.03446 -10227406.48562
  22090179.6544   -6574044.23646  -5059664.40662
  20267665.928    -2989713.516 6  -2317251.90322
  23376435.3504   -3343982.36245  -2557271.28561
  23098400.014    -4839652.867 5  -1880232.54021
 91  4 18 21 23 29.9980000  0  6G18G 2G11G19G16G 6
  21596976.7484    5369939.27346   4177978.09262
  21363441.5374  -13280922.96246 -10260610.51762
  22088972.0144   -6580401.67046  -5064618.24961
  20266741.709    -2994579.199 6  -2321043.36222
  23374520.0454   -3354025.96245  -2565097.50561
  23089570.1704   -4886046.29945  -1916383.15061
 91  4 18 21 23 44.9980000  0  6G18G 2G11G19G16G 6
  21603213.287     5402707.870 6   4203511.94921
  21355345.709   -13323469.042 6 -10293763.23622
  22087789.8974   -6586610.21546  -5069456.08762
  20265822.951    -2999391.277 6  -2324793.05022
  23372631.873    -3363947.505 5  -2572828.62721
  23080744.2254   -4932442.33745  -1952535.80061
 91  4 18 21 23 59.9980000  0  6G18G 2G11G19G16G 6
  21609462.5614    5435547.88946   4229101.44662
  21347261.6004  -13365948.63446 -10326864.15062
  22086636.0294   -6592669.43546  -5074177.55762
  20264920.428    -3004149.028 6  -2328500.40422
  23370767.7094   -3373746.40645  -2580464.18761
  23071913.428    -4978840.370 5  -1988690.01321
 91  4 18 21 24 14.9980000  0  6G18G 2G11G19G16G 6
  21615725.5374    5468462.98846   4254749.44762
  21339190.7564  -13408358.01446 -10359910.35262
  22085511.4434   -6598575.58746  -5078779.75461
  20264025.389    -3008848.594 6  -2332162.41822
  23368927.053    -3383418.990 5  -2588001.29621
  23063083.9674   -5025236.73645  -2024842.93961
 91  4 18 21 24 29.9980000  0  6G18G 2G11G19G16G 6
  21622003.6004    5501451.79746   4280454.89262
  21331133.6394  -13450698.33446 -10392902.74862
  22084416.0064   -6604329.68946  -5083263.47462
  20263144.904    -3013490.964 6  -2335779.87022
  23367108.029    -3392966.740 5  -2595441.14521
  23054258.568    -5071632.466 5  -2060995.35621
 91  4 18 21 24 44.9980000  0  6G18G 2G11G19G16G 6
  21628293.850     5534509.634 6   4306214.11422
  21323089.568   -13492973.746 6 -10425844.55522
  22083351.4204   -6609936.04346  -5087632.07062
  20262267.482    -3018080.450 6  -2339356.11522
  23365313.803    -3402394.222 5  -2602787.26621
  23045430.100    -5118031.813 5  -2097150.58121
 91  4 18 21 24 59.9980000  0  6G18G 2G11G19G16G 6
  21634598.2564    5567639.78746   4332029.69462
  21315057.9364  -13535180.68846 -10458733.00862
  22082310.4204   -6615391.23846  -5091882.87062
  20261408.467    -3022613.578 6  -2342888.43722
  23363543.5064   -3411697.75945  -2610036.80861
  23036595.639    -5164431.310 5  -2133305.95321
 91  4 18 21 25 14.9980000  0  6G18G 2G11G19G16G 6
  21640917.709     5600846.511 6   4357904.93922
  21307040.506   -13577314.485 6 -10491564.46622
  22081303.6394   -6620690.77446  -5096012.38661
  20260554.303    -3027085.621 6  -2346373.17122
  23361800.295    -3420872.861 5  -2617186.26821
  23027767.3344   -5210826.26845  -2169457.74861
 91  4 18 21 25 29.9980000  0  6G18G 2G11G19G16G 6
  21647249.857     5634123.395 6   4383834.84921
  21299033.975   -13619381.505 6 -10524343.88522
  22080321.9904   -6625840.92446  -5100025.49762
  20259714.764    -3031502.748 6  -2349815.10722
  23360077.154    -3429926.022 5  -2624240.73321
  23018934.670    -5257223.073 5  -2205610.99521
 91  4 18 21 25 44.9980000  0  6G18G 2G11G19G16G 6
  21653596.1544    5667471.71246   4409820.42562
  21291042.373   -13661380.311 6 -10557070.15522
  22079373.5374   -6630840.39246  -5103921.19461
  20258883.686    -3035863.473 6  -2353213.09622
  23358381.3734   -3438856.05145  -2631199.23461
  23010109.2794   -5303620.35045  -2241764.60361
 91  4 18 21 25 59.9980000  0  6G18G 2G11G19G16G 6
  21659954.9124    5700889.96046   4435860.49061
  21283063.303   -13703311.805 6 -10589743.97422
  22078446.8974   -6635690.18146  -5107700.25461
  20258065.990    -3040168.585 6  -2356567.74422
  23356700.647    -3447663.734 5  -2638062.39421
  23001281.6624   -5350019.00345  -2277919.30661
 91  4 18 21 26 14.9980000  0  6G18G 2G11G19G16G 6
  21666327.0294    5734377.81946   4461954.79661
  21275096.428   -13745176.155 6 -10622365.46522
  22077554.1704   -6640390.48346  -5111362.83561
  20257257.584    -3044418.180 6  -2359879.13922
  23355049.6234   -3456349.64145  -2644830.69161
  22992454.686    -5396419.211 5  -2314075.21521
 91  4 18 21 26 29.9980000  0  6G18G 2G11G19G16G 6
  21672714.342     5767935.503 6   4488103.51022
  21267143.100   -13786972.604 6 -10654934.04722
  22076690.5764   -6644940.77146  -5114908.51861
  20256456.482    -3048611.685 6  -2363146.82522
  23353415.756    -3464913.074 5  -2651503.53921
  22983621.4984   -5442820.41145  -2350231.89061
 91  4 18 21 26 44.9980000  0  6G18G 2G11G19G16G 6
  21679113.529     5801564.464 6   4514307.76421
  21259203.334   -13828699.686 6 -10687448.58122
  22075851.5374   -6649339.48446  -5118336.09161
  20255670.709    -3052747.423 6  -2366369.50022
  23351817.529    -3473352.929 5  -2658080.10121
  22974792.865    -5489220.993 5  -2386388.08121
 91  4 18 21 26 59.9980000  0  6G18G 2G11G19G16G 6
  21685525.615     5835256.938 6   4540561.50621
  21251273.568   -13870365.016 6 -10719914.99622
  22075040.5684   -6653594.21746  -5121651.46962
  20254893.865    -3056832.876 6  -2369552.98522
  23350229.522    -3481676.798 5  -2664566.28521
  22965960.5454   -5535628.51645  -2422549.69061
 91  4 18 21 27 14.9980000  0  6G18G 2G11G19G16G 6
  21691947.4124    5869010.44246   4566862.81761
  21243356.436   -13911970.693 7 -10752334.92022
  22074259.506    -6657707.218 6
  20254126.154    -3060870.138 6
  23348667.3034   -3489886.83845  -2670963.77761
  22957127.553    -5582045.092 5  -2458718.34321
 91  4 18 21 27 29.9980000  0  6G18G 2G11G19G16G 6
  21698383.2954    5902835.50246   4593219.87661
  21235452.350   -13953505.765 7 -10784699.83422
  22073505.3654   -6661667.66146
  20253371.459    -3064848.211 6
  23347126.2404   -3497972.40545  -2677264.25461
  22948293.5144   -5628459.91445  -2494885.63261
 91  4 18 21 27 44.9980000  0  6G18G 2G11G19G16G 6
  21704833.3814    5936729.33146   4619630.52061
  21227561.318   -13994972.820 7 -10817011.74122
  22072780.8184   -6665478.13546  -5130911.68461
  20252622.522    -3068769.566 6  -2378854.36322
  23345615.6474   -3505936.29845  -2683469.94761
  22939462.9904   -5674875.50645  -2531053.53461
 91  4 18 21 27 59.9970000  0  6G18G 2G11G19G16G 6
  21711297.110     5970692.485 6   4646095.18121
  21219685.001   -14036366.068 7 -10849266.13322
  22072086.7984   -6669135.40346  -5133761.51262
  20251889.118    -3072630.802 6  -2381863.13022
  23344117.649    -3513775.066 5  -2689578.12621
  22930632.790    -5721285.592 5  -2567217.13821
 91  4 18 21 28 14.9970000  0  6G18G 2G11G19G16G 6
  21717773.524     6004718.158 6   4672608.55521
  21211818.884   -14077701.891 7 -10881475.78722
  22071416.5174   -6672650.98946  -5136500.93661
  20251161.712    -3076443.298 6  -2384833.93022
  23342653.1104   -3521500.70745  -2695598.13261
  22921796.392    -5767707.419 5  -2603389.90421
 91  4 18 21 28 29.9970000  0  6G18G 2G11G19G16G 6
  21724261.282     6038809.209 6   4699172.87721
  21203964.9544  -14118972.13347 -10913634.32862
  22070773.5014   -6676019.50446  -5139125.76362
  20250448.001    -3080201.644 6  -2387762.52322
  23341204.704    -3529107.513 5  -2701525.55821
  22912960.4314   -5814132.69345  -2639565.34561
 91  4 18 21 28 44.9970000  0  6G18G 2G11G19G16G 6
  21730761.493     6072970.167 6   4725791.67021
  21196124.657   -14160171.933 7 -10945737.98222
  22070162.564    -6679236.223 6  -5141632.30521
  20249743.415    -3083900.764 6  -2390644.97622
  23339779.8764   -3536590.87845  -2707356.80761
  22904130.7204   -5860556.50445  -2675739.63161
 91  4 18 21 28 59.9970000  0  6G18G 2G11G19G16G 6
  21737273.5874    6107195.35946   4752460.52061
  21188297.790   -14201306.682 7 -10977790.94922
  22069581.3764   -6682306.54846  -5144024.76262
  20249051.407    -3087546.082 6  -2393485.49122
  23338377.3534   -3543956.38545  -2713096.20861
  22895290.9934   -5906984.28945  -2711917.02861
 91  4 18 21 29 14.9970000  0  6G18G 2G11G19G16G 6
  21743798.1654    6141485.03746   4779179.62061
  21180482.579   -14242375.784 7 -11009792.76422
  22069021.7744   -6685229.92146  -5146302.72761
  20248368.314    -3091136.846 6  -2396283.50122
  23336997.884    -3551203.716 5  -2718743.53021
  22886457.532    -5953415.277 5  -2748096.95821
 91  4 18 21 29 29.9970000  0  6G18G 2G11G19G16G 6
  21750336.634     6175841.321 6   4805950.61321
  21172680.087   -14283377.238 7 -11041741.87322
  22068495.7514   -6688004.23846  -5148464.54162
  20247691.946    -3094670.686 6  -2399037.15722
  23335643.196    -3558331.019 5  -2724297.31321
  22877620.3844   -5999847.40645  -2784277.75061
 91  4 18 21 29 44.9970000  0  6G18G 2G11G19G16G 6
  21756885.634     6210260.519 6   4832770.63621
  21164889.720   -14324314.156 7 -11073640.68822
  22067992.4394   -6690632.82446  -5150512.80061
  20247033.243    -3098150.729 6  -2401748.89422
  23334308.610    -3565341.110 5  -2729759.78921
  22868785.306    -6046283.818 5  -2820461.86921
 91  4 18 21 29 59.9970000  0  6G18G 2G11G19G16G 6
  21763448.868     6244748.615 6   4859644.33521
  21157113.564   -14365180.454 7 -11105484.48422
  22067523.7044   -6693109.66246  -5152442.81061
  20246381.446    -3101571.031 6  -2404414.07222
  23333000.1964   -3572228.09845  -2735126.33561
  22859947.564    -6092718.525 5  -2856644.64221
 91  4 18 21 30 14.9970000  0  6G18G 2G11G19G16G 6
  21770024.884     6279299.138 6   4886566.68521
  21149348.040   -14405982.537 7 -11137278.24322
  22067079.7514   -6695441.14346  -5154259.56261
  20245739.571    -3104937.562 6  -2407037.36022
  23331708.0324   -3578998.79945  -2740402.26061
  22851108.235    -6139157.740 5  -2892830.95521
 91  4 18 21 30 29.9970000  0  6G18G 2G11G19G16G 6
  21776608.806     6313907.325 6   4913533.96321
  21141596.181   -14446724.660 7 -11169025.28122
  22066661.1344   -6697631.72346  -5155966.50962
  20245109.884    -3108254.849 6  -2409622.27522
  23330444.6104   -3585657.42645  -2745590.85261
  22842274.1574   -6185605.84745  -2929024.20961
 91  4 18 21 30 44.9970000  0  6G18G 2G11G19G16G 6
  21783207.532     6348582.984 6   4940553.82521
  21133856.259   -14487396.382 7 -11200717.45622
  22066273.3144   -6699671.30146  -5157555.79361
  20244489.548    -3111512.533 6  -2412160.74422
  23329200.595    -3592194.137 5  -2750684.45021
  22833434.8604   -6232052.63245  -2965216.42061
 91  4 18 21 30 59.9970000  0  6G18G 2G11G19G16G 6
  21789818.3534    6383320.60646   4967621.97061
  21126128.9784  -14528003.15647 -11232359.03062
  22065914.3454   -6701565.07146  -5159031.46061
  20243880.290    -3114715.761 6  -2414656.78322
  23327974.7204   -3598614.66545  -2755687.54161
  22824594.064    -6278503.344 5  -3001411.69021
 91  4 18 21 31 14.9970000  0  6G18G 2G11G19G16G 6
  21796440.946     6418121.714 6   4994739.57721
  21118414.2204  -14568543.24047 -11263948.63462
  22065582.9704   -6703311.40046  -5160392.23662
  20243280.946    -3117862.544 6  -2417108.83722
  23326772.665    -3604916.894 5  -2760598.40121
  22815754.314    -6324956.112 5  -3037608.57721
 91  4 18 21 31 29.9970000  0  6G18G 2G11G19G16G 6
  21803073.478     6452978.627 6   5021900.67521
  21110711.290   -14609023.880 7 -11295491.91922
  22065277.5874   -6704917.80546  -5161643.98361
  20242690.009    -3120960.409 6  -2419522.77722
  23325599.7824   -3611108.54845  -2765423.12161
  22806912.7434   -6371418.43845  -3073812.88261
 91  4 18 21 31 44.9970000  0  6G18G 2G11G19G16G 6
  21809719.149     6487898.211 6   5049110.60521
  21103020.806   -14649438.102 7 -11326983.44822
  22064999.4394   -6706377.29446  -5162781.25461
  20242111.048    -3124002.196 6  -2421893.02122
  23324443.4314   -3617182.86945  -2770156.43861
  22798071.782    -6417883.119 5  -3110019.04721
 91  4 18 21 31 59.9970000  0  6G18G 2G11G19G16G 6
  21816378.689     6522883.684 6   5076371.86721
  21095343.8844  -14689782.31047 -11358420.42462
  22064749.2674   -6707686.46346  -5163801.39061
  20241544.048    -3126984.265 6  -2424216.73122
  23323312.6734   -3623136.22445  -2774795.48561
  22789226.892    -6464346.715 5  -3146224.37221
 91  4 18 21 32 14.9970000  0  6G18G 2G11G19G16G 6
  21823046.978     6557930.829 6   5103681.19021
  21087678.8684  -14730060.54347 -11389805.99262
  22064527.2594   -6708849.42546  -5164707.60361
  20240988.228    -3129910.587 6  -2426497.00422
  23322201.314    -3628972.995 5  -2779343.67121
  22780388.9394   -6510813.29545  -3182432.02061
 91  4 18 21 32 29.9970000  0  6G18G 2G11G19G16G 6
  21829730.821     6593046.670 6   5131044.04821
  21080027.884   -14770265.156 7 -11421134.19122
  22064334.6814   -6709858.77046  -5165494.10761
  20240443.954    -3132773.578 6  -2428727.91722
  23321109.6494   -3634685.74345  -2783795.24561
  22771545.9394   -6557275.19345  -3218636.01261
 91  4 18 21 32 44.9970000  0  6G18G 2G11G19G16G 6
  21836424.470     6628228.491 6   5158458.31721
  21072390.040   -14810398.636 7 -11452406.96422
  22064173.1814   -6710717.10046  -5166162.94161
  20239909.407    -3135575.601 6  -2430911.33322
  23320049.564    -3640277.183 5  -2788152.28521
  22762709.5714   -6603734.94845  -3254838.31061
 91  4 18 21 32 59.9970000  0  6G18G 2G11G19G16G 6
  21843129.087     6663465.636 6   5185915.69321
  21064765.4314  -14850471.54947 -11483632.54462
  22064037.6424   -6711434.95346  -5166722.31261
  20239386.673    -3138326.954 6  -2433055.26422
  23319004.4934   -3645758.01045  -2792423.11761
  22753863.4854   -6650203.00345  -3291047.13661
 91  4 18 21 33 14.9970000  0  6G18G 2G11G19G16G 6
  21849846.6034    6698765.87746   5213422.22661
  21057152.1184  -14890475.77947 -11514804.60262
  22063927.9704   -6712004.31746  -5167165.98261
  20238875.571    -3141019.586 6  -2435153.44123
  23317985.774    -3651120.268 5  -2796601.57721
  22745019.790    -6696671.300 5  -3327256.10521
 91  4 18 21 33 29.9970000  0  6G18G 2G11G19G16G 6
  21856577.282     6734125.863 6   5240975.32421
  21049552.4854  -14930414.53347 -11545925.64662
  22063849.1964   -6712428.38646  -5167496.43261
  20238370.407    -3143656.541 6  -2437208.22823
  23316988.9934   -3656367.01245  -2800690.01161
  22736175.4544   -6743142.84445  -3363467.64361
 91  4 18 21 33 44.9970000  0  6G18G 2G11G19G16G 6
  21863315.642     6769546.297 6   5268575.52521
  21041965.6654  -14970286.81647 -11576994.89562
  22063791.5094   -6712706.51146  -5167713.16061
  20237883.681    -3146236.885 6  -2439218.90322
  23316012.2284   -3661497.90245  -2804688.16161
  22727336.228    -6789616.882 5  -3399681.09821
 91  4 18 21 33 59.9970000  0  6G18G 2G11G19G16G 6
  21870067.696     6805025.775 6   5296221.72521
  21034389.0564  -15010093.62147 -11608013.12062
  22063770.3684   -6712839.70146
  20237399.681    -3148761.512 6  -2441186.15922
  23315049.095    -3666513.986 5  -2808596.89721
  22718485.431    -6836094.289 5  -3435897.14721
 91  4 18 21 34 14.9970000  0  6G18G 2G11G19G16G 6
  21876831.8844    6840564.79646   5323914.32761
  21026826.5484  -15049834.48147 -11638979.96162
  22063772.3294   -6712827.65246
  20236933.595    -3151229.842 6  -2443109.55422
  23314122.814    -3671414.738 5  -2812415.73021
  22709645.493    -6882574.557 5  -3472115.45321
 91  4 18 21 34 29.9970000  0  6G18G 2G11G19G16G 6
  21883605.0794    6876164.05846   5351653.86361
  21019278.0014  -15089507.95847 -11669894.29962
  22063800.8534   -6712669.00446
  20236474.212    -3153640.406 6  -2444987.93322
  23313212.939    -3676199.255 5  -2816144.02821
  22700796.1034   -6929056.15645  -3508334.79561
 91  4 18 21 34 44.9970000  0  6G18G 2G11G19G16G 6
  21890392.134     6911824.864 6   5379441.36121
  21011741.517   -15129112.638 7 -11700755.03322
  22063860.2124   -6712362.47446
  20236025.095    -3155991.664 6  -2446820.10022
  23312328.4464   -3680866.09345  -2819780.61461
  22691952.196    -6975537.860 5  -3544554.23921
 91  4 18 21 34 59.9970000  0  6G18G 2G11G19G16G 6
  21897191.087     6947546.923 6   5407276.58821
  21004217.728   -15168648.654 7 -11731562.26122
  22063943.8684   -6711908.33346  -5167091.24061
  20235588.384    -3158283.660 6  -2448606.09123
  23311460.4934   -3685415.77645  -2823325.91161
  22683107.329    -7022019.777 5  -3580773.83821
 91  4 18 21 35 14.9970000  0  6G18G 2G11G19G16G 6
  21903997.689     6983330.927 6   5435160.09321
  20996706.853   -15208115.036 7 -11762315.23422
  22064059.3684   -6711305.45546  -5166621.47161
  20235166.540    -3160515.387 6  -2450345.11823
  23310616.5094   -3689847.25545  -2826779.12061
  22674259.689    -7068500.888 5  -3616992.77121
 91  4 18 21 35 29.9970000  0  6G18G 2G11G19G16G 6
  21910820.345     7019174.044 6   5463089.65321
  20989209.814   -15247514.131 7 -11793015.77422
  22064201.1104   -6710556.40546  -5166037.80161
  20234750.899    -3162689.315 6  -2452039.10722
  23309797.509    -3694163.261 5  -2830142.31221
  22665418.064    -7114983.481 5  -3653212.86721
 91  4 18 21 35 44.9970000  0  6G18G 2G11G19G16G 6
  21917653.4234    7055078.55146   5491067.04061
  20981725.3764  -15286843.41347 -11823661.91262
  22064372.0644   -6709658.89346  -5165338.45461
  20234349.751    -3164802.659 6  -2453685.89022
  23308995.649    -3698361.591 5  -2833413.81321
  22656574.2984   -7161465.00645  -3689432.16861
 91  4 18 21 35 59.9970000  0  6G18G 2G11G19G16G 6
  21924496.6344    7091044.08246   5519091.98261
  20974255.407   -15326103.002 7 -11854253.74222
  22064572.056    -6708613.171 6  -5164523.61121
  20233962.009    -3166855.403 6  -2455285.44822
  23308219.743    -3702442.396 5  -2836593.75721
  22647725.3454   -7207945.59845  -3725650.73261
 91  4 18 21 36 14.9970000  0  6G18G 2G11G19G16G 6
  21931352.4544    7127069.80746   5547163.82761
  20966797.6734  -15365293.56747 -11884791.78762
  22064799.5404   -6707419.98746  -5163593.87361
  20233579.0244   -3168848.04246  -2456838.18062
  23307470.0174   -3706406.03545  -2839682.38561
  22638878.8454   -7254425.78945  -3761868.99161
 91  4 18 21 36 29.9970000  0  6G18G 2G11G19G16G 6
  21938220.2204    7163157.50346   5575283.95461
  20959352.189   -15404412.822 7 -11915274.27022
  22065054.2434   -6706077.24646  -5162547.59261
  20233213.017    -3170778.422 6  -2458342.39622
  23306730.9934   -3710250.90145  -2842678.44761
  22630035.946    -7300903.426 5  -3798085.22921
 91  4 18 21 36 44.9970000  0  6G18G 2G11G19G16G 6
  21945099.2904    7199302.89746   5603449.04961
  20951922.2674  -15443464.90847 -11945704.40762
  22065338.5244   -6704589.12946  -5161388.02961
  20232853.728    -3172650.640 6  -2459801.28822
  23306023.985    -3713981.544 5  -2845585.53221
  22621189.5174   -7347382.56345  -3834302.64561
 91  4 18 21 36 59.9970000  0  6G18G 2G11G19G16G 6
  21951986.7744    7235503.39146   5631657.08861
  20944501.4704  -15482451.98047 -11976083.88762
  22065649.6654   -6702958.07946  -5160117.08961
  20232510.298    -3174466.947 6  -2461216.61522
  23305336.8374   -3717600.02145  -2848405.22761
  22612348.3454   -7393865.35745  -3870522.94061
 91  4 18 21 37 14.9970000  0  6G18G 2G11G19G16G 6
  21958887.243     7271765.252 6   5659912.92121
  20937097.524   -15521367.429 7 -12006407.55922
  22065987.3764   -6701177.64446  -5158729.75161
  20232176.985    -3176220.464 6  -2462583.01322
  23304670.4934   -3721099.82345  -2851132.42361
  22603504.5244   -7440345.39545  -3906741.04961
 91  4 18 21 37 29.9970000  0  6G18G 2G11G19G16G 6
  21965797.743     7308085.023 6   5688213.88521
  20929704.2904  -15560214.59147 -12036678.01862
  22066354.6424   -6699251.21846  -5157228.65061
  20231852.618    -3177914.518 6  -2463903.08022
  23304025.6494   -3724484.80244  -2853770.17061
  22594655.2354   -7486825.89445  -3942959.52061
 91  4 18 21 37 44.9970000  0  6G18G 2G11G19G16G 6
  21972721.3684    7344462.03246   5716559.44261
  20922325.5794  -15598993.67847 -12066895.43162
  22066749.251    -6697179.134 6  -5155614.05621
  20231540.540    -3179549.320 6  -2465176.97922
  23303405.2124   -3727755.51045  -2856318.85461
  22585815.587    -7533307.004 5  -3979178.48621
 91  4 18 21 37 59.9970000  0  6G18G 2G11G19G16G 6
  21979654.446     7380899.990 6   5744952.49921
  20914958.7824  -15637700.82347 -12097056.78162
  22067170.4314   -6694957.53946  -5153882.95461
  20231242.392    -3181120.667 6  -2466401.43122
  23302806.165    -3730907.992 5  -2858775.39521
  22576966.517    -7579784.758 5  -4015394.83121
 91  4 18 21 38 14.9970000  0  6G18G 2G11G19G16G 6
  21986603.0244    7417401.44346   5773395.02361
  20907607.8924  -15676333.43947 -12127160.06462
  22067623.939    -6692584.002 6  -5152033.45721
  20230955.8064   -3182625.96346  -2467574.41962
  23302230.7124   -3733939.80045  -2861137.92961
  22568124.290    -7626256.535 5  -4051606.51021
 91  4 18 21 38 29.9970000  0  6G18G 2G11G19G16G 6
  21993558.837     7453957.077 6   5801879.75921
  20900268.517   -15714900.534 7 -12157212.29222
  22068101.610    -6690067.611 6  -5150072.64621
  20230679.157    -3184074.043 6  -2468702.81422
  23301674.2204   -3736860.34145  -2863413.76861
  22559280.821    -7672731.206 5  -4087820.46021
 91  4 18 21 38 44.9970000  0  6G18G 2G11G19G16G 6
  22000525.267     7490566.142 6   5830406.15021
  20892941.290   -15753402.230 7 -12187213.56222
  22068608.321    -6687408.767 6  -5148000.83521
  20230417.5714   -3185465.16946  -2469786.83962
  23301137.931    -3739669.771 5  -2865603.02621
  22550434.1894   -7719209.10445  -4124036.91661
 91  4 18 21 38 59.9970000  0  6G18G 2G11G19G16G 6
  22007499.251     7527229.154 6   5858974.56821
  20885627.4934  -15791838.02947 -12217163.47363
  22069142.4464   -6684606.93846  -5145817.60261
  20230160.5644   -3186798.53446  -2470825.84562
  23300623.2124   -3742367.62745  -2867705.33361
  22541587.7044   -7765689.51945  -4160255.32161
 91  4 18 21 39 14.9970000  0  6G18G 2G11G19G16G 6
  22014490.642     7563952.634 6   5887590.10121
  20878326.4624  -15830201.22547 -12247056.81562
  22069703.220    -6681655.553 6  -5143517.84321
  20229920.6034   -3188067.40546  -2471814.60262
  23300132.204    -3744947.594 5  -2869715.80021
  22532746.251    -7812165.746 5  -4196470.49821
 91  4 18 21 39 29.9970000  0  6G18G 2G11G19G16G 6
  22021488.6734    7600732.88446   5916249.86661
  20871039.5714  -15868495.20147 -12276896.22062
  22070291.517    -6678558.168 6  -5141104.31121
  20229693.1574   -3189275.13046  -2472755.71562
  23299662.829    -3747412.995 5  -2871636.98621
  22523902.8064   -7858641.05245  -4232684.94061
 91  4 18 21 39 44.9970000  0  6G18G 2G11G19G16G 6
  22028498.837     7637567.964 6   5944952.36221
  20863767.2594  -15906721.16447 -12306682.62462
  22070907.7674   -6675316.32846  -5138578.21361
  20229473.501    -3190422.885 6  -2473650.09322
  23299217.712    -3749765.795 5  -2873470.44021
  22515058.7434   -7905116.79645  -4268899.72161
 91  4 18 21 39 59.9970000  0  6G18G 2G11G19G16G 6
  22035519.243     7674459.840 6   5973699.11321
  20856505.931   -15944876.995 7 -12336414.38522
  22071553.806    -6671927.890 6  -5135937.89221
  20229269.548    -3191508.481 6  -2474496.03322
  23298789.704    -3752003.657 5  -2875214.31721
  22506212.360    -7951590.782 5  -4305113.14121
 91  4 18 21 40 14.9970000  0  6G18G 2G11G19G16G 6
  22042550.759     7711406.002 6   6002488.15721
  20849256.7514  -15982965.33047 -12366093.54662
  22072225.876    -6668395.755 6  -5133185.59721
  20229072.564    -3192534.567 6  -2475295.60222
  23298384.743    -3754129.583 5  -2876870.95521
  22497371.165    -7998065.603 5  -4341327.21721
 91  4 18 21 40 29.9970000  0  6G18G 2G11G19G16G 6
  22049591.853     7748407.809 6   6031320.57321
  20842022.4394  -16020983.98347 -12395718.40662
  22072926.884    -6664717.808 6  -5130319.68821
  20228889.751    -3193498.800 6  -2476046.97322
  23298002.2744   -3756141.37545  -2878438.66061
  22488531.040    -8044539.138 5  -4377540.27221
 91  4 18 21 40 44.9970000  0  6G18G 2G11G19G16G 6
  22056643.493     7785464.747 6
  20834799.9464  -16058933.47547 -12425289.39661
  22073652.814    -6660894.607 6
  20228717.1734   -3194401.70846
  23297640.392    -3758040.052 5
  22479680.9464   -8091011.78845
 91  4 18 21 40 59.9970000  0  6G18G 2G11G19G16G 6
  22063707.212     7822575.292 6
  20827590.290   -16096815.312 7 -12454807.64922
  22074408.157    -6656927.751 6
  20228556.2434   -3195244.39546
  23297302.142    -3759827.134 5
  22470838.6104   -8137484.92945
 91  4 18 21 41 14.9970000  0  6G18G 2G11G19G16G 6
  22070777.626     7859745.160 6
  20820398.017   -16134623.239 7 -12484268.27423
  22075190.7434   -6652811.22246
  20228408.4154   -3196020.72346
  23296985.079    -3761496.745 5
  22461997.2514   -8183952.29545
 91  4 18 21 41 29.9970000  0  6G18G 2G11G19G16G 6
  22077863.8994    7896973.72146
  20813216.5714  -16172357.66047 -12513671.66763
  22076003.7204   -6648545.73846        -0.14571
  20228274.931    -3196731.129 6        -0.25532
  23296687.556    -3763049.338 5
  22453158.126    -8230414.288 6
 91  4 18 21 41 44.9970000  0  6G18G 2G11G19G16G 6
  22084957.985     7934255.893 6        -0.12031
  20806048.8214  -16210023.18747 -12543021.37063
  22076843.829    -6644135.943 6      3436.04221
  20228149.993    -3197380.013 6      -505.89922
  23296417.110    -3764489.948 5        -0.02431
  22444314.6494   -8276875.49445
 91  4 18 21 41 59.9970000  0  6G18G 2G11G19G16G 6
  22092063.1894    7971591.21646     29092.15861
  20798894.8994  -16247620.22147 -12572317.69163
  22077709.0954   -6639582.25946      6984.36061
  20228038.673    -3197967.576 6      -963.75822
  23296159.9854   -3765818.80245     -1035.56461
  22435473.681    -8323336.100 5        -0.18731
 91  4 18 21 42 14.9970000  0  6G18G 2G11G19G16G 6
  22099179.235     8008985.289 6     58230.22821
  20791753.7044  -16285142.58147 -12601555.83363
  22078604.774    -6634878.978 6     10649.23621
  20227937.189    -3198487.795 6     -1369.14422
  23295931.5484   -3767030.18045     -1979.60261
  22426633.1034   -8369790.25945    -36198.15061
 91  4 18 21 42 29.9970000  0  6G18G 2G11G19G16G 6
  22106304.204     8046436.963 6     87413.17221
  20784628.3534  -16322591.33847 -12630736.61763
  22079527.478    -6630027.165 6     14429.85621
  20227854.673    -3198941.552 6     -1722.73422
  23295723.618    -3768125.490 5     -2833.19121
  22417797.0794   -8416238.89845    -72391.80961
 91  4 18 21 42 44.9970000  0  6G18G 2G11G19G16G 6
  22113441.1104    8083940.40646    116636.45261
  20777514.4464  -16359972.01847 -12659864.35063
  22080478.587    -6625032.440 6     18321.82921
  20227775.806    -3199334.218 6     -2028.73022
  23295536.2594   -3769110.29745     -3600.64861
  22408955.540    -8462687.453 5   -108585.42421
 91  4 18 21 42 59.9970000  0  6G18G 2G11G19G16G 6
  22120588.7744    8121500.02346    145903.51461
  20770415.4234  -16397280.17147 -12688935.57063
  22081456.603    -6619890.398 6     22328.60021
  20227716.532    -3199661.398 6     -2283.69022
  23295374.2124   -3769980.30945     -4278.68261
  22400117.4854   -8509131.28945   -144775.32661
 91  4 18 21 43 14.9970000  0  6G18G 2G11G19G16G 6
  22127745.9154    8159110.83446    175210.45461
  20763328.7354  -16434520.25247 -12717953.75363
  22082462.642    -6614605.737 6     26446.49821
  20227664.220    -3199927.521 6     -2491.07722
  23295226.860    -3770740.352 5     -4871.01621
  22391279.743    -8555574.906 5   -180965.09421
 91  4 18 21 43 29.9970000  0  6G18G 2G11G19G16G 6
  22134915.3604    8196774.24646    204558.38961
  20756256.1034  -16471690.60947 -12746917.60063
  22083495.056    -6609176.880 6     30676.76221
  20227627.165    -3200130.773 6     -2649.47322
  23295104.5404   -3771388.74245     -5376.34361
  22382440.9704   -8602016.50445   -217153.24961
 91  4 18 21 43 44.9970000  0  6G18G 2G11G19G16G 6
  22142090.7674    8234490.73446    233947.68661
  20749194.3764  -16508790.49847 -12775826.53563
  22084554.673    -6603603.329 6     35019.76721
  20227601.978    -3200270.103 6
  23295005.1814   -3771925.22245     -5794.46261
  22373605.8994   -8648455.32545   -253339.27461
 91  4 18 21 43 59.9970000  0  6G18G 2G11G19G16G 6
  22149278.3294    8272259.15246    263377.43961
  20742147.2824  -16545820.80247 -12804681.24563
  22085644.814    -6597886.080 6     39474.74721
  20227583.829    -3200346.514 6
  23294915.720    -3772350.819 5     -6126.21921
  22364768.5094   -8694892.29645   -289523.84761
 91  4 18 21 44 14.9970000  0  6G18G 2G11G19G16G 6
  22156475.712     8310075.864 6    292844.81521
  20735115.0794  -16582784.90147 -12833484.36863
  22086758.4784   -6592028.72146     44038.90661
  20227580.782    -3200363.274 6
  23294856.587    -3772668.887 5     -6374.14821
  22355932.353    -8741330.741 5   -325709.57221
 91  4 18 21 44 29.9970000  0  6G18G 2G11G19G16G 6
  22163679.3844    8347946.37846    322354.12961
  20728094.4314  -16619677.11347 -12862231.48463
  22087900.540    -6586025.729 6     48716.54121
  20227590.587    -3200314.730 6
  23294818.884    -3772874.310 5     -6534.34621
  22347096.3454   -8787764.93946   -361891.99661
 91  4 18 21 44 44.9970000  0  6G18G 2G11G19G16G 6
  22170898.9234    8385875.56846    351909.15461
  20721088.2514  -16656492.24247 -12890918.53863
  22089071.478    -6579872.120 6     53511.54421
  20227614.298    -3200195.430 6
  23294805.8144   -3772961.87245
  22338259.728    -8834189.661 5   -398067.00821
 91  4 18 21 44 59.9970000  0  6G18G 2G11G19G16G 6
  22178126.0644    8423853.85546    381502.43261
  20714095.1104  -16693239.66247 -12919552.82663
  22090268.860    -6573577.174 6     58416.67921
  20227647.7674   -3200014.49746
  23294810.7984   -3772941.45945
  22329425.5874   -8880614.08445   -434241.78261
 91  4 18 21 45 14.9970000  0  6G18G 2G11G19G16G 6
  22185362.978     8461884.640 6    411136.62221
  20707117.3684  -16729915.37947 -12948131.24063
  22091494.571    -6567137.313 6     63434.73621
  20227696.251    -3199768.041 6
  23294835.3374   -3772809.14645
  22320594.7284   -8927034.25145   -470413.25761
 91  4 18 21 45 29.9970000  0  6G18G 2G11G19G16G 6
  22192608.7904    8499966.97646    440810.98461
  20700149.9234  -16766520.17447 -12976654.39163
  22092748.345    -6560553.619 6     68564.86921
  20227757.485    -3199456.941 6
  23294882.5244   -3772565.78445
  22311756.1424   -8973450.92545   -506582.00261
 91  4 18 21 45 44.9970000  0  6G18G 2G11G19G16G 6
  22199867.142     8538099.180 6    470524.20821
  20693198.1894  -16803055.58147 -13005123.47863
  22094028.142    -6553827.650 6     73805.85821
  20227824.603    -3199082.630 6
  23294948.9074   -3772213.31845
  22302928.860    -9019865.650 6   -542749.26021
 91  4 18 21 45 59.9970000  0  6G18G 2G11G19G16G 6
  22207133.915     8576283.191 6    500277.80721
  20686259.2744  -16839519.11847 -13033536.56263
  22095336.485    -6546956.982 6     79159.60621
  20227909.204    -3198642.427 6
  23295034.8924   -3771749.50245
  22294093.079    -9066275.795 5   -578912.93721
 91  4 18 21 46 14.9970000  0  6G18G 2G11G19G16G 6
  22214407.5874    8614516.03446    530069.44661
  20679333.8994  -16875913.68847 -13061895.90363
  22096670.149    -6539944.679 6     84623.71521
  20228005.939    -3198139.250 6
  23295139.2984   -3771177.42945
  22285260.4934   -9112684.11145   -615075.17861
 91  4 18 21 46 29.9970000  0  6G18G 2G11G19G16G 6
  22221693.720     8652797.847 6    559899.23321
  20672420.4234  -16912238.85747 -13090201.17063
  22098031.337    -6532790.627 6     90198.28221
  20228113.689    -3197572.588 6      -656.31822
  23295275.595    -3770496.897 5     -4682.11221
  22276435.7594   -9159090.38446   -651235.80861
 91  4 18 21 46 44.9970000  0  6G18G 2G11G19G16G 6
  22228988.3764    8691129.26846    589767.69761
  20665521.5404  -16948493.82047 -13118451.73163
  22099419.931    -6525493.948 6     95883.98121
  20228232.306    -3196941.178 6      -164.33522
  23295422.8294   -3769707.04645     -4066.70661
  22267603.954    -9205493.375 6   -687393.90921
 91  4 18 21 46 59.9970000  0  6G18G 2G11G19G16G 6
  22236290.9154    8729505.68546    619671.20261
  20658634.6574  -16984682.59047 -13146650.71463
  22100834.392    -6518059.125 6    101677.32921
  20228366.587    -3196249.230 6       374.81922
  23295594.8534   -3768812.29845     -3369.63361
  22258770.6034   -9251897.34746   -723552.78461
 91  4 18 21 47 14.9970000  0  6G18G 2G11G19G16G 6
  22243604.7824    8767933.38546    649614.69661
  20651761.8924  -17020798.66447 -13174793.04963
  22102277.6264   -6510479.76746    107583.29361
  20228509.532    -3195490.097 6       966.32922
  23295781.110    -3767806.500 5     -2585.98421
  22249945.0174   -9298295.67246   -759707.26561
 91  4 18 21 47 29.9970000  0  6G18G 2G11G19G16G 6
  22250926.7824    8806409.88346    679596.18561
  20644903.0714  -17056844.52747 -13202880.67263
  22103745.5794   -6502758.41546    113599.89961
  20228666.235    -3194666.137 6      1608.35122
  23295997.5014   -3766692.35445     -1717.90861
  22241113.126    -9344690.717 5   -795859.17921
 91  4 18 21 47 44.9970000  0  6G18G 2G11G19G16G 6
  22258258.064     8844940.104 6    709619.55121
  20638057.821   -17092814.992 7 -13230909.55623
  22105243.7204   -6494890.05546    119731.06461
  20228836.095    -3193772.110 6      2304.96922
  23296230.149    -3765464.471 5      -761.25421
  22232289.001    -9391077.241 6   -832004.43821
 91  4 18 21 47 59.9970000  0  6G18G 2G11G19G16G 6
  22265599.845     8883523.027 5    739683.97621
  20631227.314   -17128710.663 7 -13258880.15323
  22106767.392    -6486875.527 6    125976.12621
  20229018.001    -3192808.575 6      3055.75622
  23296489.298    -3764123.874 5       283.25121
  22223463.009    -9437455.788 6   -868143.48621
 91  4 18 21 48 14.9970000  0  6G18G 2G11G19G16G 6
  22272952.2044    8922157.91346    769788.90161
  20624411.548   -17164532.151 7 -13286792.94722
  22108322.329    -6478715.396 6    132334.64121
  20229216.696    -3191775.931 6      3860.38722
  23296762.5714   -3762671.54245      1414.84161
  22214638.743    -9483826.754 6   -904276.63921
 91  4 18 21 48 29.9970000  0  6G18G 2G11G19G16G 6
  22280313.907     8960842.601 6    799932.60521
  20617607.610   -17200281.186 7 -13314649.28523
  22109900.8604   -6470411.84346    138804.91761
  20229428.376    -3190675.859 6      4717.55822
  23297059.024    -3761109.398 5      2631.94121
  22205813.595    -9530192.007 6   -940405.32821
 91  4 18 21 48 44.9970000  0  6G18G 2G11G19G16G 6
  22287683.7824    8999572.03046    830111.20561
  20610817.243   -17235962.543 7 -13342452.88923
  22111506.649    -6461969.795 6    145383.11421
  20229646.485    -3189513.277 6      5623.44722
  23297380.720    -3759442.824 5      3930.46421
  22196994.439    -9576556.302 6   -976533.30821
 91  4 18 21 48 59.9970000  0  6G18G 2G11G19G16G 6
  22295064.196     9038351.061 6    860328.43521
  20604041.298   -17271571.043 7 -13370199.72122
  22113142.681    -6453384.177 6    152073.17921
  20229883.571    -3188282.738 6      6582.28622
  23297715.8374   -3757666.21745      5314.74461
  22188169.470    -9622914.301 5  -1012656.35921
 91  4 18 21 49 14.9970000  0  6G18G 2G11G19G16G 6
  22302452.2824    9077178.66346    890583.53261
  20597278.735   -17307107.512 7 -13397890.42123
  22114803.790    -6444656.048 6    158874.29021
  20230126.954    -3186984.950 6      7593.53022
  23298075.2674   -3755781.00945      6783.65161
  22179349.1034   -9669266.74046  -1048775.06461
 91  4 18 21 49 29.9970000  0  6G18G 2G11G19G16G 6
  22309849.454     9116053.005 6    920875.03521
  20590530.353   -17342573.522 7 -13425526.22223
  22116490.6894   -6435787.12946    165785.10861
  20230390.087    -3185621.591 6      8655.86423
  23298453.939    -3753789.184 5      8335.62021
  22170531.4234   -9715615.14646  -1084890.64161
 91  4 18 21 49 44.9970000  0  6G18G 2G11G19G16G 6
  22317257.7674    9154977.04946    951205.26561
  20583796.079   -17377965.754 7 -13453104.53323
  22118206.110    -6426774.318 6    172808.05421
  20230659.939    -3184189.078 6      9772.08722
  23298849.048    -3751687.291 5      9973.33821
  22161711.0484   -9761956.18046  -1121000.47061
 91  4 18 21 49 59.9970000  0  6G18G 2G11G19G16G 6
  22324672.5794    9193944.11846    981569.01461
  20577073.509   -17413290.603 7 -13480630.33723
  22119947.2514   -6417624.04346    179938.10661
  20230944.868    -3182693.622 6     10937.35623
  23299274.7904   -3749482.10545     11691.56461
  22152892.3374   -9808296.02946  -1157109.38661
 91  4 18 21 50 14.9970000  0  6G18G 2G11G19G16G 6
  22332096.3294    9232960.03246   1011970.82661
  20570364.618   -17448542.079 7 -13508098.97023
  22121715.3764   -6408330.67046    187179.66361
  20231242.884    -3181129.303 6     12156.28723
  23299713.4314   -3747168.18045     13494.48161
  22144075.228    -9854628.704 6  -1193212.71921
 91  4 18 21 50 29.9970000  0  6G18G 2G11G19G16G 6
  22339531.5014    9272025.45946   1042411.22261
  20563670.462   -17483719.359 7 -13535509.78323
  22123511.9464   -6398893.36046    194533.37561
  20231552.493    -3179495.092 6     13429.68222
  23300177.5094   -3744744.27045     15383.13861
  22135259.610    -9900953.348 5  -1229309.77221
 91  4 18 21 50 44.9970000  0  5G18G 2G11G19G 6
  22346975.134     9311135.089 6   1072886.04521
  20556990.657   -17518827.457 7 -13562866.69323
  22125334.7124   -6389317.36346    201995.15161
  20231875.774    -3177795.894 6     14753.71323
  22126443.9704   -9947274.68846  -1265404.24761
 91  4 18 21 50 59.9970000  0  5G18G 2G11G19G 6
  22354425.571     9350286.563 6   1103393.49821
  20550322.7044  -17553868.37647 -13590171.24763
  22127183.0174   -6379604.99146    209563.20461
  20232211.3924   -3176033.71446     16126.82862
  22117633.017    -9993594.941 6  -1301497.90421
 91  4 18 21 51 14.9970000  0  5G18G 2G11G19G 6
  22361883.462     9389483.531 6   1133936.39421
  20543667.360   -17588837.941 7 -13617420.20823
  22129057.446    -6369752.299 6    217240.59321
  20232560.3684   -3174204.37446     17552.27663
  22108819.2124  -10039909.76446  -1337587.31761
 91  4 18 21 51 29.9970000  0  5G18G 2G11G19G 6
  22369351.1424    9428724.14146   1164513.27561
  20537026.126   -17623738.167 7 -13644615.13623
  22130956.7434   -6359761.24346    225025.80761
  20232921.220    -3172309.520 6     19028.77023
  22100004.001   -10086221.009 6  -1373673.94721
 91  4 18 21 51 44.9970000  0  5G18G 2G11G19G 6
  22376825.4394    9468007.86246   1195123.76261
  20530398.353   -17658569.046 7 -13671756.03323
  22132884.0174   -6349632.23246    232918.51161
  20233293.259    -3170349.212 6     20556.26723
  22091193.5484  -10132528.68546  -1409757.78961
 91  4 18 21 51 59.9970000  0  5G18G 2G11G19G 6
  22384310.360     9507333.352 6   1225766.78821
  20523782.149   -17693331.830 7 -13698843.85823
  22134839.6894   -6339366.56446    240917.69861
  20233679.689    -3168324.545 6     22133.91523
  22082381.7204  -10178833.94846  -1445839.73961
 91  4 18 21 52 14.9970000  0  5G18G 2G11G19G 6
  22391801.8924    9546704.86446   1256445.68561
  20517181.118   -17728021.891 7 -13725875.02023
  22136819.1344   -6328959.85446    249026.79261
  20234078.282    -3166230.837 6     23765.35923
  22073571.290   -10225131.955 6  -1481916.06121
 91  4 18 21 52 29.9970000  0  5G18G 2G11G19G 6
  22399302.5014    9586119.78646   1287158.38761
  20510594.485   -17762641.512 7 -13752851.29823
  22138827.0794   -6318414.65446    257243.80061
  20234491.626    -3164070.467 6     25448.75023
  22064762.7514  -10271425.11846  -1517988.60861
 91  4 18 21 52 44.9970000  0  5G18G 2G11G19G 6
  22406811.821     9625578.990 6   1317905.61521
  20504019.970   -17797189.332 7 -13779771.62623
  22140859.2124   -6307729.95346    265569.51161
  20234913.142    -3161842.028 6     27185.17723
  22055954.415   -10317711.982 6  -1554056.25121
 91  4 18 21 52 59.9970000  0  5G18G 2G11G19G 6
  22414327.306     9665075.918 6   1348682.23521
  20497457.720   -17831671.700 7 -13806640.95323
  22142918.2354   -6296912.09246    273998.97961
  20235350.845    -3159551.646 6     28969.87623
  22047144.4704  -10363998.83246  -1590123.86361
 91  4 18 21 53 14.9970000  0  5G18G 2G11G19G 6
  22421851.157     9704613.206 6   1379490.27621
  20490909.118   -17866086.020 7 -13833457.25923
  22145002.5174   -6285958.54946    282534.16761
  20235797.610    -3157196.484 6     30805.04623
  22038337.595   -10410282.841 6  -1626189.27821
 91  4 18 21 53 29.9970000  0  5G18G 2G11G19G 6
  22429384.7204    9744194.47646   1410332.62661
  20484373.001   -17900428.273 7 -13860217.40423
  22147113.4784   -6274865.69246    291177.92361
  20236257.540    -3154772.603 6     32693.76323
  22029532.290   -10456560.107 6  -1662249.42421
 91  4 18 21 53 44.9970000  0  5G18G 2G11G19G 6
  22436922.892     9783812.506 6   1441203.58321
  20477850.618   -17934705.298 7 -13886926.72123
  22149250.7354   -6263640.46746    299924.81561
  20236730.814    -3152286.599 6     34630.88623
  22020726.2434  -10502837.17246  -1698309.42261
 91  4 18 21 53 59.9970000  0  5G18G 2G11G19G 6
  22444470.8844    9823469.61646   1472104.99761
  20471340.595   -17968914.646 7 -13913583.31123
  22151409.9394   -6252280.68146    308776.56561
  20237219.712    -3149735.917 6     36618.40623
  22011918.9934  -10549111.60246  -1734367.38761
 91  4 18 21 54 14.9970000  0  5G18G 2G11G19G 6
  22452024.423     9863171.872 6   1503041.59821
  20464845.407   -18003049.873 7 -13940182.13923
  22153598.8994   -6240780.06146    317738.05461
  20237716.087    -3147114.223 6     38661.26223
  22003116.204   -10595376.920 6  -1770418.22921
 91  4 18 21 54 29.9970000  0  5G18G 2G11G19G 6
  22459587.4544    9902912.86346   1534008.38461
  20458361.970   -18037117.099 7 -13966727.98023
  22155812.8764   -6229145.01846    326804.29261
  20238226.7674   -3144427.50146     40754.78463
  21994312.439   -10641639.087 6  -1806466.62521
 91  4 18 21 54 44.9970000  0  5G18G 2G11G19G 6
  22467159.5874    9942696.66046   1565008.51861
  20451893.118   -18071112.362 7 -13993217.74823
  22158054.1184   -6217371.60446    335978.35061
  20238750.204    -3141671.580 6     42902.23123
  21985511.9704  -10687893.95346  -1842509.30861
 91  4 18 21 54 59.9970000  0  5G18G 2G11G19G 6
  22474737.774     9982518.992 6   1596038.66521
  20445436.282   -18105039.273 7 -14019654.25223
  22160321.4704   -6205463.64546    345257.24861
  20239288.657    -3138850.007 6     45100.83723
  21976707.0954  -10734145.13646  -1878549.15761
 91  4 18 21 55 14.9970000  0  5G18G 2G11G19G 6
  22482323.0174   10022380.64846   1627099.47661
  20438993.657   -18138896.878 7 -14046036.75123
  22162612.5794   -6193420.45646    354641.51761
  20239836.6574   -3135961.75446     47351.39363
  21967910.642   -10780391.594 6  -1914585.30521
 91  4 18 21 55 29.9970000  0  5G18G 2G11G19G 6
  22489916.9074   10062282.71846   1658191.75961
  20432564.071   -18172684.060 7 -14072364.37323
  22164928.9464   -6181240.97046    364132.00161
  20240399.7674   -3133005.44946     49654.98163
  21959107.7354  -10826631.99946  -1950616.74161
 91  4 18 21 55 44.9970000  0  5G18G 2G11G19G 6
  22497517.368    10102216.291 6   1689308.59021
  20426146.384   -18206409.280 7 -14098643.71723
  22167272.0954   -6168933.83146    373721.93961
  20240974.6894   -3129989.58046     52004.98163
  21950309.9784  -10872874.72746  -1986649.97761
 91  4 18 21 55 59.9970000  0  5G18G 2G11G19G 6
  22505121.8534   10142187.68746   1720454.92361
  20419741.931   -18240065.682 7 -14124869.43423
  22169638.5404   -6156492.57246    383416.39461
  20241561.6344   -3126907.18946     54406.81463
  21941511.0874  -10919112.91746  -2022679.67261
 91  4 18 21 56 14.9970000  0  5G18G 2G11G19G 6
  22512736.7204   10182198.37846   1751631.82761
  20413350.462   -18273651.778 7 -14151040.36723
  22172032.1104   -6143915.94946    393216.32761
  20242160.4314   -3123756.81146     56861.62863
  21932712.376   -10965345.048 6  -2058704.66021
 91  4 18 21 56 29.9960000  0  5G18G 2G11G19G 6
  22520354.957    10222239.874 6   1782832.77321
  20406971.613   -18307170.903 7 -14177159.12123
  22174450.1454   -6131210.53446    403116.61261
  20242771.371    -3120544.303 6     59364.85323
  21923914.574   -11011573.442 6  -2094726.72521
 91  4 18 21 56 44.9960000  0  5G18G 2G11G19G 6
  22527981.3404   10262319.49446   1814063.43061
  20400606.160   -18340625.349 7 -14203227.47023
  22176892.4654   -6118372.44346    413120.28561
  20243395.9344   -3117266.54246     61918.92563
  21915118.152   -11057801.915 6  -2130748.86221
 91  4 18 21 56 59.9960000  0  5G18G 2G11G19G 6
  22535617.5124   10302439.12046   1845325.23161
  20394254.410   -18374007.973 7 -14229239.85423
  22179362.4654   -6105397.92246    423230.27161
  20244033.2774   -3113918.66046     64527.63263
  21906323.676   -11104022.365 6  -2166764.74421
 91  4 18 21 57 14.9960000  0  5G18G 2G11G19G 6
  22543258.348    10342594.097 5   1876614.61921
  20387913.723   -18407322.934 7 -14255199.51523
  22181856.6454   -6092291.52446    433443.01361
  20244681.293    -3110505.230 6     67187.42523
  21897528.3714  -11150238.98746  -2202777.63161
 91  4 18 21 57 29.9960000  0  5G18G 2G11G19G 6
  22550907.582    10382784.003 6   1907931.17821
  20381586.785   -18440570.663 7 -14281106.78923
  22184376.1454   -6079053.72746    443758.14961
  20245343.5594   -3107026.20046     69898.32963
  21888737.0044  -11196452.11346  -2238787.80861
 91  4 18 21 57 44.9960000  0  5G18G 2G11G19G 6
  22558559.824    10423005.046 5   1939272.02821
  20375272.449   -18473754.560 7 -14306964.32323
  22186918.2774   -6065688.24146    454172.77561
  20246018.613    -3103484.985 6     72657.69223
  21879942.6454  -11242664.97646  -2274797.76761
 91  4 18 21 57 59.9960000  0  5G18G 2G11G19G 6
  22566221.160    10463260.073 6   1970639.35221
  20368970.488   -18506871.360 7 -14332769.57323
  22189486.4344   -6052192.04046    464689.26361
  20246706.0354   -3099878.38346     75468.00563
  21871145.4104  -11288874.36346  -2310805.01761
 91  4 18 21 58 14.9960000  0  5G18G 2G11G19G 6
  22573887.0044   10503549.05345   2002033.11561
  20362681.629   -18539920.907 7 -14358522.41923
  22192080.6914   -6038565.23246    475307.51861
  20247403.6374   -3096206.08746     78329.50663
  21862352.0044  -11335079.94746  -2346809.30661
 91  4 18 21 58 29.9960000  0  5G18G 2G11G19G 6
  22581561.309    10543868.087 5   2033450.31221
  20356404.246   -18572907.003 7 -14384225.82123
  22194697.6294   -6024811.85246    486024.40761
  20248114.410    -3092471.885 6     81239.24723
  21853562.3244  -11381285.50546  -2382813.57861
 91  4 18 21 58 44.9960000  0  5G18G 2G11G19G 6
  22589243.0594   10584227.41845   2064898.90761
  20350141.465   -18605819.170 7 -14409871.61523
  22197340.6844   -6010921.50546    496848.01561
  20248838.262    -3088665.005 6     84205.62523
  21844769.199   -11427480.209 6  -2418809.37621
 91  4 18 21 58 59.9960000  0  5G18G 2G11G19G 6
  22596928.7624   10624620.21845   2096373.56961
  20343890.512   -18638664.023 7 -14435464.95423
  22200008.2234   -5996900.97146    507773.07361
  20249575.3014   -3084791.76146     87223.71063
  21835979.7384  -11473670.56546  -2454801.79161
 91  4 18 21 59 14.9960000  0  5G18G 2G11G19G 6
  22604621.684    10665049.909 5   2127876.99921
  20337654.262   -18671437.914 7 -14461002.99923
  22202702.3484   -5982746.78746    518802.27361
  20250326.1454   -3080848.61846     90296.26363
  21827190.9814  -11519852.81946  -2490787.89961
 91  4 18 21 59 29.9960000  0  5G18G 2G11G19G 6
  22612318.793    10705511.249 5   2159405.05021
  20331430.754   -18704145.847 7 -14486489.65023
  22205419.8244   -5968464.18946    529931.53661
  20251089.387    -3076840.489 6     93419.45823
  21818404.5044  -11566031.91146  -2526771.53661
 91  4 18 21 59 44.9960000  0  5G18G 2G11G19G 6
  22620026.168    10746006.794 5   2190959.79521
  20325217.996   -18736784.886 7 -14511922.61923
  22208162.4964   -5954050.58846    541162.87961
  20251863.621    -3072764.412 6     96595.59323
  21809617.8484  -11612204.87146  -2562750.40461
 91  4 18 21 59 59.9960000  0  5G18G 2G11G19G 6
  22627739.121    10786536.177 5   2222540.86921
  20319021.004   -18769354.915 7 -14537301.81023
  22210931.9574   -5939506.01846    552496.27461
  20252652.887    -3068620.234 6     99824.79923
  21800830.3094  -11658371.49846  -2598724.33061
 91  4 18 22  0 14.9960000  0  5G18G 2G11G19G 6
  22635459.020    10827099.440 5   2254148.37221
  20312836.574   -18801855.625 7 -14562626.99023
  22213724.4414   -5924830.40546    563931.78161
  20253454.7074   -3064407.44446    103107.46263
  21792048.7704  -11704531.37846  -2634692.99861
 91  4 18 22  0 29.9960000  0  5G18G 2G11G19G 6
  22643184.426    10867696.978 5   2285782.57721
  20306664.793   -18834286.626 7 -14587897.84723
  22216541.5434   -5910023.41046    575469.67061
  20254269.0664   -3060125.56246    106443.96863
  21783268.856   -11750683.909 6  -2670655.94221
 91  4 18 22  0 44.9960000  0  5G18G 2G11G19G 6
  22650916.3874   10908328.43245   2317443.19161
  20300506.035   -18866647.796 7 -14613114.29723
  22219384.3094   -5895085.38446    587109.65061
  20255097.988    -3055774.472 6    109834.39723
  21774486.5354  -11796829.01246  -2706613.10161
 91  4 18 22  0 59.9960000  0  5G18G 2G11G19G 6
  22658654.168    10948989.594 5   2349126.95521
  20294360.574   -18898942.991 7 -14638279.33123
  22222250.4654   -5880020.37946    598848.58461
  20255941.0044   -3051357.91246    113275.84163
  21765705.7154  -11842970.41246  -2742567.37661
 91  4 18 22  1 14.9960000  0  5G18G 2G11G19G 6
  22666398.2704   10989682.17245   2380835.20961
  20288228.652   -18931170.448 7 -14663391.58623
  22225141.5984   -5864826.77346    610687.71661
  20256792.8484   -3046873.91546    116769.83663
  21756926.4184  -11889106.25846  -2778517.30961
 91  4 18 22  1 29.9960000  0  5G18G 2G11G19G 6
  22674147.785    11030406.519 5   2412568.21721
  20282108.574   -18963329.474 7 -14688450.52123
  22228058.2934   -5849504.16946    622627.37361
  20257658.2934   -3042321.61346    120317.05463
  21748145.926   -11935235.562 6  -2814462.16321
 91  4 18 22  1 44.9960000  0  5G18G 2G11G19G 6
  22681905.8324   11071164.18145   2444327.18161
  20276002.012   -18995418.457 7 -14713454.87123
  22230997.5514   -5834051.10246    634668.68661
  20258538.2234   -3037699.35146    123918.78363
  21739369.629   -11981356.583 6  -2850400.53821
 91  4 18 22  1 59.9960000  0  5G18G 2G11G19G 6
  22689664.535    11111957.577 5   2476113.96621
  20269910.027   -19027434.564 7 -14738402.43723
  22233963.9184   -5818465.02546    646813.64361
  20259432.4494   -3033004.21146    127577.30163
  21730597.8564  -12027466.42046  -2886330.21561
 91  4 18 22  2 14.9960000  0  5G18G 2G11G19G 6
  22697433.902    11152788.463 5   2507929.98721
  20263831.590   -19059375.531 7 -14763291.45223
  22236956.285    -5802743.946 6    659063.78721
  20260338.6994   -3028233.92646    131294.37263
  21721824.168   -12073562.828 6  -2922249.42021
 91  4 18 22  2 29.9960000  0  5G18G 2G11G19G 6
  22705212.8634   11193646.12645   2539766.86261
  20257766.973   -19091252.155 7 -14788130.33023
  22239971.8564   -5786898.79746    671410.61661
  20261257.5354   -3023399.23746    135061.63063
  21713048.2624  -12119656.43546  -2958166.44561
 91  4 18 22  2 44.9960000  0  5G18G 2G11G19G 6
  22712994.973    11234539.709 5   2571631.73121
  20251713.918   -19123055.024 7 -14812911.74423
  22243011.3244   -5770920.36246    683861.30461
  20262193.6294   -3018490.49546    138886.58863
  21704283.785   -12165737.521 6  -2994073.70821
 91  4 18 22  2 59.9960000  0  5G18G 2G11G19G 6
  22720782.098    11275467.614 5   2603523.35021
  20245675.902   -19154785.525 7 -14837636.75623
  22246077.3484   -5754810.06446    696414.74061
  20263139.3404   -3013508.84446    142768.36463
  21695519.106   -12211807.301 6  -3029972.15821
 91  4 18 22  3 14.9960000  0  5G18G 2G11G19G 6
  22728576.691    11316428.094 5   2635440.30921
  20239652.074   -19186445.139 7 -14862306.53523
  22249167.2234   -5738569.88146    709069.38361
  20264103.4104   -3008455.91146    146705.67863
  21686750.223   -12257867.325 6  -3065863.01421
 91  4 18 22  3 29.9960000  0  5G18G 2G11G19G 6
  22736377.7704   11357415.25645   2667378.11861
  20233639.168   -19218039.336 7 -14886925.34623
  22252281.301    -5722205.441 6    721820.85121
  20265074.8564   -3003337.06446    150694.35963
  21677987.379   -12303923.004 6  -3101750.48021
 91  4 18 22  3 44.9960000  0  5G18G 2G11G19G 6
  22744184.004    11398431.231 5   2699338.33321
  20227639.723   -19249565.565 7 -14911491.18923
  22255420.168    -5705714.555 6    734670.84521
  20266064.7314   -2998149.64646    154736.47363
  21669227.582   -12349971.720 6  -3137632.51021
 91  4 18 22  3 59.9960000  0  5G18G 2G11G19G 6
  22751993.6764   11439477.83245   2731322.43561
  20221653.566   -19281022.016 7 -14936002.66023
  22258582.9414   -5689095.41446    747620.78861
  20267063.3244   -2992891.59046    158833.62763
  21660463.8954  -12396011.31346  -3173507.45861
 91  4 18 22  4 14.9960000  0  5G18G 2G11G19G 6
  22759811.574    11480557.487 5   2763332.24621
  20215681.707   -19312405.933 7 -14960457.61323
  22261770.7234   -5672345.64246    760672.51161
  20268079.2234   -2987560.33946    162987.81963
  21651704.9964  -12442039.02346  -3209373.13661
 91  4 18 22  4 29.9960000  0  5G18G 2G11G19G 6
  22767631.6604   11521659.42745   2795359.47561
  20209721.246   -19343727.602 7 -14984864.06023
  22264980.2854   -5655475.81746    773817.78561
  20269104.7704   -2982166.00346    167191.16163
  21642944.816   -12488065.072 6  -3245237.51621
 91  4 18 22  4 44.9960000  0  5G18G 2G11G19G 6
  22775460.098    11562785.215 5   2827405.25121
  20203772.090   -19374985.420 7 -15009220.75823
  22268214.129    -5638484.644 6    787057.60821
  20270144.3324   -2976706.85246    171445.01463
  21634191.356   -12534087.712 6  -3281099.24221
 91  4 18 22  4 59.9960000  0  5G18G 2G11G19G 6
  22783289.8954   11603940.22545   2859473.78661
  20197838.324   -19406173.933 7 -15033523.44623
  22271471.2544   -5621366.78546    800396.16361
  20271199.1214   -2971177.43346    175753.62063
  21625432.8094  -12580101.23346  -3316953.86061
 91  4 18 22  5 14.9960000  0  5G18G 2G11G19G 6
  22791127.6914   11645123.61345   2891564.47861
  20191917.051   -19437293.429 7 -15057772.36023
  22274752.535    -5604122.798 6    813832.98321
  20272262.8094   -2965577.85346    180116.89563
  21616679.2314  -12626106.07346  -3352801.73161
 91  4 18 22  5 29.9960000  0  5G18G 2G11G19G 6
  22798969.824    11686333.719 5   2923675.92321
  20186005.996   -19468345.236 7 -15081968.52623
  22278057.926    -5586754.187 6    827366.91121
  20273342.1914   -2959909.22346    184533.97763
  21607925.2464  -12672103.24746  -3388643.62061
 91  4 18 22  5 44.9960000  0  5G18G 2G11G19G 6
  22806816.4734   11727566.68045   2955805.26261
  20180110.543   -19499332.776 7 -15106114.61523
  22281387.918    -5569264.777 6    840994.97921
  20274433.4024   -2954175.01946    189002.14863
  21599175.7464  -12718096.26246  -3424482.27061
 91  4 18 22  5 59.9960000  0  5G18G 2G11G19G 6
  22814668.1994   11768824.53045   2987953.90061
  20174225.527   -19530254.271 7 -15130209.24223
  22284735.863    -5551652.850 6    854718.50821
  20275535.0594   -2948373.30646    193522.92863
  21590422.2464  -12764082.92446  -3460315.97461
 91  4 18 22  6 14.9960000  0  5G18G 2G11G19G 6
  22822523.7854   11810108.46845   3020122.94561
  20168354.926   -19561108.453 7 -15154251.41723
  22288111.215    -5533917.233 6    868538.41821
  20276654.3014   -2942502.65846    198097.42863
  21581673.3794  -12810061.62346  -3496143.46961
 91  4 18 22  6 29.9960000  0  5G18G 2G11G19G 6
  22830386.8794   11851421.61945   3052314.69861
  20162496.965   -19591891.642 7 -15178238.27923
  22291511.777    -5516054.584 6    882457.32621
  20277787.1994   -2936559.25546    202728.62263
  21572924.7774  -12856028.81446  -3531961.99861
 91  4 18 22  6 44.9960000  0  5G18G 2G11G19G 6
  22838249.8874   11892755.56345   3084522.67961
  20156650.5664  -19622611.96947 -15202176.15563
  22294932.9024   -5498073.34246    896468.63861
  20278928.4264   -2930551.10546    207410.26263
  21564180.660   -12901992.507 6  -3567777.81821
 91  4 18 22  6 59.9960000  0  5G18G 2G11G19G 6
  22846119.8634   11934108.45945   3116745.41661
  20150816.793   -19653270.844 7 -15226066.14623
  22298377.5904   -5479975.23846    910571.01661
  20280081.9104   -2924479.80646    212141.11563
  21555431.574   -12947954.010 6  -3603591.91021
 91  4 18 22  7 14.9960000  0  5G18G 2G11G19G 6
  22853993.582    11975486.111 5   3148987.42321
  20144994.4024  -19683862.53747 -15249903.79063
  22301845.2624   -5461754.64346    924768.84361
  20281252.3094   -2918339.32746    216925.86963
  21546689.2464  -12993907.41946  -3639399.70561
 91  4 18 22  7 29.9960000  0  5G18G 2G11G19G 6
  22861875.9024   12016891.51445   3181251.11561
  20139187.3634  -19714383.48347 -15273686.30663
  22305336.7774   -5443408.22046    939064.71861
  20282434.7464   -2912126.17946    221767.25363
  21537943.277   -13039848.995 6  -3675198.28021
 91  4 18 22  7 44.9960000  0  5G18G 2G11G19G 6
  22869757.215    12058316.896 5   3213530.29321
  20133391.0824  -19744841.44347 -15297419.74163
  22308849.7624   -5424944.01746    953452.37561
  20283628.8484   -2905848.02246    226659.28963
  21529204.1604  -13085786.38446  -3710993.58461
 91  4 18 22  7 59.9960000  0  5G18G 2G11G19G 6
  22877645.5514   12099758.77245   3245822.37161
  20127606.6064  -19775239.53347 -15321106.53163
  22312384.8164   -5406365.40946    967929.17261
  20284834.4344   -2899507.79446    231599.69563
  21520461.832   -13131722.647 6  -3746788.02821
 91  4 18 22  8 14.9960000  0  5G18G 2G11G19G 6
  22885536.0124   12141227.00145   3278134.97161
  20121835.7704  -19805567.54447 -15344738.70863
  22315944.3094   -5387662.60546    982502.74561
  20286056.2384   -2893095.31946    236596.39963
  21511723.121   -13177647.415 6  -3782573.51121
 91  4 18 22  8 29.9960000  0  5G18G 2G11G19G 6
  22893428.871    12182714.663 5   3310462.69321
  20116076.8634  -19835832.31147 -15368321.60263
  22319525.7314   -5368842.50346    997167.71861
  20287287.7154   -2886617.03546    241644.38363
  21502985.668   -13223567.265 6  -3818355.15521
 91  4 18 22  8 44.9960000  0  5G18G 2G11G19G 6
  22901329.543    12224224.554 5   3342807.75721
  20110329.7314  -19866030.66247 -15391852.74963
  22323130.512    -5349902.192 6   1011926.35221
  20288535.2774   -2880069.74446    246746.13263
  21494249.5744  -13269478.95546  -3854130.43561
 91  4 18 22  8 59.9960000  0  5G18G 2G11G19G 6
  22909232.0274   12265753.58145   3375167.74361
  20104594.8634  -19896165.60147 -15415334.47963
  22326757.457    -5330844.776 6   1026776.24321
  20289792.1524   -2873456.33046    251899.40663
  21485512.082   -13315385.068 6  -3889901.37921
 91  4 18 22  9 14.9960000  0  5G18G 2G11G19G 6
  22917139.473    12307302.471 5   3407543.16421
  20098872.5984  -19926236.24947 -15438766.11763
  22330407.059    -5311669.747 6   1041717.78121
  20291063.6844   -2866776.03046    257104.80063
  21476780.9494  -13361284.82646  -3925667.38261
 91  4 18 22  9 29.9960000  0  5G18G 2G11G19G 6
  22925050.934    12348875.184 5   3439937.17621
  20093163.6374  -19956238.10047 -15462144.14463
  22334077.3094   -5292372.79446   1056754.32761
  20292348.0044   -2860024.23046    262365.90763
  21468045.691   -13407173.721 6  -3961424.92021
 91  4 18 22  9 44.9960000  0  5G18G 2G11G19G 6
  22932967.113    12390470.495 5   3472348.77621
  20087467.3324  -19986172.15747 -15485469.34863
  22337772.8094   -5272955.21046   1071884.87461
  20293646.7384   -2853201.77146    267682.07363
  21459313.4814  -13453052.44946  -3997174.51061
 91  4 18 22  9 59.9960000  0  5G18G 2G11G19G 6
  22940886.9024   12432091.64145   3504780.56261
  20081784.7314  -20016034.99847 -15508739.05663
  22341490.8244   -5253413.85646   1087111.86361
  20294959.0514   -2846305.06846    273056.09363
  21450587.324   -13498917.436 6  -4032913.41221
 91  4 18 22 10 14.9960000  0  5G18G 2G11G19G 6
  22948813.8954   12473736.31345   3537230.59461
  20076114.4884  -20045828.86447 -15531955.02163
  22345232.0354   -5233751.20846   1102433.36961
  20296286.6524   -2839336.45746    278486.15163
  21441860.137   -13544770.730 6  -4068643.20621
 91  4 18 22 10 29.9960000  0  5G18G 2G11G19G 6
  22956740.4814   12515399.67145   3569695.24961
  20070457.5274  -20075557.96447 -15555120.52363
  22348996.7854   -5213971.78346   1117845.86161
  20297625.9884   -2832299.97746    283969.08363
  21433136.949   -13590616.506 6  -4104367.12421
 91  4 18 22 10 44.9960000  0  5G18G 2G11G19G 6
  22964671.7704   12557074.79145   3602169.03461
  20064810.2544  -20105229.08647 -15578240.84263
  22352781.418    -5194082.718 6   1133343.78921
  20298976.5204   -2825202.45146    289499.58663
  21424414.0354  -13636461.55646  -4140090.49261
 91  4 18 22 10 59.9960000  0  5G18G 2G11G19G 6
  22972605.7154   12598771.10145   3634659.36361
  20059177.1994  -20134832.91447 -15601308.72263
  22356589.145    -5174074.576 6   1148934.50521
  20300338.4104   -2818033.96446    295085.38063
  21415692.5744  -13682295.98546  -4175805.56661
 91  4 18 22 11 14.9960000  0  5G18G 2G11G19G 6
  22980542.8954   12640480.50545   3667159.86861
  20053555.5434  -20164377.09147 -15624330.12863
  22360417.496    -5153955.603 6   1164611.57921
  20301716.4654   -2810802.49046    300720.25863
  21406967.8244  -13728127.67946  -4211518.51961
 91  4 18 22 11 29.9960000  0  5G18G 2G11G19G 6
  22988486.832    12682213.383 5   3699678.66321
  20047946.0664  -20193850.67747 -15647296.52363
  22364268.9884   -5133715.20446   1180383.27561
  20303105.9104   -2803496.99046    306412.81962
  21398248.809   -13773945.625 6  -4247220.76021
 91  4 18 22 11 44.9960000  0  5G18G 2G11G19G 6
  22996428.5434   12723966.14545   3732212.92861
  20042350.9734  -20223256.85247 -15670210.39163
  22368144.152    -5113356.785 6   1196246.93221
  20304510.0354   -2796120.60846    312160.61163
  21389535.1844  -13819752.70846  -4282914.52961
 91  4 18 22 11 59.9960000  0  5G18G 2G11G19G 6
  23004379.738    12765734.383 5   3764759.31121
  20036766.7854  -20252600.12947 -15693075.24263
  22372039.152    -5092884.714 6   1212199.14921
  20305926.4184   -2788677.36746    317960.50063
  21380818.5354  -13865553.05446  -4318603.05761
 91  4 18 22 12 14.9960000  0  5G18G 2G11G19G 6
  23012330.496    12807519.569 5   3797318.86721
  20031196.4184  -20281879.07247 -15715889.96563
  22375956.027    -5072297.719 6   1228240.91621
  20307356.0354   -2781165.65346    323813.74763
  21372103.2624  -13911345.05846  -4354285.07161
 91  4 18 22 12 29.9960000  0  5G18G 2G11G19G 6
  23020286.7704   12849321.02545   3829891.09261
  20025636.121   -20311093.959 7 -15738654.76823
  22379896.3484   -5051596.75046   1244371.50461
  20308798.1604   -2773585.91046    329720.00262
  21363392.2074  -13957128.94346  -4389960.76161
 91  4 18 22 12 44.9960000  0  5G18G 2G11G19G 6
  23028244.106    12891139.576 5   3862476.64421
  20020090.2234  -20340243.54647 -15761368.69263
  22383858.340    -5030780.727 6   1260591.73621
  20310254.5354   -2765936.92846    335680.20762
  21354680.9494  -14002903.44546  -4425629.14361
 91  4 18 22 12 59.9960000  0  5G18G 2G11G19G 6
  23036205.9264   12932970.91845   3895072.15761
  20014554.4184  -20369331.60247 -15784034.67063
  22387838.832    -5009853.794 6   1276898.39121
  20311719.3484   -2758222.43846    341691.45663
  21345973.5204  -14048672.18546  -4461293.04461
 91  4 18 22 13 14.9960000  0  5G18G 2G11G19G 6
  23044167.8794   12974818.07445   3927680.02361
  20009031.129   -20398355.259 7 -15806650.46323
  22391842.293    -4988813.321 6   1293293.52321
  20313202.3954   -2750439.52546    347756.02062
  21337263.7624  -14094432.20646  -4496950.14161
 91  4 18 22 13 29.9960000  0  5G18G 2G11G19G 6
  23052134.793    13016678.992 5   3960298.59921
  20003519.6294  -20427316.37047 -15829217.52163
  22395868.090    -4967661.264 6   1309775.59921
  20314698.6294   -2742589.79846    353872.64962
  21328558.8404  -14140185.02846  -4532601.62361
 91  4 18 22 13 44.9960000  0  5G18G 2G11G19G 6
  23060101.4494   13058554.72145   3992928.67861
  19998021.4964  -20456213.56447 -15851734.77563
  22399913.8244   -4946396.48046   1326345.51961
  20316203.7934   -2734671.63346    360042.61062
  21319853.8954  -14185929.03746  -4568246.24761
 91  4 18 22 13 59.9960000  0  5G18G 2G11G19G 6
  23068074.551    13100447.014 5   4025571.70821
  19992534.254   -20485044.725 7 -15874200.57623
  22403983.379    -4925017.089 6   1343004.74521
  20317724.6134   -2726682.93546    366267.52962
  21311150.4104  -14231661.93946  -4603882.21761
 91  4 18 22 14 14.9960000  0  5G18G 2G11G19G 6
  23076050.981    13142357.105 5   4058228.58821
  19987061.2464  -20513808.27247 -15896613.68463
  22408074.645    -4903521.866 6   1359754.22121
  20319258.1524   -2718622.17346    372548.60762
  21302450.5124  -14277382.23546  -4639508.36061
 91  4 18 22 14 29.9960000  0  5G18G 2G11G19G 6
  23084030.793    13184284.249 5   4090898.75321
  19981600.277   -20542504.840 7 -15918974.60923
  22412186.856    -4881911.639 6   1376593.31221
  20320807.2154   -2710489.75546    378885.51962
  21293751.426   -14323090.192 6  -4675124.89621
 91  4 18 22 14 44.9960000  0  5G18G 2G11G19G 6
  23092012.738    13226223.315 5   4123578.28021
  19976151.6764  -20571139.42547 -15941287.23163
  22416318.762    -4860191.651 6   1393517.93221
  20322365.5044   -2702290.46346    385274.54062
  21285056.629   -14368790.745 6  -4710735.65721
 91  4 18 22 14 59.9960000  0  5G18G 2G11G19G 6
  23099993.918    13268171.809 5   4156265.03021
  19970713.8794  -20599714.18247 -15963553.23763
  22420472.4344   -4838364.53246   1410526.03061
  20323937.6684   -2694026.53446    391713.92962
  21276361.0514  -14414485.87746  -4746342.19561
 91  4 18 22 15 14.9960000  0  5G18G 2G11G19G 6
  23107979.2854   13310133.94645   4188962.50561
  19965288.4414  -20628224.83247 -15985769.28863
  22424646.426    -4816426.139 6   1427620.83621
  20325524.7154   -2685693.44746    398207.20863
  21267667.012   -14460171.176 6  -4781941.07121
 91  4 18 22 15 29.9960000  0  5G18G 2G11G19G 6
  23115967.996    13352112.945 5   4221673.14121
  19959875.7854  -20656667.68147 -16007932.50563
  22428843.434    -4794373.028 6   1444805.03521
  20327121.9024   -2677287.56446    404757.21162
  21258974.785   -14505842.655 6  -4817529.18821
 91  4 18 22 15 44.9960000  0  5G18G 2G11G19G 6
  23123958.027    13394105.727 5   4254394.45821
  19954476.0434  -20685045.52747 -16030045.07363
  22433061.418    -4772208.216 6   1462076.26521
  20328737.3014   -2668811.64646    411361.78562
  21250285.793   -14551503.104 6  -4853108.70721
 91  4 18 22 15 59.9960000  0  5G18G 2G11G19G 6
  23131953.770    13436111.695 5   4287126.06421
  19949088.0124  -20713358.95847 -16052107.45063
  22437301.715    -4749932.530 6   1479433.89821
  20330361.2774   -2660266.20546    418020.53762
  21241598.637   -14597152.869 6  -4888679.90521
 91  4 18 22 16 14.9960000  0  5G18G 2G11G19G 6
  23139949.8954   13478130.53445   4319867.74061
  19943712.3484  -20741607.77747 -16074119.47863
  22441560.215    -4727546.013 6   1496877.88921
  20332003.5124   -2651650.82846    424733.78162
  21232914.0514  -14642791.63746  -4924242.52361
 91  4 18 22 16 29.9960000  0  5G18G 2G11G19G 6
  23147944.637    13520158.245 4   4352616.27121
  19938348.0434  -20769795.90847 -16096084.21563
  22445843.106    -4705052.742 6   1514405.06421
  20333652.7704   -2642969.36846    431498.52562
  21224231.957   -14688422.925 6  -4959799.31821
 91  4 18 22 16 44.9960000  0  5G18G 2G11G19G 6
  23155945.3954   13562195.34145   4385372.09261
  19932995.0514  -20797922.57447 -16118001.06063
  22450142.481    -4682452.366 6   1532015.69921
  20335320.0204   -2634220.84946    438315.51662
  21215548.832   -14734045.871 6  -4995349.61621
 91  4 18 22 16 59.9960000  0  5G18G 2G11G19G 6
  23163946.4494   13604245.47745   4418138.17061
  19927655.9654  -20825983.80747 -16139866.92063
  22454463.949    -4659741.279 6   1549712.60621
  20336996.4654   -2625401.21946    445187.92063
  21206870.988   -14779656.490 6  -5030890.31321
 91  4 18 22 17 14.9960000  0  5G18G 2G11G19G 6
  23171952.551    13646307.172 4   4450913.16821
  19922327.7384  -20853980.67747 -16161682.62563
  22458806.699    -4636920.755 6   1567494.77721
  20338689.4574   -2616511.73646    452114.75363
  21198192.918   -14825255.710 6  -5066422.12021
 91  4 18 22 17 29.9960000  0  5G18G 2G11G19G 6
  23179955.309    13688380.813 4   4483697.51021
  19917012.8794  -20881912.71647 -16183447.81463
  22463170.074    -4613990.429 6   1585362.51621
  20340396.6214   -2607551.75146    459096.52362
  21189516.238   -14870842.808 6  -5101944.48521
 91  4 18 22 17 44.9960000  0  5G18G 2G11G19G 6
  23187967.4414   13730462.73644   4516488.28761
  19911708.8164  -20909783.61447 -16205165.35963
  22467553.410    -4590954.257 6   1603312.73921
  20342111.9814   -2598524.66946    466130.57863
  21180844.590   -14916421.242 6  -5137460.10621
 91  4 18 22 17 59.9960000  0  5G18G 2G11G19G 6
  23195976.5434   13772560.20945   4549291.18461
  19906418.8244  -20937585.69447 -16226829.28263
  22471958.926    -4567805.054 6   1621351.02921
  20343845.0744   -2589422.81346    473222.89963
  21172174.176   -14961983.169 6  -5172962.85921
 91  4 18 22 18 14.9960000  0  5G18G 2G11G19G 6
  23203988.981    13814664.394 4   4582099.30821
  19901139.1524  -20965327.41547 -16248446.17063
  22476383.871    -4544551.505 6   1639470.62921
  20345588.8794   -2580254.61946    480366.91362
  21163505.5664  -15007537.01646  -5208459.31961
 91  4 18 22 18 29.9960000  0  4G 2G11G19G 6
  19895872.4264  -20993009.82547 -16270016.84863
  22480828.418    -4521194.973 6   1657670.48221
  20347345.2384   -2571021.12246    487561.81063
  21154838.121   -15053083.669 6  -5243950.17521
 91  4 18 22 18 44.9960000  0  4G 2G11G19G 6
  19890614.9264  -21020630.32247 -16291539.28263
  22485292.473    -4497733.051 6   1675952.45221
  20349116.3874   -2561719.61846    494809.69763
  21146172.8794  -15098620.18546  -5279433.13661
 91  4 18 22 18 59.9960000  0  4G 2G11G19G 6
  19885372.0354  -21048182.41247 -16313008.41463
  22489777.371    -4474159.489 6   1694321.40621
  20350900.2544   -2552343.37746    502115.82163
  21137512.3404  -15144140.07246  -5314903.14261
 91  4 18 22 19 14.9960000  0  4G 2G11G19G 6
  19880142.4104  -21075668.39447 -16334426.03163
  22494284.809    -4450476.837 6   1712775.37221
  20352698.809    -2542894.495 6    509478.54522
  21128850.8874  -15189645.12846  -5350361.58661
 91  4 18 22 19 29.9960000  0  4G 2G11G19G 6
  19874923.4654  -21103091.57947 -16355794.71763
  22498811.098    -4426688.728 6   1731311.50221
  20354508.832    -2533376.455 6    516895.15523
  21120193.4494  -15235138.66546  -5385811.06361
 91  4 18 22 19 44.9960000  0  4G 2G11G19G 6
  19869717.5434  -21130448.43747 -16377111.72463
  22503359.371    -4402791.960 6   1749932.31521
  20356333.731    -2523785.673 6    524368.44923
  21111539.6684  -15280617.07646  -5421248.75461
 91  4 18 22 19 59.9960000  0  4G 2G11G19G 6
  19864523.3094  -21157745.31547 -16398381.98763
  22507928.988    -4378793.072 6   1768632.69321
  20358169.918    -2514128.266 6    531893.65823
  21102886.2934  -15326086.51746  -5456679.45161
 91  4 18 22 20 14.9960000  0  4G 2G11G19G 6
  19859341.441   -21184977.584 7 -16419601.91523
  22512514.301    -4354687.830 6   1787415.94021
  20360025.129    -2504399.517 6    539474.45423
  21094238.254   -15371541.950 6  -5492099.24421
 91  4 18 22 20 29.9960000  0  4G 2G11G19G 6
  19854170.3874  -21212149.52347 -16440774.82963
  22517119.4104   -4330480.74746   1806278.54761
  20361887.731    -2494603.684 6    547107.52123
  21085588.4734  -15416987.74546  -5527511.52061
 91  4 18 22 20 44.9960000  0  4G 2G11G19G 6
  19849012.145   -21239254.852 7 -16461895.83823
  22521746.293    -4306165.737 6   1825225.25821
  20363766.020    -2484734.399 6    554797.82623
  21076943.2774  -15462417.29846  -5562911.13661
 91  4 18 22 20 59.9960000  0  4G 2G11G19G 6
  19843865.957   -21266300.069 7 -16482970.01023
  22526393.9414   -4281749.51246   1844250.82361
  20365656.840    -2474798.025 6    562540.40523
  21068300.8094  -15507836.93246  -5598303.02761
 91  4 18 22 21 14.9960000  0  4G 2G11G19G 6
  19838732.121   -21293276.947 7 -16503990.93123
  22531061.0434   -4257224.20646   1863361.39161
  20367562.637    -2464786.224 6    570341.76023
  21059661.0514  -15553238.26046  -5633680.65761
 91  4 18 22 21 29.9960000  0  4G 2G11G19G 6
  19833611.645   -21320184.202 7 -16524957.60223
  22535748.0044   -4232588.60646   1882557.90461
  20369480.660    -2454697.537 6    578203.02423
  21051025.2774  -15598619.63046  -5669042.72961
 91  4 18 22 21 44.9960000  0  4G 2G11G19G 6
  19828505.129   -21347027.283 7 -16545874.26723
  22540457.277    -4207848.711 6   1901835.69821
  20371415.926    -2444537.575 6    586119.82723
  21042392.8634  -15643986.62246  -5704393.59661
 91  4 18 22 21 59.9960000  0  4G 2G11G19G 6
  19823408.527   -21373805.625 7 -16566740.48023
  22545184.8634   -4183004.00646   1921195.14661
  20373360.324    -2434305.499 6    594092.81823
  21033762.9414  -15689338.21346  -5739732.46461
 91  4 18 22 22 14.9960000  0  4G 2G11G19G 6
  19818323.262   -21400526.825 7 -16587562.17723
  22549931.4494   -4158062.50146   1940630.02361
  20375321.856    -2424008.776 6    602116.18523
  21025132.7384  -15734681.96046  -5775065.21561
 91  4 18 22 22 29.9960000  0  4G 2G11G19G 6
  19813250.699   -21427183.418 7 -16608333.53123
  22554696.934    -4133017.028 6   1960145.92021
  20377291.926    -2413640.003 6    610195.69623
  21016509.1214  -15780010.17946  -5810385.87361
 91  4 18 22 22 44.9960000  0  4G 2G11G19G 6
  19808188.629   -21453779.803 7 -16629057.96323
  22559482.0824   -4107872.20146   1979739.23761
  20379280.629    -2403203.483 6    618328.00223
  21007885.6454  -15825327.12846  -5845697.74861
 91  4 18 22 22 59.9960000  0  4G 2G11G19G 6
  19803140.090   -21480314.660 7 -16649734.45523
  22564286.9414   -4082627.10046   1999410.68461
  20381281.113    -2392697.903 6    626514.11623
  20999263.2704  -15870631.19646  -5880999.58861
 91  4 18 22 23 14.9960000  0  4G 2G11G19G 6
  19798102.691   -21506785.014 7 -16670360.68823
  22569109.5354   -4057279.09446   2019162.31761
  20383293.473    -2382120.368 6    634756.30423
  20990643.371   -15915919.454 6  -5916289.08921
 91  4 18 22 23 29.9960000  0  4G 2G11G19G 6
  19793077.676   -21533192.433 7 -16690937.88123
  22573952.9104   -4031829.97546   2038992.74161
  20385317.613    -2371472.190 6    643053.53922
  20982030.4024  -15961193.09646  -5951567.20661
 91  4 18 22 23 44.9960000  0  4G 2G11G19G 6
  19788063.574   -21559538.085 7 -16711466.93823
  22578813.816    -4006281.046 6   2058900.93821
  20387359.231    -2360754.236 6    651405.14822
  20973418.496   -16006452.991 6  -5986834.61321
 91  4 18 22 23 59.9960000  0  3G11G19G 6
  22583694.3484   -3980631.52146   2078887.51961
  20389412.098    -2349965.451 6    659811.95322
  20964809.0984  -16051697.90246  -6022090.32661
 91  4 18 22 24 14.9960000  0  4G 2G11G19G 6
  19778074.184          -0.45317
  22588595.5594   -3954881.19446   2098952.64861
  20391479.8094   -2339105.37546    668274.31062
  20956200.074   -16096927.452 6  -6057334.08621
 91  4 18 22 24 29.9960000  0  3G11G19G 6
  22593514.512    -3929031.546 6   2119095.17021
  20393559.035    -2328174.939 6    676791.48822
  20947596.6684  -16142142.28246  -6092566.36661
 91  4 18 22 24 44.9960000  0  4G 2G11G19G 6
  19768130.0124     -26094.44447
  22598453.1914   -3903081.18146   2139316.17261
  20395652.1064   -2317172.34146    685364.90662
  20938994.5124  -16187340.51946  -6127785.71061
 91  4 18 22 24 59.9960000  0  4G 2G11G19G 6
  19763176.270      -52125.442 7
  22603410.7384   -3877031.59246   2159614.48461
  20397759.6684   -2306098.88746    693993.53062
  20930397.770   -16232523.238 6  -6162992.96821
 91  4 18 22 25 14.9950000  0  4G 2G11G19G 6
  19758234.983      -78094.986 7        -0.20733
  22608384.3434   -3850887.71446   2179986.27261
  20399880.2494   -2294958.14046    702674.59363
  20921802.6404  -16277690.20846  -6198187.94961
 91  4 18 22 25 29.9950000  0  4G 2G11G19G 6
  19753304.304     -104009.939 7    -20193.65623
  22613378.0234   -3824649.79946   2200431.33561
  20402009.0074   -2283751.81246    711406.75962
  20913208.6714  -16322850.66846  -6233377.85861
 91  4 18 22 25 44.9950000  0  4G 2G11G19G 6
  19748383.944     -129861.158 7    -40337.43723
  22618389.4374   -3798312.43246   2220953.90261
  20404158.5384   -2272473.11946    720195.31362
  20904618.8664  -16367993.85246  -6268554.30061
 91  4 18 22 25 59.9950000  0  4G 2G11G19G 6
  19743477.733     -155643.307 7    -60427.40223
  22623421.4684   -3771870.62046   2241557.84261
  20406320.9914   -2261117.02946    729044.17962
  20896031.0464  -16413114.42146  -6303713.12361
 91  4 18 22 26 14.9950000  0  4G 2G11G19G 6
  19738584.616     -181362.456 7    -80468.27323
  22628473.0624   -3745330.68146   2262238.24561
  20408494.5544   -2249689.32846    737948.84462
  20887448.2334  -16458218.25546  -6338858.90461
 91  4 18 22 26 29.9950000  0  4G 2G11G19G 6
  19733701.054     -207020.852 7   -100461.80023
  22633540.2104   -3718694.98146   2282993.27661
  20410684.0234   -2238191.98646    746907.77162
  20878868.7884  -16503307.28646  -6373993.14361
 91  4 18 22 26 44.9950000  0  4G 2G11G19G 6
  19728829.2734    -232620.94047
  22638626.3744   -3691966.33246   2303820.72561
  20412882.835    -2226627.513 6    755919.00922
  20870290.1874  -16548383.60046  -6409117.47761
 91  4 18 22 26 59.9950000  0  3G11G19G 6
  22643731.124    -3665140.921 6   2324723.56821
  20415098.702    -2214991.621 6    764985.89822
  20861717.2964  -16593443.00546  -6444228.63561
 91  4 18 22 27 14.9950000  0  4G 2G11G19G 6
  19719121.1014     -25474.46747
  22648855.835    -3638217.948 6   2345702.43821
  20417325.444    -2203283.033 6    774109.42822
  20853146.1944  -16638484.17146  -6479325.58761
 91  4 18 22 27 29.9950000  0  4G 2G11G19G 6
  19714286.444      -50884.227 7
  22653997.1794   -3611197.02646   2366757.64261
  20419566.921    -2191501.155 6    783290.06422
  20844577.6874  -16683506.22046  -6514407.63761
 91  4 18 22 27 44.9950000  0  4G 2G11G19G 6
  19709462.5304     -76233.62847        -0.11373
  22659155.023    -3584082.174 6   2387886.02521
  20421821.726    -2179649.651 6    792524.95322
  20836013.9054  -16728512.70246  -6549477.55461
 91  4 18 22 27 59.9950000  0  3G11G19G 6
  22664333.468    -3556869.673 6   2409090.49521
  20424090.538    -2167724.372 6    801817.32722
  20827451.7494  -16773499.42046  -6584532.08561
 91  4 18 22 28 14.9950000  0  4G 2G11G19G 6
  19699851.5694         -0.25657
  22669531.8664   -3529562.15046   2430369.02061
  20426374.710    -2155727.627 6    811165.38822
  20818895.9524  -16818468.42546  -6619572.80361
 91  4 18 22 28 29.9950000  0  4G 2G11G19G 6
  19695064.3354     -25156.60347
  22674747.226    -3502155.692 6   2451724.62121
  20428671.694    -2143655.068 6    820572.52922
  20810343.5544  -16863415.39446  -6654596.35361
 91  4 18 22 28 44.9950000  0  4G 2G11G19G 6
  19690288.6244     -50252.56447        -0.22173
  22679979.9764   -3474656.51146   2473152.48761
  20430983.5774   -2131512.68546    830034.06362
  20801792.8984  -16908346.12346  -6689607.24561
 91  4 18 22 28 59.9950000  0  4G 2G11G19G 6
  19685525.2734     -75283.22947    -19504.61763
  22685232.3124   -3447060.00246   2494656.19461
  20433305.7574   -2119295.51546    839553.88262
  20793246.0154  -16953255.44946  -6724601.46362
 91  4 18 22 29 14.9950000  0  4G 2G11G19G 6
  19680774.9444    -100251.08247    -38960.04563
  22690500.5304   -3419368.98746   2516233.54561
  20435646.273    -2107006.078 6    849130.01422
  20784703.9604  -16998145.78646  -6759580.87861
 91  4 18 22 29 29.9950000  0  4G 2G11G19G 6
  19676036.7964    -125151.58647    -58363.00263
  22695790.468    -3391579.300 5   2537887.78321
  20437998.6554   -2094639.81546    858766.00362
  20776166.2654  -17043012.30346  -6794541.74061
 91  4 18 22 29 44.9950000  0  4G 2G11G19G 6
  19671308.9444    -149990.72647    -77718.14763
  22701095.874    -3363696.945 5   2559614.21321
  20440366.999    -2082202.311 6    868457.51623
  20767631.5544  -17087860.66846  -6829488.46461
 91  4 18 22 29 59.9950000  0  4G 2G11G19G 6
  19666594.7184    -174768.70447    -97025.62863
  22706419.4214   -3335722.37345   2581412.51161
  20442748.585    -2069693.757 6    878204.39123
  20759102.9994  -17132690.99046  -6864421.12361
 91  4 18 22 30 14.9950000  0  4G 2G11G19G 6
  19661890.8904    -199485.89347   -116285.74263
  22711760.2264   -3307656.37145   2603282.05161
  20445140.663    -2057114.428 6    888006.41022
  20750572.858   -17177503.206 6  -6899339.68021
 91  4 18 22 30 29.9950000  0  4G 2G11G19G 6
  19657198.1244    -224145.23347   -135500.78063
  22717117.999    -3279502.337 5   2625220.19121
  20447548.249    -2044467.366 6    897861.21622
  20742047.671   -17222300.119 6  -6934246.31021
 91  4 18 22 30 44.9950000  0  4G 2G11G19G 6
  19652517.7334    -248742.34547   -154667.32863
  22722491.1324   -3251256.06245   2647230.21461
  20449967.944    -2031748.104 6    907772.27722
  20733528.327   -17267077.320 6  -6969137.58422
 91  4 18 22 30 59.9950000  0  4G 2G11G19G 6
  19647848.7884    -273272.73647   -173781.88563
  22727884.7494   -3222913.32345   2669315.39861
  20452401.960    -2018952.024 6    917743.20122
  20725013.116   -17311829.912 6  -7004009.68122
 91  4 18 22 31 14.9950000  0  4G 2G11G19G 6
  19643193.3274    -297741.70247   -192848.57863
  22733294.8354   -3194479.73345   2691471.36661
  20454850.413    -2006084.293 6    927769.95622
  20716498.413   -17356562.908 6  -7038866.51021
 91  4 18 22 31 29.9950000  0  4G 2G11G19G 6
  19638547.3124    -322157.02347   -211873.46963
  22738723.108    -3165963.182 5   2713691.97721
  20457313.577    -1993152.400 6    937846.70823
  20707987.187   -17401283.932 6  -7073714.01721
 91  4 18 22 31 44.9950000  0  4G 2G11G19G 6
  19633912.6484    -346511.31347   -230850.80263
  22744167.7884   -3137356.79545   2735982.60361
  20459785.812    -1980149.230 6    947978.99923
  20699481.874   -17445985.670 6  -7108546.50021
 91  4 18 22 31 59.9950000  0  4G 2G11G19G 6
  19629289.7574    -370805.53847   -249781.33463
  22749627.210    -3108661.806 5   2758342.25221
  20462273.233    -1967075.726 6    958166.09722
  20690979.405   -17490668.466 6  -7143364.21122
 91  4 18 22 32 14.9950000  0  4G 2G11G19G 6
  19624678.2884    -395035.88547   -268662.08963
  22755104.210    -3079874.582 5   2780773.79221
  20464776.960    -1953927.850 6    968411.14422
  20682481.835   -17535328.441 6  -7178164.14721
 91  4 18 22 32 29.9950000  0  4G 2G11G19G 6
  19620079.8514    -419205.19547   -287495.28563
  22760600.366    -3050998.169 5   2803274.82621
  20467291.038    -1940708.221 6    978712.10922
  20673985.733   -17579968.198 6  -7212948.32621
 91  4 18 22 32 44.9950000  0  4G 2G11G19G 6
  19615491.6944    -443315.21747   -306282.27963
  22766111.5934   -3022034.72745   2825843.66661
  20469821.687    -1927418.547 6    989067.64922
  20665494.999   -17624589.301 6  -7247717.96722
 91  4 18 22 32 59.9950000  0  4G 2G11G19G 6
  19610916.4914    -467357.76647   -325016.69663
  22771641.937    -2992976.491 5   2848486.37421
  20472364.858    -1914050.707 6    999484.09923
  20657009.874   -17669183.246 6  -7282466.44822
 91  4 18 22 33 14.9950000  0  4G 2G11G19G 6
  19606353.9604    -491334.46547   -343699.80863
  22777188.7884   -2963825.39045   2871201.44761
  20474923.288    -1900606.444 6   1009960.10523
  20648527.444   -17713751.771 6  -7317195.12722
 91  4 18 22 33 29.9950000  0  4G 2G11G19G 6
  19601801.7654    -515252.50847   -362337.20463
  22782753.9214   -2934588.88345   2893983.05661
  20477496.452    -1887092.730 6   1020490.21422
  20640052.093   -17758301.700 6  -7351909.30622
 91  4 18 22 33 44.9950000  0  4G 2G11G19G 6
  19597261.7184    -539109.42947   -380926.98163
  22788332.9764   -2905264.62345   2916833.06461
  20480080.140    -1873507.043 6   1031076.41022
  20631575.569   -17802830.195 6  -7386606.78522
 91  4 18 22 33 59.9950000  0  4G 2G11G19G 6
  19592734.2264    -562907.01747   -399470.52163
  22793928.968    -2875854.833 5   2939749.71321
  20482677.921    -1859851.038 6   1041717.39722
  20623106.608   -17847338.922 6  -7421288.87022
 91  4 18 22 34 14.9950000  0  4G 2G11G19G 6
  19588216.3354    -586644.23147   -417967.01863
  22799543.624    -2846358.720 5   2962733.61621
  20485291.8354   -1846123.59546   1052414.05062
  20614641.218   -17891826.558 6  -7455954.50821
 91  4 18 22 34 29.9950000  0  4G 2G11G19G 6
  19583710.4914    -610325.31047   -436419.77263
  22805172.7414   -2816780.87245   2985781.22561
  20487914.687    -1832328.847 6   1063163.15122
  20606178.382   -17936297.171 6  -7490606.89322
 91  4 18 22 34 44.9950000  0  4G 2G11G19G 6
  19579215.1554    -633947.91247   -454826.96263
  22810816.3664   -2787119.13145   3008894.19861
  20490555.226    -1818464.452 6   1073966.52122
  20597720.3274  -17980748.11046  -7525243.94761
 91  4 18 22 34 59.9950000  0  4G 2G11G19G 6
  19574731.4834    -657507.71747   -473185.21963
  22816477.077    -2757369.671 5   3032075.51521
  20493205.405    -1804526.184 6   1084827.45923
  20589266.616   -18025174.861 6  -7559862.14922
 91  4 18 22 35 14.9950000  0  4G 2G11G19G 6
  19570261.5074    -681002.33347   -491492.68163
  22822154.6244   -2727530.30845   3055326.90361
  20495875.343    -1790511.547 6   1095747.90222
  20580816.6014  -18069574.79246  -7594459.45361
 91  4 18 22 35 29.9950000  0  4G 2G11G19G 6
  19565800.8744    -704437.03747   -509753.45863
  22827849.593    -2697606.464 5   3078644.10821
  20498556.413    -1776425.391 6   1106724.07322
  20572371.4054  -18113952.88746  -7629039.75561
 91  4 18 22 35 44.9950000  0  4G 2G11G19G 6
  19561353.2104    -727809.43547   -527965.68063
  22833560.0234   -2667596.08645   3102028.74761
  20501248.5694   -1762265.51446   1117757.68962
  20563930.2494  -18158306.67746  -7663601.10762
 91  4 18 22 35 59.9950000  0  4G 2G11G19G 6
  19556916.7804    -751121.97047   -546131.26263
  22839286.569    -2637501.836 5   3125478.73521
  20503956.648    -1748034.414 6   1128846.80322
  20555493.632   -18202638.271 6  -7698145.16122
 91  4 18 22 36 14.9950000  0  4G 2G11G19G 6
  19552492.7024    -774371.31347   -564247.60363
  22845030.937    -2607320.912 5   3148996.26721
  20506680.241    -1733728.622 6   1139994.12422
  20547065.0074  -18246944.00146  -7732669.06662
 91  4 18 22 36 29.9950000  0  4G 2G11G19G 6
  19548079.9914    -797565.89347   -582321.27263
  22850788.085    -2577061.870 5   3172574.66121
  20509414.108    -1719356.504 6   1151193.12422
  20538635.874   -18291232.174 6  -7767179.29022
 91  4 18 22 36 44.9950000  0  4G 2G11G19G 6
  19543676.1404    -820698.28047   -600346.48063
  22856563.8194   -2546717.70045   3196219.40361
  20512165.210    -1704910.489 6   1162449.71222
  20530213.687   -18335495.301 6  -7801669.98522
 91  4 18 22 36 59.9950000  0  4G 2G11G19G 6
  19539287.7264    -843765.40047   -618320.82763
  22862355.3664   -2516285.54545   3219932.69661
  20514927.710    -1690387.607 6   1173766.19422
  20521795.601   -18379729.864 6  -7836138.43322
 91  4 18 22 37 14.9950000  0  4G 2G11G19G 6
  19534909.608     -866774.349 7   -636249.85123
  22868161.562    -2485772.701 5   3243708.86621
  20517704.694    -1675794.852 6   1185137.12322
  20513383.054   -18423942.954 6  -7870590.14222
 91  4 18 22 37 29.9950000  0  4G 2G11G19G 6
  19530542.3124    -889724.27047   -654132.88163
  22873980.3354   -2455178.68145   3267548.30361
  20520494.077    -1661131.176 6   1196563.31522
  20504973.882   -18468133.244 6  -7905024.08522
 91  4 18 22 37 44.9950000  0  4G 2G11G19G 6
  19526185.8984    -912616.10047   -671970.64363
  22879820.1164   -2424504.71845   3291450.02361
  20523299.077    -1646397.487 6   1208044.05722
  20496567.265   -18512301.229 6  -7939440.64322
 91  4 18 22 37 59.9950000  0  4G 2G11G19G 6
  19521841.710     -935446.937 7   -689760.88023
  22885674.523    -2393748.410 5   3315415.90621
  20526115.226    -1631590.871 6   1219581.63222
  20488168.757   -18556444.270 6  -7973837.76422
 91  4 18 22 38 14.9950000  0  4G 2G11G19G 6
  19517508.983     -958213.974 7   -707501.40623
  22891542.741    -2362907.179 5   3339447.95421
  20528949.499    -1616708.398 6   1231178.31022
  20479773.640   -18600559.186 6  -8008212.97122
 91  4 18 22 38 29.9950000  0  5G15G 2G11G19G 6
  22845946.0624         -0.75155
  19513187.054     -980920.869 7   -725195.06423
  22897425.3744   -2331984.90345   3363543.15461
  20531796.163    -1601753.723 6   1242831.25322
  20471383.398   -18644649.400 6  -8042568.94022
 91  4 18 22 38 44.9950000  0  5G15G 2G11G19G 6
  22837687.3194     -43429.55245
  19508878.101    -1003566.772 7   -742841.20223
  22903325.1014   -2300980.97945   3387701.98661
  20534653.5464   -1586725.85846   1254541.22362
  20462998.476   -18688713.724 6  -8076904.72622
 91  4 18 22 38 59.9950000  0  5G15G 2G11G19G 6
  22829434.1874     -86791.89745
  19504579.601    -1026157.310 7   -760444.19623
  22909238.866    -2269901.266 5   3411919.88621
  20537527.343    -1571630.255 6   1266303.97822
  20454618.327   -18732757.429 6  -8111224.44722
 91  4 18 22 39 14.9950000  0  5G15G 2G11G19G 6
  22821198.273     -130086.304 5        -0.34931
  19500290.640    -1048691.529 7   -778003.31323
  22915169.3434   -2238745.14145   3436197.31461
  20540413.2574   -1556466.09146   1278120.15562
  20446238.663   -18776779.260 6  -8145527.12222
 91  4 18 22 39 29.9950000  0  5G15G 2G11G19G 6
  22812969.0384    -173313.13845    -33683.42861
  19496013.788    -1071170.127 7   -795519.08423
  22921112.593    -2207513.598 5   3460533.52621
  20543312.062    -1541234.020 6   1289989.25122
  20437867.343   -18820779.889 6  -8179813.26922
 91  4 18 22 39 44.9950000  0  5G15G 2G11G19G 6
  22804757.3124    -216469.11845    -67311.28161
  19491747.827    -1093590.293 7   -812989.32023
  22927068.0544   -2176204.26245   3484930.35861
  20546225.2494   -1525931.10246   1301913.54262
  20429497.2884  -18864756.28146  -8214080.53162
 91  4 18 22 39 59.9950000  0  5G15G 2G11G19G 6
  22796561.2804    -259546.96245   -100878.29161
  19487493.562    -1115944.807 7   -830408.40623
  22933044.304    -2144810.373 5   3509393.05721
  20549149.577    -1510550.260 6   1313898.56422
  20421136.6014  -18908701.01446  -8248323.12362
 91  4 18 22 40 14.9950000  0  5G15G 2G11G19G 6
  22788377.2334    -302555.05545   -134390.94961
  19483249.507    -1138242.643 7   -847783.32823
  22939033.460    -2113341.058 5   3533914.51121
  20552089.851    -1495100.269 6   1325937.46322
  20412776.812   -18952622.704 6  -8282547.76122
 91  4 18 22 40 29.9950000  0  5G15G 2G11G19G 6
  22780206.921     -345487.777 5   -167844.88021
  19479018.671    -1160478.603 7   -865110.02923
  22945035.3514   -2081791.28645   3558498.67961
  20555041.374    -1479575.750 6   1338034.43322
  20404425.226   -18996516.022 6  -8316750.29322
 91  4 18 22 40 44.9950000  0  5G15G 2G11G19G 6
  22772046.5934    -388350.34345   -201244.14061
  19474798.343    -1182658.435 7   -882393.00023
  22951053.460    -2050167.130 5   3583140.80421
  20558012.374    -1463982.435 6   1350185.01522
  20396076.085   -19040386.453 6  -8350934.99422
 91  4 18 22 40 59.9950000  0  5G15G 2G11G19G 6
  22763909.648     -431134.014 5   -234581.91221
  19470588.7104   -1204773.83147   -899625.76463
  22957087.3274   -2018460.51445   3607847.19961
  20560992.5934   -1448311.97646   1362395.70762
  20387732.827   -19084225.172 6  -8385094.99122
 91  4 18 22 41 14.9950000  0  5G15G 2G11G19G 6
  22755780.788     -473836.931 5   -267856.73921
  19466393.546    -1226823.086 7   -916806.98523
  22963136.8354   -1986670.14245   3632618.85461
  20563992.210    -1432562.834 6   1374667.71122
  20379398.452   -19128030.581 6  -8419229.01822
 91  4 18 22 41 29.9950000  0  5G15G 2G11G19G 6
  22747665.7734    -516467.53445   -301075.24661
  19462209.148    -1248815.348 7   -933943.79823
  22969201.804    -1954805.414 5   3657448.46421
  20567000.0234   -1416743.95946   1386994.05062
  20371066.523   -19171811.402 6  -8453343.89322
 91  4 18 22 41 44.9950000  0  5G15G 2G11G19G 6
  22739570.8584    -559024.02445   -334235.99861
  19458034.905    -1270749.303 7   -951035.17923
  22975281.4524   -1922865.43845   3682336.68861
  20570025.8274   -1400854.10746   1399375.69862
  20362741.233   -19215566.124 6  -8487438.43122
 91  4 18 22 41 59.9950000  0  5G15G 2G11G19G 6
  22731486.4684    -601504.41545   -367337.44161
  19453871.991    -1292623.164 7   -968079.73423
  22981371.038    -1890848.705 5   3707284.71221
  20573060.7964   -1384891.41346   1411814.10362
  20354420.530   -19259292.797 6  -8521511.10722
 91  4 18 22 42 14.9950000  0  5G15G 2G11G19G 6
  22723420.6084    -643909.91445   -400380.55061
  19449721.155    -1314438.471 7   -985078.66323
  22987478.2024   -1858756.91945   3732291.22561
  20576112.7804   -1368857.31546   1424308.14262
  20346103.835   -19302992.700 6  -8555562.93222
 91  4 18 22 42 29.9950000  0  5G15G 2G11G19G 6
  22715361.6714    -686241.83045   -433366.28861
  19445580.4524   -1336197.22847  -1002033.52763
  22993599.8824   -1826592.38945   3757354.43061
  20579180.7884   -1352753.66146   1436856.39162
  20337793.241   -19346667.357 6  -8589595.08222
 91  4 18 22 42 44.9950000  0  5G15G 2G11G19G 6
  22707318.7024    -728497.13245   -466292.36361
  19441451.687    -1357896.816 7  -1018942.28323
  22999733.7264   -1794352.86145   3782476.08061
  20582256.1014   -1336577.66146   1449460.99862
  20329486.679   -19390314.080 6  -8623605.45822
 91  4 18 22 42 59.9950000  0  5G15G 2G11G19G 6
  22699293.3744    -770676.81545   -499159.49561
  19437333.046    -1379538.855 7  -1035806.19523
  23005884.1794   -1762040.29245   3807654.64461
  20585348.983    -1320331.241 6   1462120.49022
  20321186.7654  -19433934.26946  -8657595.15462
 91  4 18 22 43 14.9950000  0  5G15G 2G11G19G 6
  22691280.601     -812778.397 5   -531965.75921
  19433226.249    -1401120.843 7  -1052623.31623
  23012046.585    -1729652.503 5   3832891.82721
  20588454.2184   -1304011.72146   1474836.93562
  20312892.085   -19477525.108 6  -8691561.98922
 91  4 18 22 43 29.9950000  0  5G15G 2G11G19G 6
  22683281.538     -854800.962 5   -564710.45821
  19429129.788    -1422642.496 7  -1069393.42223
  23018223.030    -1697189.462 5   3858187.63521
  20591571.8984   -1287618.83146   1487610.55662
  20304602.421   -19521086.163 6  -8725505.61822
 91  4 18 22 43 44.9950000  0  5G15G 2G11G19G 6
  22675302.929     -896746.662 5   -597395.27721
  19425046.5464   -1444106.25447  -1086118.41763
  23024414.9054   -1664653.91345   3883539.94461
  20594705.1404   -1271154.84846   1500439.57262
  20296318.187   -19564619.439 6  -8759427.59422
 91  4 18 22 43 59.9950000  0  5G15G 2G11G19G 6
  22667336.1244    -938620.51545   -630024.11761
  19420972.093    -1465517.788 7  -1102802.71523
  23030620.343    -1632051.824 5   3908944.10121
  20597851.0544   -1254625.40346   1513319.60062
  20288038.273   -19608130.405 6  -8793332.19022
 91  4 18 22 44 14.9950000  0  5G15G 2G11G19G 6
  22659380.843     -980419.406 5   -662594.53821
  19416908.429    -1486874.371 7  -1119444.19623
  23036837.155    -1599380.765 5   3934402.00321
  20601010.7414   -1238027.66246   1526252.83862
  20279762.249   -19651616.195 6  -8827217.16422
 91  4 18 22 44 29.9950000  0  4G15G 2G19G 6
  22651440.546    -1022141.946 5   -695105.45521
  19412854.038    -1508174.968 7  -1136042.04723
  20604180.9994   -1221360.69246   1539240.02362
  20271493.2024  -19695075.49047  -8861081.49662
 91  4 18 22 44 44.9950000  0  4G15G 2G19G 6
  22643515.3984   -1063790.38145   -727558.61861
  19408811.124    -1529422.244 7  -1152598.35323
  20607366.2264   -1204626.91946   1552279.26562
  20263227.030   -19738510.658 7  -8894927.02822
 91  4 18 22 44 59.9950000  0  4G15G 2G19G 6
  22635603.7414   -1105358.41845   -759949.14661
  19404778.452    -1550610.095 7  -1169108.35323
  20610562.7264   -1187820.36846   1565375.22162
  20254967.8194  -19781915.38047  -8928748.82962
 91  4 18 22 45 14.9950000  0  4G15G 2G19G 6
  22627710.116    -1146848.645 5   -792279.05221
  19400757.671    -1571741.366 7  -1185574.26023
  20613776.2184   -1170943.86746   1578525.67762
  20246713.3744  -19825292.31047  -8962548.97362
 91  4 18 22 45 29.9950000  0  4G15G 2G19G 6
  22619827.8044   -1188264.49345   -824551.02561
  19396747.452    -1592820.073 7  -1201999.21023
  20616998.2574   -1154001.53846   1591727.43162
  20238462.8124  -19868645.29347  -8996330.46362
 91  4 18 22 45 44.9950000  0  4G15G 2G19G 6
  22611961.8274   -1229603.24345   -856762.91061
  19392746.077    -1613844.324 7  -1218381.72323
  20620234.8044   -1136991.20246   1604982.17462
  20230219.7734  -19911972.00047  -9030091.47162
 91  4 18 22 45 59.9950000  0  4G15G 2G19G 6
  22604107.7734   -1270864.35045   -888914.27461
  19388755.983    -1634814.042 7  -1234721.75323
  20623486.9834   -1119912.69246   1618290.04462
  20221979.5074  -19955272.15647  -9063831.79362
 91  4 18 22 46 14.9950000  0  4G15G 2G19G 6
  22596273.132    -1312046.822 5   -921004.35021
  19384776.069    -1655728.387 7  -1251018.63123
  20626750.0304   -1102765.15546   1631651.70362
  20213743.7654  -19998544.62847  -9097550.54262
 91  4 18 22 46 29.9950000  0  4G15G 2G19G 6
  22588453.835    -1353148.127 5   -953031.20221
  19380806.382    -1676585.350 7  -1267270.79623
  20630026.0464   -1085546.48646   1645068.78862
  20205513.7884  -20041787.03147  -9131245.85662
 91  4 18 22 46 44.9950000  0  4G15G 2G19G 6
  22580644.8664   -1394168.89045   -984995.27861
  19376849.116    -1697385.835 7  -1283478.94424
  20633315.952    -1068257.688 6   1658540.52222
  20197292.7104  -20085000.06747  -9164918.29262
 91  4 18 22 46 59.9950000  0  4G15G 2G19G 6
  22572853.9294   -1435109.92045  -1016897.24261
  19372901.663    -1718131.116 7  -1299644.08124
  20636618.663    -1050899.956 6   1672065.97622
  20189073.0854  -20128184.79947  -9198568.67462
 91  4 18 22 47 14.9950000  0  4G15G 2G19G 6
  22565075.1084   -1475972.62645  -1048738.18961
  19368963.421    -1738822.880 7  -1315767.51424
  20639934.952    -1033474.995 6   1685643.81422
  20180862.3984  -20171342.66547  -9232198.12162
 91  4 18 22 47 29.9950000  0  4G15G 2G19G 6
  22557319.726    -1516756.365 5  -1080517.59321
  19365036.382    -1759461.159 7  -1331849.27223
  20643262.702    -1015982.611 6   1699274.18622
  20172654.5934  -20214473.37947  -9265806.41262
 91  4 18 22 47 44.9950000  0  4G15G 2G19G 6
  22549571.4994   -1557457.61445  -1112232.71961
  19361120.038    -1780042.511 7  -1347886.66823
  20646606.382     -998419.500 6   1712959.68022
  20164452.5304  -20257573.40247  -9299390.78862
 91  4 18 22 47 59.9950000  0  4G15G 2G19G 6
  22541843.3904   -1598075.28445  -1143882.72861
  19357213.937    -1800566.457 7  -1363879.33324
  20649962.702     -980785.058 6   1726700.74822
  20156256.905   -20300641.858 7  -9332950.57122
 91  4 18 22 48 14.9950000  0  4G15G 2G19G 6
  22534130.9834   -1638607.97045  -1175466.53461
  19353320.108    -1821032.046 7  -1379826.52724
  20653331.030     -963078.322 6   1740498.16022
  20148067.3274  -20343677.48647  -9366484.76362
 91  4 18 22 48 29.9950000  0  4G15G 2G19G 6
  22526430.562    -1679055.929 5  -1206984.28321
  19349436.882    -1841439.909 7  -1395728.73624
  20656713.038     -945299.940 6   1754351.38222
  20139883.163   -20386680.851 7  -9399993.83122
 91  4 18 22 48 44.9950000  0  4G15G 2G19G 6
  22518751.460    -1719424.542 5  -1238440.22121
  19345561.757    -1861795.651 7  -1411590.32924
  20660109.976     -927455.564 6   1768256.04022
  20131705.6944  -20429657.23547  -9433481.86462
 91  4 18 22 48 59.9950000  0  4G15G 2G19G 6
  22511086.640    -1759713.701 5  -1269834.26621
  19341698.327    -1882099.729 7  -1427411.66324
  20663516.655     -909545.583 6   1782211.82022
  20123532.273   -20472606.766 7  -9466948.97422
 91  4 18 22 49 14.9950000  0  4G15G 2G19G 6
  22503432.905    -1799920.680 6  -1301164.27521
  19337845.6484   -1902350.06347  -1443191.11864
  20666939.2964    -891567.75646   1796220.46462
  20115364.7184  -20515526.98347  -9500393.24262
 91  4 18 22 49 29.9950000  0  4G15G 2G19G 6
  22495791.7654   -1840047.21545  -1332431.57861
  19334001.429    -1922548.492 7  -1458930.12624
  20670374.171     -873523.992 6   1810280.48522
  20107202.8904  -20558419.60247  -9533815.99962
 91  4 18 22 49 44.9950000  0  4G15G 2G19G 6
  22488176.749    -1880087.712 5  -1363631.82521
  19330168.515    -1942689.991 7  -1474624.77524
  20673821.8124    -855409.13446   1824395.90862
  20099048.921   -20601279.314 7  -9567213.12322
 91  4 18 22 49 59.9950000  0  4G15G 2G19G 6
  22480576.2654   -1920044.17445  -1394766.60361
  19326347.1874   -1962776.79647  -1490276.80464
  20677279.7414    -837225.39246   1838564.99062
  20090896.538   -20644108.029 7  -9600586.09822
 91  4 18 22 50 14.9950000  0  4G15G 2G19G 6
  22472987.1404   -1959921.10445  -1425839.41961
  19322533.398    -1982813.928 7  -1505890.13324
  20680752.952     -818977.688 6   1852783.93222
  20082751.765   -20686910.557 7  -9633938.66422
 91  4 18 22 50 29.9950000  0  4G15G 2G19G 6
  22465414.5854   -1999716.76845  -1456848.91361
  19318730.124    -2002800.032 7  -1521463.68924
  20684236.2414    -800664.58446   1867053.81862
  20074611.757   -20729685.189 7  -9667269.50122
 91  4 18 22 50 44.9950000  0  4G15G 2G19G 6
  22457859.023    -2039427.447 5  -1487792.20821
  19314937.3514   -2022732.04747  -1536995.10264
  20687735.6484    -782283.20046   1881376.91362
  20066479.007   -20772428.709 7  -9700576.08922
 91  4 18 22 50 59.9950000  0  4G15G 2G19G 6
  22450315.4214   -2079052.72745  -1518668.89461
  19311154.4054   -2042609.38147  -1552483.90664
  20691246.9834    -763833.06746   1895753.57862
  20058350.757   -20815140.351 7  -9733857.84322
 91  4 18 22 51 14.9950000  0  4G15G 2G19G 6
  22442792.3904   -2118590.15745  -1549477.14861
  19307382.9604   -2062430.02647  -1567928.53764
  20694772.6794    -745312.07346   1910185.45362
  20050228.929   -20857817.966 7  -9767113.07722
 91  4 18 22 51 29.9950000  0  4G15G 2G19G 6
  22435284.7804   -2158042.29745  -1580218.95861
  19303621.085    -2082197.316 7  -1583331.59624
  20698309.608     -726723.471 6   1924670.00722
  20042113.249   -20900464.374 7  -9800343.99722
 91  4 18 22 51 44.9950000  0  4G15G 2G19G 6
  22427795.233    -2197405.134 5  -1610891.16521
  19299871.1404   -2101907.69147  -1598690.30164
  20701861.1084    -708063.64946   1939210.06062
  20034004.999   -20943075.826 7  -9833547.67622
 91  4 18 22 51 59.9950000  0  4G15G 2G19G 6
  22420318.2964   -2236677.79345  -1641493.14461
  19296131.312    -2121560.710 7  -1614004.31624
  20705423.2104    -689331.94846   1953806.12062
  20025901.944   -20985651.344 7  -9866723.36222
 91  4 18 22 52 14.9950000  0  4G15G 2G19G 6
  22412861.1164   -2275862.72045  -1672026.72561
  19292401.6484   -2141159.02247  -1629275.69964
  20709003.898     -670530.945 6   1968456.18522
  20017807.780   -21028193.482 7  -9899873.03522
 91  4 18 22 52 29.9950000  0  4G15G 2G19G 6
  22405419.0854   -2314966.88545  -1702497.38961
  19288680.694    -2160709.976 7  -1644510.18224
  20712590.7494    -651668.24646   1983154.31962
  20009717.265   -21070709.394 7  -9933002.27022
 91  4 18 22 52 44.9950000  0  4G15G 2G19G 6
  22397996.3194   -2353985.56145  -1732901.40261
  19284970.030    -2180209.179 7  -1659704.33924
  20716193.7804    -632739.28546   1997904.09162
  20001631.710   -21113194.294 7  -9966107.34122
 91  4 18 22 52 59.9950000  0  4G15G 2G19G 6
  22390587.663    -2392917.828 5  -1763238.12021
  19281270.1794   -2199656.08747  -1674857.74564
  20719806.366     -613743.620 6   2012705.83622
  19993554.358   -21155647.574 7  -9999187.77422
 91  4 18 22 53 14.9950000  0  4G15G 2G19G 6
  22383193.3984   -2431763.02545  -1793506.99061
  19277578.0384   -2219050.51647  -1689970.25864
  20723435.4684    -594681.06146   2027559.70562
  19985480.499   -21198068.564 7 -10032243.05122
 91  4 18 22 53 29.9950000  0  4G15G 2G19G 6
  22375819.9054   -2470524.44545  -1823710.53961
  19273896.3514   -2238396.13947  -1705044.74064
  20727074.655     -575555.324 6   2042462.80722
  19977414.905   -21240461.010 7 -10065276.08022
 91  4 18 22 53 44.9940000  0  4G15G 2G19G 6
  22368458.752    -2509191.171 5  -1853840.37021
  19270227.2364   -2257683.99047  -1720074.20564
  20730727.6274    -556359.64546   2057420.40662
  19969355.6824  -21282813.80547 -10098278.22262
 91  4 18 22 53 59.9940000  0  4G15G 2G19G 6
  22361120.0574   -2547773.68045  -1883904.54361
  19266566.479    -2276922.042 7  -1735064.86724
  20734392.768     -537097.088 6   2072430.11122
  19961300.041   -21325137.841 7 -10131257.94322
 91  4 18 22 54 14.9940000  0  4G15G 2G19G 6
  22353791.479    -2586271.836 5  -1913902.96121
  19262914.4714   -2296111.99347  -1750018.05064
  20738070.244     -517771.917 6   2087488.61122
  19953253.2214  -21367432.93347 -10164215.11762
 91  4 18 22 54 29.9940000  0  4G15G 2G19G 6
  22346483.6824   -2624679.91945  -1943831.22261
  19259272.8544   -2315248.39147  -1764929.49864
  20741760.924     -498378.379 6   2102600.38222
  19945210.190   -21409693.243 7 -10197145.18822
 91  4 18 22 54 44.9940000  0  5G15G 2G13G19G 6
  22339191.4404   -2662992.76945  -1973685.25561
  19255642.9404   -2334326.78247  -1779795.75064
  22471024.7054     -73604.27644
  20745466.5254    -478912.13546   2117768.82462
  19937176.791   -21451914.091 7 -10230044.50622
 91  4 18 22 54 59.9940000  0  5G15G 2G13G19G 6
  22331919.940    -2701216.828 5  -2003470.11121
  19252021.205    -2353353.606 7  -1794621.81724
  22457023.6584    -147182.30344
  20749187.135     -459379.856 6   2132988.69722
  19929148.940   -21494101.870 7 -10262918.05422
 91  4 18 22 55 14.9940000  0  5G15G 2G13G19G 6
  22324659.6584   -2739353.00045  -2033186.48361
  19248409.971    -2372330.311 7  -1809408.83724
  22443025.6974    -220735.53744
  20752913.752     -439782.882 6   2148259.01522
  19921124.986   -21536257.650 7 -10295766.67122
 91  4 18 22 55 29.9940000  0  5G15G 2G13G19G 6
  22317424.5414   -2777393.19745  -2062828.10361
  19244809.885    -2391249.336 7  -1824150.90824
  22429034.713     -294255.814 4
  20756655.627     -420113.444 6   2163585.76922
  19913111.369   -21578373.459 7 -10328584.13722
 91  4 18 22 55 44.9940000  0  5G15G 2G13G19G 6
  22310199.768    -2815345.348 5  -2092401.06921
  19241220.354    -2410118.725 7  -1838854.30424
  22415048.502     -367750.831 4
  20760410.354     -400379.734 6   2178962.62822
  19905101.510   -21620457.241 7 -10361376.65222
 91  4 18 22 55 59.9940000  0  5G15G 2G13G19G 6
  22302991.104    -2853206.479 5  -2121903.11621
  19237638.885    -2428936.007 7  -1853517.09924
  22401067.6194    -441217.65244        -0.40871
  20764178.2054    -380579.06946   2194391.65262
  19897101.752   -21662506.046 7 -10394141.90522
 91  4 18 22 56 14.9940000  0  5G15G 2G13G19G 6
  22295807.940    -2890976.203 5  -2151333.94921
  19234067.666    -2447701.435 7  -1868139.48924
  22387094.877     -514656.291 5    -57224.91821
  20767960.2294    -360711.82446   2209872.56562
  19889105.916   -21704519.846 7 -10426879.88622
 91  4 18 22 56 29.9940000  0  5G15G 2G13G19G 6
  22288640.002    -2928648.891 5  -2180689.16621
  19230507.315    -2466409.554 7  -1882717.21924
  22373123.7524    -588060.76244   -114422.81461
  20771754.4864    -340772.63145   2225409.53162
  19881119.393   -21746493.187 7 -10459586.34022
 91  4 18 22 56 44.9940000  0  5G15G 2G13G19G 6
  22281489.8074   -2966229.03245  -2209972.26061
  19226957.893    -2485065.210 7  -1897254.07524
  22359162.1744    -661435.55244   -171597.55561
  20775561.658     -320766.137 6   2240998.95622
  19873138.127   -21788430.345 7 -10492264.59922
 91  4 18 22 56 59.9940000  0  5G15G 2G13G19G 6
  22274353.674    -3003714.490 5  -2239181.60621
  19223417.236    -2503666.773 7  -1911748.78124
  22345204.557     -734778.471 4   -228747.49021
  20779379.4864    -300690.46446   2256642.27362
  19865167.065   -21830329.491 7 -10524913.23222
 91  4 18 22 57 14.9940000  0  5G15G 2G13G19G 6
  22267238.7524   -3041104.50845  -2268316.57161
  19219888.174    -2522213.613 7  -1926200.84324
  22331255.143     -808088.721 4   -285871.98821
  20783216.400     -280545.315 6   2272339.73922
  19857199.572   -21872189.935 7 -10557531.71222
 91  4 18 22 57 29.9940000  0  5G15G 2G13G19G 6
  22260142.088    -3078400.733 5  -2297378.42921
  19216369.361    -2540707.761 7  -1940611.85024
  22317308.104     -881367.756 4   -342972.09121
  20787060.5184    -260332.62445   2288089.83262
  19849242.111   -21914013.248 7 -10590121.25022
 91  4 18 22 57 44.9940000  0  5G15G 2G13G19G 6
  22253061.5884   -3115601.53845  -2326365.95361
  19212860.479    -2559148.044 7  -1954980.88524
  22303370.7134    -954613.97844   -400046.69161
  20790920.6664    -240051.31946   2303893.37862
  19841289.346   -21955798.044 7 -10622680.78122
 91  4 18 22 57 59.9940000  0  5G15G 2G13G19G 6
  22246001.299    -3152705.935 5  -2355278.35321
  19209361.229    -2577534.023 7  -1969307.60524
  22289438.1584   -1027826.26044   -457094.80861
  20794791.127     -219700.790 5   2319750.88522
  19833345.9944  -21997543.46747 -10655209.62262
 91  4 18 22 58 14.9940000  0  5G15G 2G13G19G 6
  22238959.2294   -3189714.86045  -2384116.36061
  19205873.080    -2595866.917 7  -1983592.96124
  22275511.7364   -1101005.41044   -514117.14861
  20798678.8694    -199282.36346   2335661.28362
  19825408.518   -22039250.419 7 -10687708.50022
 91  4 18 22 58 29.9940000  0  5G15G 2G13G19G 6
  22231934.533    -3226630.138 5  -2412881.39521
  19202394.119    -2614149.065 7  -1997838.77823
  22261592.463    -1174153.560 4   -571115.29021
  20802574.8074    -178798.25545   2351622.87362
  19817480.010   -22080921.008 7 -10720179.03522
 91  4 18 22 58 44.9940000  0  5G15G 2G13G19G 6
  22224928.1274   -3263446.72545  -2441569.54761
  19198924.986    -2632375.687 7  -2012041.32523
  22247680.2994   -1247265.47945   -628085.21861
  20806489.2214    -158243.77646   2367639.28762
  19809556.455   -22122550.294 7 -10752617.38522
 91  4 18 22 58 59.9940000  0  5G15G 2G13G19G 6
  22217943.4714   -3300163.56745  -2470179.94961
  19195467.229    -2650546.084 7  -2026200.06224
  22233776.5964   -1320340.13344   -685026.13861
  20810409.6584    -137618.44145   2383710.91562
  19801644.315   -22164137.365 7 -10785022.83722
 91  4 18 22 59 14.9940000  0  5G15G 2G13G19G 6
  22210974.3304   -3336784.87845  -2498715.90961
  19192019.291    -2668664.782 7  -2040318.51223
  22219875.8694   -1393381.44445   -741941.02861
  20814349.635     -116926.467 5   2399834.47222
  19793736.893   -22205686.257 7 -10817398.54922
 91  4 18 22 59 29.9940000  0  5G15G 2G13G19G 6
  22204019.1664   -3373307.36845  -2527174.88461
  19188581.807    -2686728.903 7  -2054394.43723
  22205982.158    -1466386.245 5   -798827.50921
  20818300.8774     -96165.12846   2416012.09162
  19785838.565   -22247194.087 7 -10849742.25422
 91  4 18 22 59 44.9940000  0  5G15G 2G13G19G 6
  22197090.369    -3409733.242 5  -2555558.56221
  19185154.1114   -2704740.91847  -2068429.76363
  22192094.713    -1539356.549 4   -855687.09321
  20822265.7364     -75336.62245   2432242.02062
  19777946.846   -22288662.854 7 -10882055.53122
 91  4 18 22 59 59.9940000  0  5G15G 2G13G19G 6
  22190180.471    -3446059.172 5  -2583864.38521
  19181736.471    -2722698.068 7  -2082422.33423
  22178215.682    -1612289.105 5   -912517.23821
  20826240.385      -54438.425 5   2448526.27822
  19770064.080   -22330089.546 7 -10914336.01622
 91  4 18 23  0 14.9940000  0  5G15G 2G13G19G 6
  22183282.619    -3482286.388 5  -2612093.25921
  19178330.221    -2740601.977 7  -2096373.41823
  22164346.150    -1685184.998 5   -969318.87621
  20830232.5724     -33471.98645   2464863.69862
  19762187.986   -22371475.209 7 -10946584.53722
 91  4 18 23  0 29.9940000  0  5G15G 2G13G19G 6
  22176409.6504   -3518414.85045  -2640245.18061
  19174933.7134   -2758452.86847  -2110283.19463
  22150479.0414   -1758044.38945  -1026092.04061
  20834235.6504     -12437.69845   2481253.98462
  19754320.807   -22412820.239 7 -10978801.39322
 91  4 18 23  0 44.9940000  0  5G15G 2G13G19G 6
  22169552.846    -3554446.069 5  -2668321.34521
  19171546.1114   -2776252.65747  -2124153.14863
  22136624.7684   -1830868.40645  -1082837.65361
  20838252.2364       8662.69445   2497695.78262
  19746461.307   -22454125.893 7 -11010987.56922
 91  4 18 23  0 59.9940000  0  5G15G 2G13G19G 6
  22162712.4634   -3590380.43145  -2696322.06161
  19168168.7054   -2794001.94747  -2137983.75163
  22122772.650    -1903657.399 5  -1139555.94321
  20842275.3774      29828.36845   2514188.45662
  19738608.315   -22495392.679 7 -11043143.45722
 91  4 18 23  1 14.9940000  0  5G15G 2G13G19G 6
  22155895.783    -3626216.220 5  -2724245.94121
  19164801.369    -2811699.534 7  -2151774.06623
  22108925.299    -1976409.823 4  -1196245.79321
  20846316.3614      51060.52845   2530732.91761
  19730761.299   -22536619.121 7 -11075267.91222
 91  4 18 23  1 29.9940000  0  5G15G 2G13G19G 6
  22149091.025    -3661957.091 5  -2752095.85421
  19161442.1744   -2829349.23347  -2165527.07063
  22095085.799    -2049129.177 5  -1252909.80221
  20850370.635       72355.427 5   2547326.28122
  19722926.041   -22577808.863 7 -11107363.76522
 91  4 18 23  1 44.9940000  0  5G15G 2G13G19G 6
  22142310.791    -3697594.231 5  -2779864.95721
  19158094.033    -2846942.820 7  -2179236.34323
  22081257.049    -2121806.856 5  -1309541.42121
  20854435.4164      93721.23045   2563974.87362
  19715095.088   -22618953.304 7 -11139424.32622
 91  4 18 23  1 59.9940000  0  5G15G 2G13G19G 6
  22135551.611    -3733131.437 5  -2807556.16221
  19154755.775    -2864484.679 7  -2192905.30923
  22067433.9474   -2194446.51345  -1366143.35861
  20858513.658      115153.606 5   2580675.36222
  19707271.971   -22660056.361 7 -11171452.63822
 91  4 18 23  2 14.9940000  0  5G15G 2G13G19G 6
  22128804.861    -3768568.297 5  -2835169.20921
  19151427.729    -2881974.482 7  -2206533.71223
  22053618.1274   -2267047.24045  -1422714.97761
  20862604.830      136652.996 5   2597428.05122
  19699458.783   -22701117.593 7 -11203448.35423
 91  4 18 23  2 29.9940000  0  5G15G 2G13G19G 6
  22122082.533    -3803904.264 5  -2862703.62821
  19148109.244    -2899412.227 7  -2220121.55023
  22039808.5654   -2339608.77445  -1479256.06461
  20866711.5414     158219.46546   2614233.00361
  19691653.877   -22742136.560 7 -11235411.14222
 91  4 18 23  2 44.9940000  0  5G15G 2G13G19G 6
  22115377.8154   -3839139.57045  -2890159.60561
  19144800.877    -2916798.179 7  -2233669.02923
  22026008.4634   -2412131.14645  -1535766.61661
  20870826.627      179852.522 5   2631089.87822
  19683856.479   -22783113.347 7 -11267341.06422
 91  4 18 23  2 59.9940000  0  5G15G 2G13G19G 6
  22108690.869    -3874272.403 5  -2917535.72121
  19141502.994    -2934130.954 7  -2247175.06823
  22012215.1824   -2484612.32845  -1592245.08061
  20874956.119      201553.690 6   2647999.78822
  19676065.0654  -22824046.31647 -11299236.84262
 91  4 18 23  3 14.9940000  0  5G15G 2G13G19G 6
  22102023.2604   -3909304.84645  -2944833.62861
  19138214.197    -2951413.086 7  -2260641.64623
  21998432.049    -2557054.640 5  -1648693.25521
  20879095.408      223320.271 5   2664960.69421
  19668286.471   -22864937.747 7 -11331100.25122
 91  4 18 23  3 29.9940000  0  5G15G 2G13G19G 6
  22095376.088    -3944237.195 5  -2972053.54921
  19134935.775    -2968645.372 7  -2274069.38223
  21984651.713    -2629458.191 5  -1705111.25021
  20883256.3694     245151.58546   2681972.03362
  19660512.4714  -22905787.97347 -11362931.55462
 91  4 18 23  3 44.9940000  0  5G15G 2G13G19G 6
  22088745.580    -3979071.353 5  -2999196.95721
  19131664.908    -2985829.917 7  -2287459.91423
  21970882.846    -2701824.957 5  -1761500.56521
  20887418.0414     267045.55245   2699032.19261
  19652746.010   -22946598.997 7 -11394732.31222
 91  4 18 23  3 59.9940000  0  5G15G 2G13G19G 6
  22082138.3304   -4013805.91245  -3026262.73361
  19128404.135    -3002965.497 7  -2300812.29823
  21957118.049    -2774153.337 5  -1817859.98621
  20891599.5654     289003.42346   2716142.13561
  19644988.838   -22987369.214 7 -11426501.26322
 91  4 18 23  4 14.9940000  0  5G15G 2G13G19G 6
  22075551.221    -4048433.127 5  -3053244.86821
  19125154.330    -3020045.024 7  -2314121.00123
  21943360.760    -2846435.629 5  -1874183.47721
  20895787.4944     311032.13745   2733307.32462
  19637237.494   -23028091.255 7 -11458232.68522
 91  4 18 23  4 29.9940000  0  5G15G 2G13G19G 6
  22068981.9634   -4082960.98745  -3080149.59261
  19121913.025    -3037076.957 7  -2327392.61623
  21929613.963    -2918679.715 5  -1930477.22521
  20899994.908      333123.359 5   2750521.17121
  19629496.861   -23068773.284 7 -11489932.92222
 91  4 18 23  4 44.9940000  0  5G15G 2G13G19G 6
  22062429.041    -4117385.036 5  -3106973.43121
  19118681.525    -3054056.916 7  -2340623.73423
  21915873.6504   -2990880.86545  -1986737.51761
  20904210.2604     355281.40745   2767787.12661
  19621763.861   -23109410.674 7 -11521598.38322
 91  4 18 23  4 59.9940000  0  5G15G 2G13G19G 6
  22055895.885    -4151709.125 5  -3133719.36521
  19115460.557    -3070989.084 7  -2353817.60523
  21902140.6584   -3063043.03545  -2042967.42661
  20908437.268      377502.084 5   2785101.86221
  19614039.088   -23150007.261 7 -11553232.04222
 91  4 18 23  5 14.9940000  0  5G15G 2G13G19G 6
  22049384.6744   -4185930.55345  -3160385.29461
  19112247.158    -3087871.240 7  -2366972.51024
  21888418.947    -3135163.610 5  -2099164.90821
  20912681.229      399787.600 6   2802467.11921
  19606321.322   -23190560.599 7 -11584832.00322
 91  4 18 23  5 29.9940000  0  5G15G 2G13G19G 6
  22042887.4794   -4220047.64145  -3186969.93661
  19109044.244    -3104701.869 7  -2380087.26224
  21874701.291    -3207240.636 5  -2155328.49721
  20916930.768      422139.473 6   2819884.10021
  19598613.361   -23231068.783 7 -11616396.78222
 91  4 18 23  5 44.9940000  0  5G15G 2G13G19G 6
  22036418.2214   -4254061.31645  -3213473.98061
  19105851.791    -3121482.299 7  -2393162.89923
  21860992.9864   -3279274.84045  -2211458.69061
  20921199.5184     444556.45046   2837351.78561
  19590912.6434  -23271532.92447 -11647927.23762
 91  4 18 23  5 59.9940000  0  5G15G 2G13G19G 6
  22029966.494    -4287973.468 5  -3239898.91021
  19102666.361    -3138214.747 7  -2406201.14524
  21847292.2294   -3351268.20745  -2267557.10361
  20925476.0334     467035.98745   2854868.24761
  19583220.627   -23311954.980 7 -11679424.90322
 91  4 18 23  6 14.9940000  0  5G15G 2G13G19G 6
  22023536.1974   -4321773.55945  -3266236.55461
  19099493.658    -3154889.004 7  -2419194.04923
  21833603.5724   -3423210.06145  -2323615.35261
  20929767.322      489588.413 5   2872441.48121
  19575537.8544  -23352324.41647 -11710881.56463
 91  4 18 23  6 29.9940000  0  5G15G 2G13G19G 6
  22017119.908    -4355463.982 5  -3292488.72921
  19096331.236    -3171507.890 7  -2432143.80724
  21819924.510    -3495102.620 5  -2379635.20621
  20934071.8154     512210.95445   2890069.37661
  19567866.5184  -23392643.61647 -11742299.08063
 91  4 18 23  6 44.9940000  0  5G15G 2G13G19G 6
  22010730.6194   -4389051.70945  -3318660.84861
  19093178.291    -3188078.701 7  -2445056.10024
  21806248.393    -3566952.933 5  -2435622.15521
  20938391.4324     534896.05745   2907745.99961
  19560201.705   -23432919.922 7 -11773683.17023
 91  4 18 23  6 59.9940000  0  5G15G 2G13G19G 6
  22004361.7364   -4422533.34945  -3344750.34961
  19090035.119    -3204598.411 7  -2457928.57823
  21792583.7364   -3638757.47045  -2491573.43861
  20942718.400      557646.861 5   2925473.83921
  19552545.815   -23473149.781 7 -11805031.07522
 91  4 18 23  7 14.9940000  0  5G15G 2G13G19G 6
  21998011.674    -4455907.127 5  -3370755.77821
  19086899.986    -3221065.482 7  -2470760.03724
  21778930.7604   -3710514.35045  -2547487.57461
  20947061.174      580465.056 5   2943254.17621
  19544900.908   -23513331.367 7 -11836341.35523
 91  4 18 23  7 29.9940000  0  5G15G 2G13G19G 6
  21991679.088    -4489174.832 5  -3396678.56521
  19083776.674    -3237482.655 7  -2483552.61924
  21765282.213    -3782225.789 5  -2603366.27721
  20951417.994      603347.877 5   2961084.86821
  19537261.783   -23553467.147 7 -11867615.94523
 91  4 18 23  7 44.9940000  0  5G15G 2G13G19G 6
  21985366.6904   -4522338.68045  -3422520.42461
  19080661.940    -3253852.023 7  -2496307.95024
  21751645.0804   -3853893.42145  -2659210.87361
  20955782.3074     626293.28745   2978964.33961
  19529632.994   -23593558.782 7 -11898856.13623
 91  4 18 23  7 59.9940000  0  5G15G 2G13G19G 6
  21979079.2054   -4555395.03845  -3448278.52861
  19077556.377    -3270170.284 7  -2509023.45724
  21738016.713    -3925513.657 5  -2715018.53821
  20960162.565      649304.535 5   2996895.11221
  19522013.588   -23633602.802 7 -11930059.22423
 91  4 18 23  8 14.9940000  0  5G15G 2G13G19G 6
  21972804.502    -4588345.723 5  -3473954.29321
  19074461.752    -3286439.533 7  -2521700.77324
  21724396.2994   -3997088.16545  -2770790.57661
  20964551.861      672379.558 5   3014875.55421
  19514400.9324  -23673600.90547 -11961226.53663
 91  4 18 23  8 29.9940000  0  5G15G 2G13G19G 6
  21966555.275    -4621189.369 5  -3499546.62421
  19071374.346    -3302659.009 7  -2534339.30523
  21710784.760    -4068615.519 5  -2826525.91221
  20968955.861      695519.104 5   3032906.30821
  19506798.4324  -23713552.02647 -11992357.23963
 91  4 18 23  8 44.9940000  0  5G15G 2G13G19G 6
  21960329.002    -4653921.909 6  -3525052.42021
  19068297.729    -3318824.525 7  -2546935.79424
  21697185.533    -4140091.556 5  -2882221.17921
  20973373.721      718727.055 5   3050990.33521
  19499205.854   -23753451.943 7 -12023448.03923
 91  4 18 23  8 59.9940000  0  5G15G 2G13G19G 6
  21954116.9714   -4686548.70745  -3550475.81861
  19065230.440    -3334941.953 7  -2559494.81024
  21683590.2054   -4211521.41045  -2937880.55261
  20977800.2914     741997.71445   3069123.25261
  19491622.205   -23793306.058 7 -12054503.15223
 91  4 18 23  9 14.9940000  0  5G15G 2G13G19G 6
  21947930.4244   -4719065.16645  -3575813.19561
  19062173.955    -3351007.111 7  -2572013.09623
  21670006.377    -4282900.583 5  -2993500.35721
  20982243.1194     765335.24245   3087308.24861
  19484046.7134  -23833109.98647 -12085519.16063
 91  4 18 23  9 29.9940000  0  5G15G 2G13G19G 6
  21941766.229    -4751472.220 6  -3601065.33021
  19059126.572    -3367021.009 7  -2584491.44224
  21656433.4084   -4354229.52345  -3049081.07761
  20986692.9714     788738.52145   3105544.51061
  19476482.377   -23872864.394 7 -12116496.57523
 91  4 18 23  9 44.9940000  0  5G15G 2G13G19G 6
  21935617.5334   -4783767.81745  -3626230.65461
  19056090.002    -3382982.278 7  -2596928.78023
  21642869.8154   -4425506.47445  -3104621.24161
  20991162.190      812208.961 5   3123833.08121
  19468928.065   -23912567.537 7 -12147434.04523
 91  4 18 23  9 59.9940000  0  5G15G 2G13G19G 6
  21929492.5104   -4815947.44745  -3651305.60261
  19053063.182    -3398886.382 7  -2609321.56823
  21629318.346    -4496726.699 5  -3160117.25121
  20995641.0414     835750.86445   3142177.35861
  19461382.658   -23952214.732 7 -12178327.91523
 91  4 18 23 10 14.9940000  0  5G15G 2G13G19G 6
  21923391.346    -4848018.742 5  -3676296.12521
  19050045.275    -3414741.537 7  -2621676.21524
  21615772.7134   -4567898.08645  -3215575.17661
  21000134.822      859356.126 5   3160570.98221
  19453846.768   -23991813.867 7 -12209184.34523
 91  4 18 23 10 29.9940000  0  5G15G 2G13G19G 6
  21917309.4474   -4879981.71046  -3701202.24561
  19047037.533    -3430548.051 7  -2633992.96424
  21602238.244    -4639020.574 5  -3270994.98021
  21004636.190      883024.484 5   3179013.78521
  19446321.182   -24031364.791 7 -12240003.20023
 91  4 18 23 10 44.9940000  0  5G15G 2G13G19G 6
  21911247.0724   -4911832.11345  -3726020.63261
  19044040.182    -3446301.979 7  -2646268.73724
  21588715.354    -4710089.523 5  -3326373.11921
  21009154.721      906759.875 5   3197508.80921
  19438804.065   -24070863.319 7 -12270781.22523
 91  4 18 23 10 59.9940000  0  5G15G 2G13G19G 6
  21905209.6584   -4943571.52946  -3750752.58061
  19041051.893    -3462005.127 7  -2658504.94324
  21575202.7364   -4781106.49045  -3381710.71961
  21013683.5574     930560.42645   3216054.63261
  19431297.940   -24110311.137 7 -12301519.74123
 91  4 18 23 11 14.9940000  0  5G15G 2G13G19G 6
  21899190.369    -4975202.366 6  -3775399.88721
  19038072.604    -3477660.612 7  -2670704.00823
  21561696.1274   -4852073.78645  -3437009.61561
  21018225.0804     954423.15645   3234648.87561
  19423800.361   -24149710.684 7 -12332220.64123
 91  4 18 23 11 29.9940000  0  5G15G 2G13G19G 6
  21893194.486    -5006720.493 6  -3799959.35821
  19035103.096    -3493264.504 7  -2682862.87123
  21548201.0414   -4922987.44445  -3492266.71561
  21022776.2054     978351.67845   3253294.40661
  19416312.697   -24189058.039 7 -12362880.87223
 91  4 18 23 11 44.9940000  0  5G15G 2G13G19G 6
  21887215.8694   -5038131.09546  -3824435.07961
  19032142.1194   -3508822.17147  -2694985.71564
  21534716.8774   -4993852.37545  -3547485.83961
  21027342.752     1002340.696 5   3271987.07421
  19408832.666   -24228358.158 7 -12393504.29523
 91  4 18 23 11 59.9940000  0  5G15G 2G13G19G 6
  21881260.650    -5069433.600 6  -3848826.53121
  19029190.916    -3524333.160 7  -2707072.18623
  21521239.4404   -5064667.62245  -3602666.27361
  21031917.611     1026390.682 5   3290727.23521
  19401364.705   -24267610.318 7 -12424090.34123
 91  4 18 23 12 14.9940000  0  5G15G 2G13G19G 6
  21875321.7054   -5100618.79046  -3873126.59961
  19026249.2444   -3539788.69747  -2719115.45163
  21507775.2834   -5135424.13245  -3657800.92761
  21036508.736     1050510.206 5   3309521.59121
  19393906.025   -24306805.531 7 -12454632.01723
 91  4 18 23 12 29.9940000  0  5G15G 2G13G19G 6
  21869410.3074   -5131695.38546  -3897342.03361
  19023318.3934   -3555198.11847  -2731122.78363
  21494318.3694   -5206130.64945  -3712896.63961
  21041110.143     1074690.128 5   3328363.00421
  19386456.955   -24345952.736 7 -12485136.27923
 91  4 18 23 12 44.9940000  0  5G15G 2G13G19G 6
  21863519.002    -5162656.777 6  -3921467.69221
  19020394.6434   -3570554.79847  -2743089.01563
  21480876.4474   -5276780.12045  -3767947.86061
  21045724.744     1098937.013 5   3347256.61021
  19379016.768   -24385045.002 7 -12515597.73423
 91  4 18 23 12 59.9940000  0  5G15G 2G13G19G 6
  21857649.1974   -5193504.35046  -3945504.67661
  19017482.4554   -3585860.44147  -2755015.48663
  21467440.2994   -5347374.10145  -3822955.90361
  21050353.494     1123248.978 5   3366200.91721
  19371588.010   -24424083.838 7 -12546017.55523
 91  4 18 23 13 14.9940000  0  5G15G 2G13G19G 6
  21851797.416    -5224241.245 6  -3969455.40421
  19014579.3774   -3601118.67747  -2766905.01463
  21454018.697    -5417915.751 5  -3877923.10821
  21054990.088     1147622.428 5   3385193.14121
  19364168.658   -24463072.444 7 -12576398.24023
 91  4 18 23 13 29.9940000  0  5G15G 2G13G19G 6
  21845973.229    -5254861.679 6  -3993315.39521
  19011685.0964   -3616323.66047  -2778753.04563
  21440604.408    -5488398.951 5  -3932844.81521
  21059640.619     1172063.161 5   3404237.78721
  19356759.619   -24502004.847 7 -12606735.13023
 91  4 18 23 13 44.9940000  0  5G15G 2G13G19G 6
  21840166.119    -5285368.221 6  -4017086.62821
  19008802.2364   -3631478.54547  -2790562.04063
  21427204.0024   -5558826.43545  -3987723.08061
  21064301.713     1196567.805 5   3423332.24121
  19349361.908   -24540883.919 7 -12637030.46623
 91  4 18 23 13 59.9940000  0  5G15G 2G13G19G 6
  21834381.4634   -5315762.75746  -4040770.58861
  19005926.4324   -3646585.63147  -2802333.79063
  21413811.861    -5629199.926 5  -4042559.27821
  21068976.986     1221134.346 5   3442474.90921
  19341973.346   -24579711.451 7 -12667285.64023
 91  4 18 23 14 14.9940000  0  5G15G 2G13G19G 6
  21828621.5724   -5346038.32346  -4064361.86461
  19003062.6824   -3661638.38247  -2814063.20064
  21400430.7754   -5699512.28145  -4097347.83461
  21073665.799     1245769.185 5   3461670.82021
  19334595.619   -24618480.601 7 -12697495.32323
 91  4 18 23 14 29.9940000  0  5G15G 2G13G19G 6
  21822881.822    -5376198.128 6  -4087862.89821
  19000208.2054   -3676639.85947  -2825752.65863
  21387059.0184   -5769766.34045  -4152091.00561
  21078365.025     1270469.046 5   3480917.38121
  19327228.799   -24657194.392 7 -12727661.87223
 91  4 18 23 14 44.9940000  0  5G15G 2G13G19G 6
  21817161.1044   -5406241.81346  -4111273.47861
  18997363.5104   -3691590.05547  -2837402.15764
  21373704.018    -5839961.922 5  -4206788.57621
  21083078.0724    1295233.87045   3500214.55561
  19319872.9944  -24695852.42847 -12757784.98063
 91  4 18 23 14 59.9940000  0  5G15G 2G13G19G 6
  21811468.3384   -5436171.57646  -4134595.27461
  18994527.6044   -3706491.55347  -2849013.71264
  21360356.3304   -5910101.11745  -4261442.21961
  21087800.4084    1320061.18645   3519560.42461
  19312525.260   -24734456.937 7 -12787866.37423
 91  4 18 23 15 14.9940000  0  5G15G 2G13G19G 6
  21805795.2754   -5465986.85445  -4157827.86261
  18991700.6824   -3721344.21647  -2860587.20664
  21347018.4164   -5980183.16545  -4316051.34961
  21092541.705     1344951.262 5   3538955.20721
  19305191.1744  -24773007.42647 -12817905.67563
 91  4 18 23 15 29.9940000  0  5G15G 2G13G19G 6
  21800143.0884   -5495686.63246  -4180970.45461
  18988884.3614   -3736147.15247  -2872121.95564
  21333695.4404   -6050206.85245  -4370614.98461
  21097286.6194    1369904.82545   3558399.45761
  19297865.3224  -24811502.65547 -12847901.92263
 91  4 18 23 15 44.9940000  0  5G15G 2G13G19G 6
  21794511.377    -5525273.430 6  -4204025.02521
  18986076.3464   -3750903.24447  -2883620.20364
  21320379.1114   -6120174.72745  -4425135.14561
  21102051.299     1394918.809 5   3577890.77521
  19290549.1194  -24849945.41647 -12877857.28763
 91  4 18 23 15 59.9940000  0  5G15G 2G13G19G 6
  21788904.752    -5554741.568 5  -4226987.12421
  18983277.7214   -3765607.03547  -2895077.69964
  21307076.190    -6190080.875 5  -4479607.22121
  21106822.7834    1419998.74045   3597433.50161
  19283244.7444  -24888329.71647 -12907767.10263
 91  4 18 23 16 14.9940000  0  5G15G 2G13G19G 6
  21783320.6744   -5584091.45245  -4249857.06561
  18980489.6274   -3780259.54647  -2906495.23564
  21293785.9554   -6259926.05345  -4534031.75561
  21111606.5494    1445143.60445   3617026.81261
  19275951.307   -24926656.403 7 -12937632.02423
 91  4 18 23 16 29.9940000  0  5G15G 2G13G19G 6
  21777757.072    -5613321.413 5  -4272633.58821
  18977711.3224   -3794859.14247  -2917871.53664
  21280505.775    -6329708.057 5  -4588407.10521
  21116402.416     1470354.949 5   3636671.93621
  19268670.2364  -24964923.55647 -12967450.55263
 91  4 18 23 16 44.9940000  0  5G15G 2G13G19G 6
  21772217.0184   -5642433.92045  -4295318.56361
  18974943.4244   -3809408.75647  -2929208.88963
  21267239.2364   -6399429.35945  -4642735.14661
  21121216.268     1495629.816 5   3656366.53521
  19261399.1584  -25003133.78547 -12997224.72863
 91  4 18 23 16 59.9940000  0  5G15G 2G13G19G 6
  21766699.3304   -5671427.26545  -4317910.68661
  18972183.8694   -3823906.88547  -2940506.13064
  21253982.080    -6469088.253 5  -4697014.53421
  21126038.275     1520969.360 5   3676111.55621
  19254138.4794  -25041285.28447 -13026953.14463
 91  4 18 23 17 14.9940000  0  5G15G 2G13G19G 6
  21761204.580    -5700301.701 5  -4340410.16521
  18969434.3074   -3838353.92147  -2951763.55364
  21240739.440    -6538684.573 5  -4751245.22021
  21130871.8304    1546373.59345   3695906.96361
  19246890.361   -25079378.127 7 -13056635.85223
 91  4 18 23 17 29.9940000  0  5G15G 2G13G19G 6
  21755731.721    -5729052.917 5  -4362813.61821
  18966696.4474   -3852745.88647  -2962978.06564
  21227507.9244   -6608214.10545  -4805423.81961
  21135717.0104    1571846.31445   3715755.75561
  19239653.377   -25117407.996 7 -13086269.49323
 91  4 18 23 17 44.9940000  0  5G15G 2G13G19G 6
  21750287.291    -5757683.746 6  -4385123.27921
  18963967.9634   -3867086.08647  -2974152.24164
  21214288.5184   -6677679.51845  -4859552.48161
  21140576.5964    1597384.03445   3735655.18561
  19232428.7294  -25155378.02947 -13115856.50263
 91  4 18 23 17 59.9940000  0  5G15G 2G13G19G 6
  21744858.6354   -5786196.70745  -4407341.08261
  18961248.0104   -3881377.24747  -2985288.20364
  21201080.9084   -6747083.23145  -4913633.04861
  21145448.690     1622984.007 5   3755603.13821
  19225214.182   -25193290.492 7 -13145398.65823
 91  4 18 23 18 14.9940000  0  5G15G 2G13G19G 6
  21739456.533    -5814590.255 6  -4429465.83721
  18958538.1194   -3895617.88447  -2996384.79864
  21187884.1194   -6816423.54445  -4967664.24561
  21150332.104     1648647.603 5   3775600.64621
  19218008.775   -25231143.753 7 -13174894.68023
 91  4 18 23 18 29.9940000  0  5G15G 2G13G19G 6
  21734076.838    -5842862.507 5  -4451496.09821
  18955838.9404   -3909806.69947  -3007441.00964
  21174703.6434   -6885698.72645  -5021644.62861
  21155229.0334    1674376.22045   3795648.82761
  19210816.658   -25268936.166 7 -13204343.29123
 91  4 18 23 18 44.9940000  0  5G15G 2G13G19G 6
  21728718.0804   -5871017.95745  -4473435.33861
  18953146.8224   -3923948.40547  -3018460.51064
  21161532.8934   -6954912.81245  -5075577.45861
  21160136.0574    1700165.27545   3815744.12261
  19203636.650   -25306672.007 7 -13233747.81823
 91  4 18 23 18 59.9940000  0  5G15G 2G13G19G 6
  21723383.783    -5899051.180 5  -4495279.32021
  18950465.3774   -3938037.96247  -3029439.37864
  21148374.9864   -7024060.41845  -5129458.47561
  21165055.5494    1726019.62245   3835890.27061
  19196467.830   -25344345.926 7 -13263104.10123
 91  4 18 23 19 14.9940000  0  5G15G 2G13G19G 6
  21718074.291    -5926960.452 6  -4517026.71421
  18947794.8464   -3952073.84847  -3040376.42564
  21135226.971    -7093139.607 5  -5183286.17921
  21169989.713     1751940.630 5   3856088.37021
  19189310.072   -25381956.216 7 -13292410.79623
 91  4 18 23 19 29.9940000  0  5G15G 2G13G19G 6
  21712787.0184   -5954752.30846  -4538682.64461
  18945132.6974   -3966062.64647  -3051276.77364
  21122095.994    -7162156.950 5  -5237065.71621
  21174933.502     1777921.680 5   3876333.24021
  19182164.729   -25419509.165 7 -13321672.80823
 91  4 18 23 19 44.9940000  0  5G15G 2G13G19G 6
  21707518.2444   -5982423.01545  -4560244.15661
  18942480.4004   -3980001.02647  -3062137.84164
  21108974.049    -7231108.402 5  -5290793.89721
  21179890.104     1803965.900 5   3896627.36321
  19175030.6824  -25457001.13147 -13350887.30063
 91  4 18 23 19 59.9940000  0  5G15G 2G13G19G 6
  21702278.354    -6009970.722 5  -4581709.82921
  18939837.8464   -3993887.45047  -3072958.42164
  21095865.4084   -7299991.88445  -5344469.11761
  21184859.6904    1830074.95445   3916971.98261
  19167907.7294  -25494430.14947 -13380052.74363
 91  4 18 23 20 14.9940000  0  5G15G 2G13G19G 6
  21697058.252    -6037394.400 5  -4603078.85821
  18937205.291    -4007721.264 7  -3083738.00524
  21082769.1194   -7368806.85845  -5398090.96961
  21189841.315     1856249.378 5   3937367.55621
  19160797.3224  -25531795.46747 -13409168.54363
 91  4 18 23 20 29.9940000  0  5G15G 2G13G19G 6
  21691864.557    -6064691.184 5  -4624349.01621
  18934583.244    -4021499.690 7  -3094474.42924
  21069688.3304   -7437549.95845  -5451656.79361
  21194833.440     1882491.993 5   3957816.24321
  19153698.6664  -25569093.84147 -13438232.18463
 91  4 18 23 20 44.9940000  0  5G15G 2G13G19G 6
  21686691.6824   -6091862.71745  -4645521.56761
  18931971.650    -4035224.711 7  -3105169.23424
  21056619.5884   -7506222.74245  -5505167.85661
  21199839.354     1908800.475 5   3978316.28421
  19146614.565   -25606327.037 7 -13467245.03523
 91  4 18 23 20 59.9940000  0  5G15G 2G13G19G 6
  21681544.2604   -6118912.45745  -4666599.21761
  18929368.580    -4048899.973 7  -3115825.27024
  21043566.104    -7574828.518 5  -5558626.69821
  21204856.025     1935171.290 5   3998864.87221
  19139541.3224  -25643498.49847 -13496209.77663
 91  4 18 23 21 14.9940000  0  5G15G 2G13G19G 6
  21676421.065    -6145837.019 5  -4687579.31421
  18926776.830    -4062522.330 7  -3126440.08024
  21030520.783    -7643363.799 5  -5612030.61521
  21209887.5494    1961607.43845   4019464.37161
  19132481.0414  -25680604.70747 -13525123.67663
 91  4 18 23 21 29.9940000  0  5G15G 2G13G19G 6
  21671322.174    -6172634.517 5  -4708460.41321
  18924194.065    -4076090.241 8  -3137012.46524
  21017494.7914   -7711826.61845  -5665378.07161
  21214932.9324    1988110.33945   4040115.89561
  19125432.2684  -25717643.75547 -13553985.24163
 91  4 18 23 21 44.9940000  0  5G15G 2G13G19G 6
  21666248.275    -6199305.779 5  -4729243.14021
  18921623.424    -4089604.468 7  -3147543.01824
  21004480.752    -7780217.188 5  -5718669.23021
  21219988.0184    2014679.14745   4060818.76661
  19118395.5964  -25754616.26547 -13582794.95263
 91  4 18 23 21 59.9940000  0  5G15G 2G13G19G 6
  21661194.2134   -6225851.48645  -4749928.04861
  18919061.682    -4103066.421 7  -3158032.83924
  20991478.330    -7848536.535 5  -5771904.87921
  21225054.447     2041312.673 5   4081572.07421
  19111371.4714  -25791523.13547 -13611553.51463
 91  4 18 23 22 14.9930000  0  5G15G 2G13G19G 6
  21656164.3804   -6252278.39445  -4770520.37361
  18916508.177    -4116483.901 7  -3168488.00424
  20978492.7634   -7916788.31245  -5825087.87861
  21230134.8884    2068000.43945   4102367.64461
  19104361.1224  -25828370.32147 -13640265.56963
 91  4 18 23 22 29.9930000  0  5G15G 2G13G19G 6
  21651158.9424   -6278583.00045  -4791017.38661
  18913963.372    -4129851.934 7  -3178904.64024
  20965515.911    -7984974.651 6  -5878219.90121
  21235221.7084    2094752.58545   4123213.37961
  19097361.3024  -25865155.69247 -13668929.45763
 91  4 18 23 22 44.9930000  0  5G15G 2G13G19G 6
  21646179.9824   -6304758.34245  -4811413.69461
  18911430.9664   -4143164.61348  -3189278.14463
  20952555.849    -8053085.350 5  -5931292.97721
  21240327.9504    2121572.34645   4144111.80161
  19090373.9744  -25901871.35747 -13697539.02663
 91  4 18 23 22 59.9930000  0  5G15G 2G13G19G 6
  21641221.810    -6330813.727 6  -4831716.52821
  18908906.341    -4156431.645 7  -3199616.07824
  20939606.708    -8121129.934 5  -5984314.52121
  21245441.396     2148449.853 5   4165055.20421
  19083398.2474  -25938526.92047 -13726101.76063
 91  4 18 23 23 14.9930000  0  5G15G 2G13G19G 6
  21636287.9664   -6356745.09746  -4851922.71761
  18906391.427    -4169648.932 8  -3209915.24923
  20926669.497    -8189104.127 5  -6037281.24421
  21250569.419     2175389.158 5   4186046.77021
  19076435.997   -25975117.939 7 -13754614.20423
 91  4 18 23 23 29.9930000  0  5G15G 2G13G19G 6
  21631378.724    -6382547.941 6  -4872028.75621
  18903886.857    -4182812.386 8  -3220172.47524
  20913750.1694   -8257003.21045  -6090189.39861
  21255708.099     2202394.390 5   4207089.69121
  19069485.067   -26011639.874 7 -13783072.81323
 91  4 18 23 23 44.9930000  0  5G15G 2G13G19G 6
  21626491.607    -6408229.791 6  -4892040.52221
  18901389.942    -4195929.521 8  -3230393.60324
  20900840.880    -8324834.355 5  -6143044.65121
  21260856.1224    2229457.62945   4228177.83061
  19062548.255   -26048100.212 7 -13811483.42223
 91  4 18 23 23 59.9930000  0  5G15G 2G13G19G 6
  21621627.7394   -6433782.92746  -4911951.97461
  18898904.0134   -4208993.22047  -3240573.10264
  20887948.7944   -8392590.12645  -6195841.15961
  21266018.544     2256586.091 5   4249316.77421
  19055622.9194  -26084491.38747 -13839840.14163
 91  4 18 23 24 14.9930000  0  5G15G 2G13G19G 6
  21616790.419    -6459207.467 6  -4931763.22821
  18896428.0674   -4222004.04148  -3250711.39964
  20875069.294    -8460270.607 5  -6248578.99821
  21271196.4894    2283779.16545   4270506.07961
  19048710.364   -26120813.647 7 -13868143.16023
 91  4 18 23 24 29.9930000  0  5G15G 2G13G19G 6
  21611972.716    -6484508.502 6  -4951478.25121
  18893961.0754   -4234967.10247  -3260812.47764
  20862204.310    -8527880.601 6  -6301261.90121
  21276378.396     2311031.808 5   4291741.79621
  19041810.747   -26157071.654 7 -13896396.11223
 91  4 18 23 24 44.9930000  0  5G15G 2G13G19G 6
  21607183.4584   -6509683.46346  -4971095.04061
  18891504.1774   -4247880.30348  -3270874.70663
  20849351.8024   -8595417.48746  -6353887.84861
  21281579.310     2338346.186 5   4313025.61321
  19034923.1304  -26193262.98547 -13924597.11063
 91  4 18 23 24 59.9930000  0  5G15G 2G13G19G 6
  21602416.5604   -6534733.85346  -4990614.76661
  18889056.0054   -4260745.00347  -3280899.14264
  20836513.4504   -8662882.26346  -6406457.59561
  21286787.3414    2365720.55945   4334356.19461
  19028048.5444  -26229388.83947 -13952747.08563
 91  4 18 23 25 14.9930000  0  5G15G 2G13G19G 6
  21597670.653    -6559659.589 5  -5010037.34621
  18886616.9744   -4273561.44247  -3290885.97264
  20823688.3174   -8730274.88546  -6458971.14961
  21292010.4274    2393154.62045   4355733.26261
  19021186.5214  -26265449.23047 -13980846.05763
 91  4 18 23 25 29.9930000  0  5G15G 2G13G19G 6
  21592952.9744   -6584461.19046  -5029363.21461
  18884187.3414   -4286330.41048  -3300835.81264
  20810878.997    -8797595.929 6  -6511428.90421
  21297241.5604    2420647.39245   4377156.10361
  19014336.6534  -26301444.59847 -14008894.35763
 91  4 18 23 25 44.9930000  0  5G15G 2G13G19G 6
  21588260.3334   -6609127.68346  -5048583.77561
  18881769.6304   -4299041.24347  -3310740.35063
  20798083.739    -8864834.190 6  -6563822.14521
  21302486.8724    2448209.51645   4398632.95261
  19007501.4974  -26337364.06447 -14036883.52063
 91  4 18 23 25 59.9930000  0  5G15G 2G13G19G 6
  21583588.966    -6633668.420 6  -5067706.37421
  18879358.9354   -4311703.50147  -3320607.04164
  20785302.2084   -8931998.92446  -6616158.11261
  21307742.638     2475831.548 5   4420156.49321
  19000679.6224  -26373216.87647 -14064820.74063
 91  4 18 23 26 14.9930000  0  5G15G 2G13G19G 6
  21578944.0214   -6658084.43246  -5086731.78261
  18876958.2244   -4324317.98547  -3330436.50464
  20772534.4664   -8999090.51946  -6668437.07261
  21313010.013     2503512.548 5   4441726.00721
  18993869.3574  -26409003.50947 -14092706.39563
 91  4 18 23 26 29.9930000  0  5G15G 2G13G19G 6
  21574323.591    -6682361.234 6  -5105648.71321
  18874570.0284   -4336870.59047  -3340217.75364
  20759782.1144   -9066094.55046  -6720647.81661
  21318291.5214    2531266.55745   4463352.37061
  18987074.8104  -26444709.52547 -14120529.23063
 91  4 18 23 26 44.9930000  0  5G15G 2G13G19G 6
  21569727.552    -6706510.858 6  -5124466.54721
  18872190.6694   -4349373.68747  -3349960.42663
  20747048.192    -9133023.043 6  -6772799.69521
  21323587.6774    2559081.03445   4485025.87561
  18980293.3884  -26480346.91347 -14148298.59263
 91  4 18 23 26 59.9930000  0  5G15G 2G13G19G 6
  21565156.2784   -6730536.32646  -5143187.62361
  18869820.1464   -4361830.74047  -3359667.21964
  20734325.825    -9199879.036 6  -6824895.07321
  21328888.419     2586952.323 5   4506743.64621
  18973524.6694  -26515918.90947 -14176017.00163
 91  4 18 23 27 14.9930000  0  5G15G 2G13G19G 6
  21560605.4664   -6754432.97745  -5161808.33061
  18867459.5524   -4374237.29247  -3369334.66164
  20721617.1614   -9266657.38746  -6876929.95161
  21334203.935     2614885.076 5   4528509.32621
  18966767.3414  -26551420.66047 -14203680.67563
 91  4 18 23 27 29.9930000  0  5G15G 2G13G19G 6
  21556086.8414   -6778200.09546  -5180328.09261
  18865108.2244   -4386592.82247  -3378962.34663
  20708923.810    -9333357.583 6  -6928903.94521
  21339531.435     2642879.586 5   4550323.11321
  18960026.294   -26586851.604 7 -14231289.17523
 91  4 18 23 27 44.9930000  0  5G15G 2G13G19G 6
  21551589.692    -6801837.319 6  -5198746.66521
  18862766.4354   -4398897.13347  -3388550.12164
  20696245.1074   -9399979.22646  -6980816.70461
  21344870.8494    2670935.87045   4572185.03361
  18953297.677   -26622211.096 7 -14258842.00523
 91  4 18 23 27 59.9930000  0  5G15G 2G13G19G 6
  21547112.2784   -6825348.93246  -5217067.34061
  18860434.0754   -4411154.79147  -3398101.54163
  20683583.677    -9466526.065 6  -7032671.16921
  21350221.419     2699049.366 5   4594091.55621
  18946581.599   -26657503.282 7 -14286342.38723
 91  4 18 23 28 14.9930000  0  5G15G 2G13G19G 6
  21542664.5214   -6848730.44446  -5235286.65661
  18858110.9584   -4423361.49347  -3407613.25564
  20670932.810    -9532993.670 6  -7084463.91221
  21355582.817     2727224.321 5   4616045.94521
  18939879.716   -26692723.624 7 -14313786.78323
 91  4 18 23 28 29.9930000  0  5G15G 2G13G19G 6
  21538239.4584   -6871984.07346  -5253406.31461
  18855797.0284   -4435519.67647  -3417087.16164
  20658300.903    -9599384.032 6  -7136196.45321
  21360958.005     2755458.058 5   4638046.16121
  18933190.067   -26727874.413 7 -14341176.99023
 91  4 18 23 28 44.9930000  0  5G15G 2G13G19G 6
  21533839.692    -6895107.873 6  -5271424.79321
  18853493.8494   -4447627.87147  -3426522.11364
  20645682.505    -9665695.038 6  -7187867.17621
  21366339.2554    2783752.48945   4660093.65161
  18926514.067   -26762953.590 7 -14368511.39323
 91  4 18 23 28 59.9930000  0  5G15G 2G13G19G 6
  21529463.825    -6918100.456 6  -5289341.05321
  18851199.2324   -4459684.49847  -3435916.88564
  20633080.724    -9731925.155 6  -7239474.85521
  21371738.075     2812108.528 5   4682189.15821
  18919852.935   -26797959.439 7 -14395788.65823
 91  4 18 23 29 14.9930000  0  5G15G 2G13G19G 6
  21525114.4114   -6940960.07546  -5307153.67761
  18848914.5994   -4471688.25947  -3445270.46564
  20620490.755    -9798072.536 6  -7291018.07721
  21377143.8964    2840527.62145   4704333.79961
  18913205.880   -26832890.351 7 -14423007.52623
 91  4 18 23 29 29.9930000  0  5G15G 2G13G19G 6
  21520787.169    -6963690.017 6  -5324865.26721
  18846639.9824   -4483642.59547  -3454585.52764
  20607918.224    -9864140.404 6  -7342499.33121
  21382565.2944    2869006.23545   4726524.80861
  18906573.028   -26867749.435 7 -14450170.42223
 91  4 18 23 29 44.9930000  0  5G15G 2G13G19G 6
  21516487.7554   -6986290.10046  -5342475.65861
  18844374.1464   -4495547.53547  -3463862.09964
  20595362.146    -9930128.181 6  -7393918.18021
  21387991.474     2897544.197 5   4748762.07721
  18899953.278   -26902536.472 7 -14477277.18223
 91  4 18 23 29 59.9930000  0  5G15G 2G13G19G 6
  21512214.232    -7008755.909 6  -5359981.42521
  18842119.7864   -4507398.59447  -3473096.68464
  20582818.544    -9996031.256 6  -7445271.03721
  21393434.9504    2926145.92745   4771049.02261
  18893348.919   -26937246.752 7 -14504324.12923
 91  4 18 23 30 14.9930000  0  5G15G 2G13G19G 6
  21507960.9824   -7031087.59046  -5377382.67861
  18839874.2324   -4519196.47747  -3482289.83164
  20570294.9424  -10061849.92246  -7496558.11461
  21398891.1144    2954810.68945   4793385.08161
  18886757.685   -26971880.520 7 -14531311.45623
 91  4 18 23 30 29.9930000  0  5G15G 2G13G19G 6
  21503739.1534   -7053285.68046  -5394679.82361
  18837639.3254   -4530941.97547  -3491442.15664
  20557787.028   -10127584.602 6  -7547779.74921
  21404356.0994    2983537.77145   4815769.72261
  18880180.8174  -27006438.22147 -14558239.50963
 91  4 18 23 30 44.9930000  0  5G15G 2G13G19G 6
  21499539.325    -7075352.882 6  -5411874.99721
  18835413.489    -4542637.757 7  -3500555.74024
  20545293.4034  -10193237.43946  -7598937.61161
  21409835.310     3012324.201 5   4838200.59221
  18873619.0754  -27040922.36747 -14585110.24363
 91  4 18 23 30 59.9930000  0  5G15G 2G13G19G 6
  21495364.427    -7097287.303 6  -5428966.70621
  18833197.372    -4554282.345 7  -3509629.43424
  20532815.075   -10258806.588 6  -7650030.26121
  21415321.185     3041171.172 5   4860678.65021
  18867071.5914  -27075331.10647 -14611922.22063
 91  4 18 23 31 14.9930000  0  5G15G 2G13G19G 6
  21491216.732    -7119093.637 6  -5445958.59321
  18830989.278    -4565880.678 7  -3518667.07624
  20520352.224   -10324296.843 6  -7701061.43821
  21420827.513     3070073.784 5   4883200.04821
  18860536.6694  -27109669.10747 -14638679.06763
 91  4 18 23 31 29.9930000  0  5G15G 2G13G19G 6
  21487089.435    -7140766.108 5  -5462846.18521
  18828793.7324   -4577427.00247  -3527664.20464
  20507906.372   -10389701.911 6  -7752026.24621
  21426335.3644    3099037.90345   4905769.40161
  18854016.7714  -27143930.27047 -14665376.04163
 91  4 18 23 31 44.9930000  0  5G15G 2G13G19G 6
  21482991.536    -7162308.392 6  -5479632.33321
  18826605.8724   -4588925.36947  -3536623.96464
  20495475.528   -10455025.618 6  -7802927.64221
  21431859.1144    3128059.28745   4928383.35861
  18847510.9504  -27178118.43547 -14692016.13663
 91  4 18 23 31 59.9930000  0  5G15G 2G13G19G 6
  21478916.724    -7183717.099 6  -5496314.39021
  18824427.146    -4600372.475 7  -3545543.77024
  20483061.1384  -10520264.24746  -7853762.75561
  21437392.732     3157141.106 5   4951044.40721
  18841020.0134  -27212229.88047 -14718596.44763
 91  4 18 23 32 14.9930000  0  5G15G 2G13G19G 6
  21474868.6534   -7204993.66746  -5512893.47161
  18822258.396    -4611769.587 7  -3554424.61824
  20470662.060   -10585418.994 6  -7904532.50721
  21442938.8494    3186281.87044   4973751.39861
  18834544.224   -27246265.838 7 -14745117.93223
 91  4 18 23 32 29.9930000  0  5G15G 2G13G19G 6
  21470845.9974   -7226136.33146  -5529368.24161
  18820098.3964   -4623115.15647  -3563265.31264
  20458281.3884  -10650487.78446  -7955235.27761
  21448495.825     3215483.047 4   4996505.44221
  18828080.2394  -27280224.32547 -14771579.05063
 91  4 18 23 32 44.9930000  0  5G15G 2G13G19G 6
  21466847.505    -7247144.913 6  -5545738.51621
  18817949.364    -4634409.401 7  -3572066.00524
  20445914.075   -10715470.280 6  -8005870.80621
  21454065.0054    3244744.48445   5019306.43861
  18821633.8804  -27314105.19447 -14797979.68563
 91  4 18 23 32 59.9930000  0  5G15G 2G13G19G 6
  21462876.036    -7268014.179 6  -5562000.22421
  18815812.411    -4645647.396 7  -3580822.87224
  20433566.1534  -10780361.31246  -8056435.06661
  21459647.5214    3274071.06645   5042158.21561
  18815202.8644  -27347903.23647 -14824315.78763
 91  4 18 23 33 14.9930000  0  5G15G 2G13G19G 6
  21458929.435    -7288749.373 5  -5578157.48921
  18813683.4664   -4656834.47847  -3589540.06764
  20421234.4354  -10845165.97046  -8106932.01761
  21465237.0134    3303457.17045   5065056.35061
  18808784.7084  -27381623.49347 -14850591.27863
 91  4 18 23 33 29.9930000  0  5G15G 2G13G19G 6
  21455009.411    -7309351.536 5  -5594211.07121
  18811562.4034   -4667972.13347  -3598218.75664
  20408917.4584  -10909885.08946  -8157362.33561
  21470839.536     3332901.395 5   5087999.81121
  18802383.1534  -27415267.06747 -14876807.00963
 91  4 18 23 33 44.9930000  0  5G15G 2G13G19G 6
  21451114.622    -7329821.917 6  -5610161.96621
  18809453.6384   -4679061.62048  -3606859.90564
  20396618.036   -10974519.726 6  -8207726.81121
  21476453.3414    3362402.37245   5110987.46961
  18795995.9974  -27448834.88347 -14902963.71363
 91  4 18 23 33 59.9930000  0  5G15G 2G13G19G 6
  21447245.466    -7350157.880 6  -5626008.13121
  18807352.5524   -4690100.63247  -3615461.72764
  20384334.591   -11039067.089 6  -8258023.28321
  21482080.2164    3391962.23444   5134021.03861
  18789622.4424  -27482324.32447 -14929059.34063
 91  4 18 23 34 14.9930000  0  5G15G 2G13G19G 6
  21443401.1384   -7370365.39146  -5641754.20061
  18805259.6924   -4701095.02347  -3624028.77664
  20372067.544   -11103532.908 6  -8308256.22821
  21487712.6384    3421574.90644   5157095.74361
  18783263.8414  -27515741.14347 -14955098.38363
 91  4 18 23 34 29.9930000  0  5G15G 2G13G19G 6
  21439581.364    -7390439.319 6  -5657396.16921
  18803177.2554   -4712039.85847  -3632557.21164
  20359816.630   -11167912.054 6  -8358421.62721
  21493359.521     3451245.149 5   5180215.28821
  18776919.278   -27549080.107 7 -14981076.75923
 91  4 18 23 34 44.9930000  0  5G15G 2G13G19G 6
  21435784.5134   -7410380.61046  -5672934.80461
  18801103.4034   -4722936.37547  -3641047.99464
  20347582.153   -11232205.216 6  -8408520.03521
  21499016.9664    3480971.60245   5203378.66161
  18770589.8254  -27582342.12647 -15006995.17563
 91  4 18 23 34 59.9930000  0  5G15G 2G13G19G 6
  21432013.9664   -7430192.67446  -5688372.73761
  18799039.3574   -4733788.09947  -3649503.87364
  20335364.075   -11296415.737 6  -8458554.03221
  21504685.2864    3510750.81445   5226583.12061
  18764274.4974  -27615530.43047 -15032856.15263
 91  4 18 23 35 14.9930000  0  5G15G 2G13G19G 6
  21428269.5134   -7449869.42746  -5703705.24461
  18796983.4744   -4744589.07047  -3657920.21364
  20323161.224   -11360537.094 6  -8508518.57521
  21510362.5054    3540588.69145   5249833.31361
  18757974.6384  -27648638.76347 -15058654.82063
 91  4 18 23 35 29.9930000  0  5G15G 2G13G19G 6
  21424552.716    -7469414.237 6  -5718934.92521
  18794936.7554   -4755342.93347  -3666299.84664
  20310975.435   -11424572.590 6  -8558416.20321
  21516049.8574    3570481.41545   5273126.23461
  18751688.0134  -27681670.39447 -15084393.72463
 91  4 18 23 35 44.9930000  0  5G15G 2G13G19G 6
  21420856.310    -7488829.622 6  -5734063.75621
  18792899.9744   -4766052.36947  -3674644.86064
  20298804.817   -11488524.630 6  -8608248.81921
  21521748.2164    3600426.25344   5296459.75761
  18745417.0214  -27714627.77247 -15110074.76563
 91  4 18 23 35 59.9930000  0  5G15G 2G13G19G 6
  21417185.833    -7508110.568 5  -5749087.82721
  18790869.6384   -4776712.54547  -3682951.49264
  20286651.708   -11552387.860 6  -8658012.22121
  21527460.3884    3630427.81945   5319837.47761
  18739159.146   -27747505.631 7 -15135693.85323
 91  4 18 23 36 14.9930000  0  5G15G 2G13G19G 6
  21413544.9894   -7527256.36346  -5764006.56561
  18788851.6074   -4787323.09747  -3691219.45564
  20274516.9114  -11616161.96746  -8707706.17661
  21533178.130     3660486.633 4   5343259.81721
  18732919.2714  -27780303.24447 -15161250.40463
 91  4 18 23 36 29.9930000  0  5G15G 2G13G19G 6
  21409924.9034   -7546265.64146  -5778818.96161
  18786841.4744   -4797882.69447  -3699447.71564
  20262397.9584  -11679845.31146  -8757329.41861
  21538910.0134    3690603.67645   5366727.52761
  18726693.8724  -27813019.25147 -15186743.36863
 91  4 18 23 36 44.9930000  0  5G15G 2G13G19G 6
  21406337.607    -7565143.643 6  -5793529.04721
  18784841.7634   -4808396.66547  -3707640.42464
  20250296.482   -11743442.613 6  -8806885.62121
  21544649.2864    3720773.39044   5390236.27661
  18720482.122   -27845658.705 7 -15212176.68323
 91  4 18 23 36 59.9930000  0  5G15G 2G13G19G 6
  21402767.8254   -7583888.47646  -5808135.38161
  18782850.2944   -4818863.18347  -3715796.15564
  20238211.2864  -11806951.48246  -8856372.89961
  21550400.8884    3750997.61845   5413787.49861
  18714285.935   -27878219.312 7 -15237548.56623
 91  4 18 23 37 14.9930000  0  5G15G 2G13G19G 6
  21399224.317    -7602497.583 6  -5822635.93721
  18780866.9664   -4829279.91147  -3723913.09064
  20226141.786   -11870369.404 6  -8905789.32521
  21556165.591     3781278.612 5   5437382.95821
  18708105.966   -27910698.433 7 -15262856.94423
 91  4 18 23 37 29.9930000  0  5G15G 2G13G19G 6
  21395708.8884   -7620970.45246  -5837030.34861
  18778894.5444   -4839646.44147  -3731990.91364
  20214090.7634  -11933695.78646  -8955134.41761
  21561937.021     3811616.508 5   5461022.75021
  18701939.927   -27943095.585 7 -15288101.45923
 91  4 18 23 37 44.9930000  0  5G15G 2G13G19G 6
  21392221.4664   -7639311.21746  -5851321.79861
  18776931.0364   -4849967.20847  -3740033.07764
  20202058.1614  -11996934.63346  -9004411.31261
  21567721.083     3842006.949 5   5484703.48321
  18695789.825   -27975414.799 7 -15313285.24823
 91  4 18 23 37 59.9930000  0  5G15G 2G13G19G 6
  21388754.942    -7657520.308 5  -5865510.64721
  18774975.2554   -4860242.76547  -3748040.00664
  20190040.677   -12060086.331 6  -9053620.28421
  21573514.2164    3872449.34444   5508424.72561
  18689655.114   -28007656.244 7 -15338408.43423
 91  4 18 23 38 14.9930000  0  5G15G 2G13G19G 6
  21385315.1534   -7675602.18546  -5879600.38761
  18773026.7084   -4870477.82847  -3756015.38364
  20178037.9424  -12123155.29246  -9102764.77861
  21579315.950     3902938.827 4   5532182.63621
  18683533.724   -28039824.304 7 -15363474.44423
 91  4 18 23 38 29.9930000  0  5G15G 2G13G19G 6
  21381900.036    -7693551.483 5  -5893586.80721
  18771089.0604   -4880667.17147  -3763955.13264
  20166053.4894  -12186135.62246  -9151840.22761
  21585129.2554    3933480.55945   5555981.26461
  18677426.833   -28071913.461 7 -15388478.96323
 91  4 18 23 38 44.9930000  0  5G15G 2G13G19G 6
  21378510.357    -7711368.449 6  -5907470.10821
  18769158.4894   -4890811.19847  -3771859.57164
  20154083.661   -12249027.592 6  -9200846.81721
  21590951.4664    3964073.88444   5579820.09861
  18671336.286   -28103923.848 7 -15413422.10423
 91  4 18 23 38 59.9930000  0  5G15G 2G13G19G 6
  21375142.0524   -7729049.04045  -5921247.15961
  18767237.6924   -4900905.92547  -3779725.59464
  20142134.4824  -12311826.86546  -9249781.16361
  21596782.114     3994722.757 5   5603702.19621
  18665261.028   -28135851.231 7 -15438300.56523
 91  4 18 23 39 14.9930000  0  5G15G 2G13G19G 6
  21371806.1774   -7746596.40446  -5934920.37961
  18765324.7634   -4910954.49547  -3787555.65264
  20130200.646   -12374536.113 6  -9298645.37121
  21602624.075     4025423.641 5   5627624.85221
  18659200.646   -28167698.525 7 -15463116.61723
 91  4 18 23 39 29.9930000  0  5G15G 2G13G19G 6
  21368494.7084   -7764008.87446  -5948488.47661
  18763421.7324   -4920955.40847  -3795348.57764
  20118285.817   -12437153.445 6  -9347437.96521
  21608477.044     4056178.082 5   5651589.21821
  18653156.130   -28199463.961 7 -15487868.89223
 91  4 18 23 39 44.9930000  0  5G15G 2G13G19G 6
  21365202.6464   -7781282.92346  -5961948.73361
  18761528.4824   -4930905.46547  -3803101.87464
  20106386.6534  -12499675.78546  -9396156.52061
  21614342.060     4086989.046 4   5675597.62821
  18647126.0994  -28231144.00947 -15512554.63063
 91  4 18 23 39 59.9930000  0  5G15G 2G13G19G 6
  21361941.153    -7798421.612 6  -5975303.51021
  18759644.4504   -4940807.58947  -3810817.81864
  20094506.911   -12562105.735 6  -9444803.09721
  21620213.8494    4117853.57544   5699647.79261
  18641113.685   -28262741.465 7 -15537176.01423
 91  4 18 23 40 14.9930000  0  5G15G 2G13G19G 6
  21358707.3334   -7815426.02246  -5988553.63761
  18757768.7164   -4950663.29047  -3818497.59264
  20082644.528   -12624444.155 6  -9493378.34421
  21626096.3024    4148770.19544   5723738.52761
  18635115.903   -28294257.276 7 -15561733.77323
 91  4 18 23 40 29.9930000  0  5G15G 2G13G19G 6
  21355494.9034   -7832296.60746  -6001699.51761
  18755903.4424   -4960473.07747  -3826141.58364
  20070799.185   -12686691.186 6  -9541882.39121
  21631991.364     4179738.098 5   5747869.22721
  18629134.669   -28325691.702 7 -15586228.11723
 91  4 18 23 40 44.9930000  0  5G15G 2G13G19G 6
  21352314.341    -7849031.076 6  -6014739.31521
  18754044.2944   -4970234.62847  -3833747.98764
  20058972.3254  -12748844.36946  -9590313.31361
  21637892.9584    4210759.51144   5772041.64661
  18623168.192   -28357042.284 7 -15610657.12023
 91  4 18 23 40 59.9930000  0  5G15G 2G13G19G 6
  21349148.419    -7865635.774 6  -6027677.99421
  18752195.3254   -4979954.61647  -3841322.00664
  20047161.880   -12810909.967 6  -9638675.97121
  21643805.067     4241827.820 4   5796250.58221
  18617217.278   -28388315.233 7 -15635025.63324
 91  4 18 23 41 14.9930000  0  5G15G 2G13G19G 6
  21346019.411    -7882105.487 6  -6040511.48921
  18750354.7474   -4989627.84347  -3848859.58664
  20035368.966   -12872882.272 6  -9686965.94121
  21649726.122     4272948.005 4   5820499.94421
  18611281.935   -28419505.054 7 -15659329.37224
 91  4 18 23 41 29.9930000  0  5G15G 2G13G19G 6
  21342910.4584   -7898439.78446  -6053239.48361
  18748522.5214   -4999253.86047  -3856360.38064
  20023593.669   -12934760.867 6  -9735182.89021
  21655658.130     4304120.240 4   5844789.87521
  18605363.021   -28450611.196 7 -15683567.90324
 91  4 18 23 41 44.9930000  0  5G15G 2G13G19G 6
  21339827.2554   -7914638.41046  -6065861.74461
  18746700.9584   -5008832.91947  -3863824.58364
  20011835.5524  -12996545.60846  -9783326.70161
  21661601.536     4335344.315 4   5869120.20021
  18599460.552   -28481633.458 7 -15707741.07623
 91  4 18 23 41 59.9930000  0  5G15G 2G13G19G 6
  21336771.1854   -7930701.72146  -6078378.57361
  18744885.7164   -5018365.72147  -3871252.74464
  20000097.028   -13058236.647 6  -9831397.49921
  21667554.239     4366619.458 4   5893490.30221
  18593572.591   -28512572.172 7 -15731849.14423
 91  4 18 23 42 14.9930000  0  5G15G 2G13G19G 6
  21333741.849    -7946632.977 6  -6090792.49421
  18743080.1694   -5027855.07647  -3878647.04864
  19988374.255   -13119836.690 6  -9879397.39121
  21673513.4034    4397942.47444   5917897.72761
  18587700.521   -28543430.025 7 -15755894.20424
 91  4 18 23 42 29.9930000  0  5G15G 2G13G19G 6
  21330732.9034   -7962429.28646  -6103101.27261
  18741283.0214   -5037298.26347  -3886005.38064
  19976670.7944  -13181342.59946  -9927323.92161
  21679484.286     4429316.008 4   5942344.49721
  18581845.278   -28574203.996 7 -15779873.90323
 91  4 18 23 42 44.9930000  0  5G15G 2G13G19G 6
  21327754.4584   -7978085.28546  -6115300.71461
  18739496.2714   -5046690.18547  -3893323.75664
  19964985.4114  -13242748.84946  -9975172.80761
  21685466.2864    4460745.12744   5966834.58761
  18576004.942   -28604888.560 7 -15803783.93023
 91  4 18 23 42 59.9930000  0  5G15G 2G13G19G 6
  21324799.0364   -7993604.01546  -6127393.19461
  18737716.6534   -5056034.14747  -3900604.77064
  19953316.5674  -13304058.57446 -10022946.46261
  21691453.224     4492226.531 4   5991365.43421
  18570182.9114  -28635486.81147 -15827626.69863
 91  4 18 23 43 14.9930000  0  5G15G 2G13G19G 6
  21321874.0834   -8008984.13546  -6139377.66761
  18735948.2004   -5065328.62347  -3907847.22064
  19941668.5054  -13365269.84346 -10070643.41561
  21697457.9274    4523761.36844   6015937.89461
  18564377.0364  -28665996.98447 -15851400.83063
 91  4 18 23 43 29.9930000  0  5G15G 2G13G19G 6
  21318974.3334   -8024227.20346  -6151255.35861
  18734188.3174   -5074575.52247  -3915052.59764
  19930039.9824  -13426384.36246 -10118264.97261
  21703465.9194    4555347.72844   6040550.50261
  18558587.7394  -28696420.69347 -15875107.59163
 91  4 18 23 43 44.9930000  0  5G15G 2G13G19G 6
  21316099.6074   -8039336.55646  -6163028.84261
  18732438.4894   -5083778.05847  -3922223.40364
  19918428.513   -13487405.186 6 -10165813.52421
  21709484.747     4586982.104 4   6065200.53521
  18552813.9664  -28726760.92347 -15898749.29363
 91  4 18 23 43 59.9930000  0  5G15G 2G13G19G 6
  21313244.5284   -8054312.32346  -6174698.23861
  18730695.0444   -5092936.55547  -3929359.89564
  19906833.357   -13548332.170 6 -10213288.95621
  21715514.6144    4618664.12644   6089887.67761
  18547055.2554  -28757017.69047 -15922325.97363
 91  4 18 23 44 14.9930000  0  5G15G 2G13G19G 6
  21310420.4114   -8069151.14046  -6186260.91661
  18728961.7944   -5102048.01747  -3936459.73164
  19895259.1854  -13609161.91346 -10260688.61761
  21721553.6924    4650396.81644   6114614.32361
  18541315.0834  -28787187.59347 -15945834.96163
 91  4 18 23 44 29.9930000  0  5G15G 2G13G19G 6
  21307629.1614   -8083849.70646  -6197714.30861
  18727236.9424   -5111109.04947  -3943520.27864
  19883701.0284  -13669890.98946 -10308009.82761
  21727603.013     4682183.312 4   6139382.87721
  18535590.3884  -28817267.08847 -15969273.49763
 91  4 18 23 44 44.9930000  0  5G15G 2G13G19G 6
  21304853.4744   -8098409.50046  -6209059.56761
  18725523.1924   -5120121.28047  -3950542.79364
  19872164.896   -13730520.592 6 -10355253.53521
  21733661.8104    4714021.88644   6164192.05361
  18529883.5284  -28847257.33647 -15992642.49264
 91  4 18 23 44 59.9930000  0  5G15G 2G13G19G 6
  21302112.685    -8112831.063 6  -6220297.12321
  18723816.2244   -5129085.18647  -3957527.65364
  19860645.575   -13791050.953 6 -10402419.89221
  21739733.567     4745911.876 4   6189041.23521
  18524194.5134  -28877158.83547 -16015942.33463
 91  4 18 23 45 14.9930000  0  5G15G 2G13G19G 6
  21299392.2474   -8127116.51146  -6231428.61661
  18722120.3414   -5138002.89547  -3964476.51064
  19849144.3024  -13851483.80746 -10449510.28961
  21745809.505     4777851.103 4   6213928.82521
  18518519.1304  -28906973.06147 -16039174.16763
 91  4 18 23 45 29.9930000  0  5G15G 2G13G19G 6
  21296703.357    -8141265.473 6  -6242453.76121
  18720430.3494   -5146874.35947  -3971389.33664
  19837664.0284  -13911818.74846 -10496524.36661
  21751896.6924    4809839.40844   6238854.64861
  18512863.9744  -28936699.94247 -16062337.94163
 91  4 18 23 45 44.9930000  0  5G15G 2G13G19G 6
  21294033.5834   -8155275.90246  -6253370.94161
  18718753.4584   -5155697.80647  -3978264.74564
  19826199.966   -13972053.781 6 -10543460.62221
  21757995.0604    4841878.41344   6263819.97661
  18507223.1924  -28966337.23647 -16085431.90663
 91  4 18 23 45 59.9930000  0  5G15G 2G13G19G 6
  21291395.3334   -8169150.21946  -6264182.06561
  18717080.3884   -5164475.72147  -3985104.67264
  19814758.1464  -14032190.94946 -10590320.60361
  21764099.6534    4873965.49844   6288822.77661
  18501601.0754  -28995887.28847 -16108457.89063
 91  4 18 23 46 14.9930000  0  5G15G 2G13G19G 6
  21288783.2394   -8182888.82846  -6274887.43961
  18715419.7714   -5173208.25647  -3991909.24064
  19803331.8494  -14092230.07746 -10637104.19261
  21770212.614     4906100.141 3   6313862.63121
  18495993.2004  -29025349.99947 -16131415.81863
 91  4 18 23 46 29.9930000  0  5G15G 2G13G19G 6
  21286190.5444   -8196487.36946  -6285483.67861
  18713766.8964   -5181891.33847  -3998675.26864
  19791926.208   -14152166.995 6 -10683808.14321
  21776339.028     4938286.552 4   6338942.78321
  18490405.036   -29054720.947 7 -16154302.24323
 91  4 18 23 46 44.9930000  0  5G15G 2G13G19G 6
  21283628.4034   -8209953.82146  -6295976.99261
  18712123.9194   -5190533.14647  -4005409.14664
  19780538.630   -14212009.548 6 -10730438.56021
  21782473.521     4970516.293 4   6364056.75621
  18484830.622   -29084007.897 7 -16177123.22023
 91  4 18 23 46 59.9930000  0  5G15G 2G13G19G 6
  21281090.232    -8223283.731 6  -6306363.91921
  18710487.7004   -5199128.89347  -4012107.12964
  19769169.232   -14271752.870 6 -10776991.64921
  21788614.0364    5002794.05944   6389208.13761
  18479275.8884  -29113206.17047 -16199875.09163
 91  4 18 23 47 14.9930000  0  5G15G 2G13G19G 6
  21278580.841    -8236474.129 6  -6316642.13621
  18708861.4194   -5207676.06947  -4018767.26264
  19757821.0054  -14331393.89346 -10823465.02861
  21794768.6144    5035122.27143   6414398.82161
  18473736.880   -29142312.837 7 -16222555.58723
 91  4 18 23 47 29.9930000  0  5G15G 2G13G19G 6
  21276098.263    -8249528.567 5  -6326814.40521
  18707243.2784   -5216178.12147  -4025392.23364
  19746489.9194  -14390935.63046 -10869861.04061
  21800929.4034    5067497.16443   6439625.86461
  18468213.403   -29171330.939 7 -16245167.07323
 91  4 18 23 47 44.9930000  0  5G15G 2G13G19G 6
  21273641.060    -8262445.236 6  -6336879.31621
  18705635.2394   -5224633.45447  -4031980.79564
  19735179.575   -14450376.199 6 -10916178.23521
  21807098.786     5099920.386 3   6464890.60221
  18462709.232   -29200258.689 7 -16267708.15423
 91  4 18 23 47 59.9930000  0  5G15G 2G13G19G 6
  21271209.7714   -8275218.38545  -6346832.39861
  18704033.9664   -5233036.43447  -4038528.57064
  19723888.286   -14509709.807 6 -10962412.07621
  21813277.0054    5132397.44443   6490197.26761
  18457223.997   -29229090.119 7 -16290174.18323
 91  4 18 23 48 14.9930000  0  5G15G 2G13G19G 6
  21268807.716    -8287855.799 6  -6356679.71421
  18702443.6224   -5241394.98547  -4045041.72164
  19712615.7864  -14568944.17546 -11008568.57861
  21819464.6074    5164920.21043   6515539.54861
  18451753.630   -29257832.855 7 -16312571.10323
 91  4 18 23 48 29.9930000  0  5G15G 2G13G19G 6
  21266425.521    -8300355.945 6  -6366420.06021
  18700862.6854   -5249707.65947  -4051519.12764
  19701363.067   -14628077.437 6 -11054646.31321
  21825662.8254    5197490.06043   6540918.51861
  18446300.810   -29286485.150 7 -16334897.55023
 91  4 18 23 48 44.9930000  0  5G15G 2G13G19G 6
  21264074.8334   -8312716.58346  -6376051.70061
  18699290.4354   -5257972.23547  -4057959.05664
  19690131.153   -14687106.981 6 -11100643.22321
  21831872.2004    5230108.95243   6566335.71661
  18440865.911   -29315044.545 7 -16357151.60523
 91  4 18 23 48 59.9930000  0  5G15G 2G13G19G 6
  21261750.107    -8324942.082 6  -6385578.04021
  18697725.3024   -5266192.98547  -4064364.83164
  19678915.2944  -14746036.58146 -11146562.25361
  21838086.466     5262772.473 4   6591787.66621
  18435449.271   -29343514.976 7 -16379336.34123
 91  4 18 23 49 14.9930000  0  5G15G 2G13G19G 6
  21259445.966    -8337030.716 6  -6394997.73821
  18696170.3254   -5274368.46747  -4070735.33964
  19667720.7634  -14804865.10446 -11192402.54061
  21844312.896     5295481.795 4   6617275.30721
  18430048.200   -29371894.811 7 -16401450.48823
 91  4 18 23 49 29.9930000  0  5G15G 2G13G19G 6
  21257175.724    -8348983.496 5  -6404311.57621
  18694621.2554   -5282499.76747  -4077071.42264
  19656545.0214  -14863593.21046 -11238164.57961
  21850543.2004    5328235.90243   6642797.86961
  18424664.2084  -29400184.72247 -16423494.56263
 91  4 18 23 49 44.9930000  0  5G15G 2G13G19G 6
  21254920.872    -8360797.603 5  -6413517.35021
  18693084.0754   -5290583.87347  -4083370.73164
  19645389.794   -14922217.452 6 -11283845.67221
  21856790.130     5361037.568 4   6668357.44521
  18419300.310   -29428381.527 7 -16445466.08523
 91  4 18 23 49 59.9930000  0  5G15G 2G13G19G 6
  21252703.3334   -8372474.98946  -6422616.59261
  18691553.6924   -5298622.92547  -4089634.93464
  19634254.474   -14980739.909 6 -11329447.45821
  21863037.857     5393884.421 4   6693952.28121
  18413951.950   -29456487.224 7 -16467366.61523
 91  4 18 23 50 14.9930000  0  5G15G 2G13G19G 6
  21250508.552    -8384015.798 6  -6431609.40821
  18690032.8174   -5306617.11347  -4095864.17464
  19623134.9744  -15039160.38846 -11374969.78861
  21869301.021     5426776.261 4   6719582.14621
  18408620.435   -29484501.582 7 -16489195.97023
 91  4 18 23 50 29.9920000  0  5G15G 2G13G19G 6
  21248336.070    -8395419.434 5  -6440495.34121
  18688520.2664   -5314566.10547  -4102058.20064
  19612038.5554  -15097475.07246 -11420409.67361
  21875565.7814    5459710.44743   6745244.99661
  18403308.2744  -29512422.73247 -16510952.70363
 91  4 18 23 50 44.9920000  0  5G15G 2G13G19G 6
  21246189.4774   -8406683.60045  -6449272.59961
  18687016.6494   -5322467.22047  -4108214.91464
  19600961.4304  -15155687.60646 -11465769.96761
  21881840.3204    5492694.81043   6770946.94261
  18398012.211   -29540250.393 7 -16532636.58523
 91  4 18 23 50 59.9920000  0  5G15G 2G13G19G 6
  21244076.211    -8417805.467 5  -6457938.96721
  18685523.6094   -5330317.90247  -4114332.32964
  19589904.133   -15213791.644 6 -11511045.70521
  21888126.7744    5525729.11044   6796687.82861
  18392733.695   -29567980.437 7 -16554244.39523
 91  4 18 23 51 14.9920000  0  5G15G 2G13G19G 6
  21241984.203    -8428789.597 5  -6466498.02521
  18684038.2504   -5338122.92447  -4120414.17164
  19578867.4224  -15271791.81246 -11556240.50861
  21894424.883     5558808.612 3   6822463.91021
  18387475.836   -29595617.245 7 -16575779.56023
 91  4 18 23 51 29.9920000  0  5G15G 2G13G19G 6
  21239920.766    -8439633.831 6  -6474948.05821
  18682562.7114   -5345880.02047  -4126458.66764
  19567848.414   -15329685.600 6 -11601352.41721
  21900726.203     5591935.332 3   6848276.81621
  18382235.055   -29623158.332 7 -16597240.13323
 91  4 18 23 51 44.9920000  0  5G15G 2G13G19G 6
  21237883.141    -8450341.808 6  -6483291.92221
  18681094.6024   -5353593.28647  -4132469.01464
  19556852.6024  -15387476.63646 -11646384.27161
  21907040.524     5625105.134 3   6874123.23921
  18377010.461   -29650607.422 7 -16618629.02023
 91  4 18 23 51 59.9920000  0  5G15G 2G13G19G 6
  21235871.906    -8460909.339 6  -6491526.34621
  18679635.9774   -5361258.30247  -4138441.75964
  19545875.1804  -15445160.22446 -11691332.39861
  21913362.164     5658322.275 3   6900006.59521
  18371805.906   -29677959.917 7 -16639942.63723
 91  4 18 23 52 14.9920000  0  5G15G 2G13G19G 6
  21233888.016    -8471341.449 6  -6499655.24921
  18678184.4304   -5368880.06447  -4144380.80464
  19534918.6334  -15502741.22646 -11736200.59461
  21919685.899     5691581.327 2   6925922.59221
  18366619.047   -29705220.571 7 -16661184.69223
 91  4 18 23 52 29.9920000  0  5G15G 2G13G19G 6
  21231931.3134   -8481636.11746  -6507677.06161
  18676742.781    -5376456.735 7  -4150284.71324
  19523979.4064  -15560217.47246 -11780987.14361
  21926023.7584    5724884.26543   6951872.76361
  18361449.188   -29732387.200 7 -16682353.48023
 91  4 18 23 52 44.9920000  0  5G15G 2G13G19G 6
  21229995.836    -8491794.646 6  -6515592.77821
  18675310.5004   -5383989.05947  -4156154.06464
  19513063.4844  -15617589.70646 -11825692.65261
  21932369.492     5758229.961 3   6977856.25221
  18356296.672   -29759460.445 7 -16703449.49923
 91  4 18 23 52 59.9920000  0  5G15G 2G13G19G 6
  21228088.969    -8501810.674 6  -6523397.45921
  18673886.0944   -5391471.17947  -4161984.29764
  19502165.914   -15674851.506 6 -11870312.09921
  21938722.281     5791624.100 2   7003877.52521
  18351164.781   -29786434.078 7 -16724467.89823
 91  4 18 23 53 14.9920000  0  5G15G 2G13G19G 6
  21226213.234    -8511687.503 6  -6531093.68621
  18672470.6414   -5398906.52447  -4167778.08164
  19491289.3204  -15732006.16646 -11914848.07661
  21945089.164     5825063.117 2   7029933.73921
  18346049.516   -29813311.331 7 -16745411.19523
 91  4 18 23 53 29.9920000  0  4G15G 2G13G 6
  21224354.6804   -8521430.49946  -6538685.61961
  18671065.0164   -5406300.48647  -4173539.61464
  19480432.9614  -15789058.68046 -11959304.46761
  18340952.024   -29840097.311 7 -16766283.36723
 91  4 18 23 53 44.9920000  0  5G15G 2G13G19G 6
  21222530.734    -8531034.365 6  -6546169.13821
  18669665.1954   -5413647.78947  -4179264.79564
  19469596.7744  -15846003.47246 -12003676.90161
  21957836.5004         -0.25352
  18335873.500   -29866786.424 7 -16787080.05623
 91  4 18 23 53 59.9920000  0  4G15G 2G13G 6
  21220727.0634   -8540501.86646  -6553546.40661
  18668275.9224   -5420951.13447  -4184955.72364
  19458780.9454  -15902843.09646 -12047967.39461
  18330813.133   -29893381.037 7 -16807803.11023
 91  4 18 23 54 14.9920000  0  4G15G 2G13G 6
  21218951.0944   -8549832.81846  -6560817.27461
  18666895.0634   -5428210.57447  -4190612.43464
  19447984.5944  -15959577.25946 -12092175.70361
  18325769.672   -29919880.934 7 -16828452.35823
 91  4 18 23 54 29.9920000  0  5G15G 2G13G19G 6
  21217207.1954   -8559028.91146  -6567983.05061
  18665521.1644   -5435427.89147  -4196236.32864
  19437208.2344  -16016207.44546 -12136302.99961
  21977024.2894         -0.53953
  18320745.203   -29946287.643 7 -16849028.98923
 91  4 18 23 54 44.9920000  0  5G15G 2G13G19G 6
  21215479.289    -8568089.411 6  -6575043.16321
  18664156.6644   -5442602.36747  -4201826.83464
  19426451.7344  -16072732.54846 -12180348.40661
  21983435.5004      33685.24443
  18315737.664   -29972600.235 7 -16869532.28423
 91  4 18 23 54 59.9920000  0  5G15G 2G13G19G 6
  21213778.7664   -8577011.59746  -6581995.51261
  18662799.8834   -5449730.99847  -4207381.61964
  19415717.0944  -16129149.73246 -12224309.72961
  21989853.9774      67413.82143
  18310749.789   -29998815.611 7 -16889959.82823
 91  4 18 23 55 14.9920000  0  5G15G 2G13G19G 6
  21212105.297    -8585793.582 6  -6588838.59821
  18661452.0004   -5456812.03347  -4212899.31464
  19404999.8994  -16185457.02946 -12268185.41861
  21996282.6094     101186.87243
  18305779.055   -30024931.573 7 -16910309.90923
 91  4 18 23 55 29.9920000  0  5G15G 2G13G19G 6
  21210463.3674   -8594437.33446  -6595573.98061
  18660113.8994   -5463847.41447  -4218381.43364
  19394306.4844  -16241655.87746 -12311976.61161
  22002705.3204     135002.34043
  18300827.766   -30050949.756 7 -16930583.79723
 91  4 18 23 55 44.9920000  0  5G15G 2G13G19G 6
  21208842.875    -8602939.889 6  -6602199.33321
  18658783.7584   -5470834.29547  -4223825.76264
  19383632.9384  -16297743.30446 -12355680.96761
  22009157.2034     168862.90243
  18295897.242   -30076867.306 7 -16950779.26923
 91  4 18 23 55 59.9920000  0  5G15G 2G13G19G 6
  21207252.336    -8611302.004 6  -6608715.25621
  18657463.8594   -5477773.35447  -4229232.82164
  19372981.9144  -16353719.75746 -12399298.86061
  22015610.1414     202767.40444        -0.44271
  18290982.789   -30102684.654 7 -16970896.65923
 91  4 18 23 56 14.9920000  0  5G15G 2G13G19G 6
  21205688.5474   -8619522.33146  -6615120.69661
  18656152.9694   -5484663.37947  -4234601.67564
  19362350.6494  -16409583.77646 -12442829.14261
  22022071.0784     236717.29843     26453.89061
  18286090.328   -30128400.047 7 -16990934.60423
 91  4 18 23 56 29.9920000  0  5G15G 2G13G19G 6
  21204154.563    -8627604.899 6  -6621418.78521
  18654849.3834   -5491508.58547  -4239935.59964
  19351740.953   -16465339.268 6 -12486274.84821
  22028536.1564     270708.04443     52939.99861
  18281215.6174  -30154017.58247 -17010896.29163
 91  4 18 23 56 44.9920000  0  5G15G 2G13G19G 6
  21202644.9454   -8635550.86946  -6627610.43861
  18653554.5784   -5498310.01347  -4245235.41164
  19341150.3754  -16520987.04346 -12529636.61561
  22035013.7344     304738.27743     79456.93561
  18276358.774   -30179538.159 7 -17030782.43323
 91  4 18 23 56 59.9920000  0  5G15G 2G13G19G 6
  21201151.3204   -8643361.76746  -6633696.83361
  18652269.5244   -5505069.14647  -4250502.26864
  19330581.516   -16576528.286 6 -12572915.39121
  22041500.234      338806.627 3    106003.53121
  18271520.945   -30204962.737 7 -17050593.76923
 91  4 18 23 57 14.9920000  0  5G15G 2G13G19G 6
  21199696.055    -8651030.796 6  -6639672.68821
  18650991.7504   -5511779.31347  -4255730.96664
  19320034.3524  -16631956.00646 -12616105.70161
  22047993.024      372919.388 3    132584.76521
  18266702.266   -30230284.568 7 -17070325.04623
 91  4 18 23 57 29.9920000  0  5G15G 2G13G19G 6
  21198263.774    -8658559.891 6  -6645539.50121
  18649723.5944   -5518442.31747  -4260922.91264
  19309507.5244  -16687272.04546 -12659208.98861
  22054495.1644     407074.55642    159199.01161
  18261903.008   -30255505.104 7 -17089977.39023
 91  4 18 23 57 44.9920000  0  4G15G 2G13G 6
  21196855.375    -8665955.291 6  -6651302.13621
  18648463.3834   -5525064.35547  -4266082.94064
  19299002.9844  -16742482.16946 -12702229.74361
  18257121.539   -30280630.358 7 -17109555.48823
 91  4 18 23 57 59.9920000  0  4G15G 2G13G 6
  21195472.3284   -8673212.09246  -6656956.78361
  18647212.9844   -5531640.45447  -4271207.16964
  19288516.3444  -16797581.09646 -12745163.84961
  18252359.516   -30305655.079 7 -17129055.25123
 91  4 18 23 58 14.9920000  0  4G15G 2G13G 6
  21194121.758    -8680329.284 6  -6662502.63321
  18645969.3674   -5538169.87447  -4276295.03064
  19278055.172   -16852567.798 6 -12788010.51321
  18247616.516   -30330578.270 7 -17148475.90023
 91  4 18 23 58 29.9920000  0  4G15G 2G13G 6
  21192789.609    -8687308.117 6  -6667940.66921
  18644736.2584   -5544653.86347  -4281347.48564
  19267610.9304  -16907443.33346 -12830770.56461
  18242893.742   -30355400.995 7 -17167818.26823
 91  4 18 23 58 44.9920000  0  4G15G 2G13G 6
  21191488.852    -8694148.838 6  -6673271.09121
  18643511.4304   -5551092.46347  -4286364.57164
  19257189.1414  -16962207.60646 -12873443.89661
  18238188.781   -30380122.931 7 -17187082.09623
 91  4 18 23 58 59.9920000  0  4G15G 2G13G 6
  21190216.086    -8700853.705 6  -6678495.64621
  18642294.6414   -5557488.05247  -4291348.14364
  19246788.3054  -17016862.60546 -12916032.08561
  18233503.188   -30404746.155 7 -17206269.01023
 91  4 18 23 59 14.9920000  0  4G15G 2G13G 6
  21188967.320    -8707417.796 6  -6683610.51121
  18641086.5474   -5563835.71547  -4296294.37264
  19236408.633   -17071403.213 6 -12958531.14321
  18228836.109   -30429265.604 7 -17225375.05923
 91  4 18 23 59 29.9920000  0  4G15G 2G13G 6
  21187745.1494   -8713846.99546
  18639885.5634   -5570141.30347
  19226051.8524  -17125834.99646 -13000945.41961
  18224189.711   -30453686.792 7 -17244404.53523
 91  4 18 23 59 44.9920000  0  4G15G 2G13G 6
  21186545.9064   -8720139.65746
  18638693.7034   -5576403.10747
  19215715.844   -17180156.007 6 -13043273.37521
  18219561.399   -30478007.939 7 -17263356.06423
 91  4 18 23 59 59.9920000  0  4G15G 2G13G 6
  21185374.680    -8726294.750 6  -6698319.77621
  18637511.8914   -5582620.00147  -4310931.47564
  19205399.563   -17234365.082 6 -13085514.11321
  18214952.524   -30502227.659 7 -17282228.56123
 91  4 19  0  0 14.9920000  0  4G15G 2G13G 6
  21184231.6724   -8732308.37646  -6703005.73961
  18636337.8134   -5588788.49947  -4315738.09664
  19195106.250   -17288458.358 6 -13127664.60221
  18210362.313   -30526342.126 7 -17301019.04023
 91  4 19  0  0 29.9920000  0  4G15G 2G13G 6
  21183110.7344   -8738183.44346  -6707583.70161
  18635172.1724   -5594911.22347  -4320509.04664
  19184832.992   -17342438.432 6 -13169726.88421
  18205795.875   -30550353.655 7 -17319729.30723
 91  4 19  0  0 44.9920000  0  4G15G 2G13G 6
  21182014.7504   -8743925.07046  -6712057.68761
  18634017.5864   -5600993.14247  -4325248.20264
  19174581.6804  -17396310.06346 -13211704.65661
  18201242.977   -30574267.112 7 -17338363.15223
 91  4 19  0  0 59.9920000  0  4G15G 2G13G 6
  21180950.234    -8749530.054 6  -6716425.19521
  18632864.8134   -5607031.02047  -4329953.03864
  19164352.1644  -17450069.66746 -13253595.13461
  18196713.063   -30598078.956 7 -17356917.81923
 91  4 19  0  1 14.9920000  0  4G15G 2G13G 6
  21179914.1644   -8755000.27546  -6720687.70261
  18631725.6334   -5613026.95447  -4334625.19464
  19154142.6644  -17503719.06046 -13295399.74161
  18192199.977   -30621791.105 7 -17375394.80123
 91  4 19  0  1 29.9920000  0  4G15G 2G13G 6
  21178894.9614   -8760326.18846  -6724837.75461
  18630593.8594   -5618971.49547  -4339257.30464
  19143956.164   -17557248.560 6 -13337110.92721
  18187708.664   -30645393.754 7 -17393786.46223
 91  4 19  0  1 44.9920000  0  4G15G 2G13G 6
  21177912.7974   -8765513.68446  -6728879.95661
  18629471.8364   -5624870.46347  -4343853.90264
  19133791.1024  -17610663.85846 -13378733.11961
  18183236.524   -30668892.585 7 -17412097.22223
 91  4 19  0  1 59.9920000  0  4G15G 2G13G 6
  21176945.5084   -8770564.92946  -6732815.98961
  18628357.4304   -5630725.58447  -4348416.33064
  19123647.5944  -17663966.41846 -13420267.46061
  18178785.547   -30692289.021 7 -17430328.19423
 91  4 19  0  2 14.9920000  0  4G15G 2G13G 6
  21176016.5474   -8775478.40446  -6736644.66461
  18627250.9224   -5636535.71047  -4352943.69864
  19113525.1644  -17717154.74446 -13461712.80061
  18174352.563   -30715581.728 7 -17448478.33723
 91  4 19  0  2 29.9920000  0  4G15G 2G13G 6
  21175104.141    -8780251.809 6  -6740364.19621
  18626155.7894   -5642298.31047  -4357434.03664
  19103426.594   -17770226.444 6 -13503067.26421
  18169938.953   -30738767.917 7 -17466545.47923
 91  4 19  0  2 44.9920000  0  4G15G 2G13G 6
  21174223.7344   -8784884.85746  -6743974.36161
  18625068.6414   -5648013.04547  -4361887.07564
  19093350.039   -17823180.709 6 -13544330.22521
  18165548.516   -30761846.925 7 -17484529.10723
 91  4 19  0  2 59.9920000  0  4G15G 2G13G 6
  21173372.1174   -8789379.27346  -6747476.49961
  18623988.9454   -5653681.50747  -4366304.06064
  19083294.1094  -17876019.11846 -13585502.91561
  18161177.391   -30784820.311 7 -17502430.42923
 91  4 19  0  3 14.9920000  0  4G15G 2G13G 6
  21172540.6334   -8793734.80745  -6750870.41561
  18622918.8524   -5659303.50647  -4370684.84164
  19073263.234   -17928741.168 6 -13626584.93621
  18156824.867   -30807687.741 7 -17520249.19123
 91  4 19  0  3 29.9920000  0  4G15G 2G13G 6
  21171737.9844   -8797948.63246  -6754153.90661
  18621858.8054   -5664876.29847  -4375027.27964
  19063252.984   -17981343.748 7 -13667573.85421
  18152493.438   -30830445.886 7 -17537982.79123
 91  4 19  0  3 44.9920000  0  4G15G 2G13G 6
  21170964.8994   -8802022.01846  -6757327.97161
  18620807.6414   -5670401.02147  -4379332.25664
  19053265.156   -18033827.937 7 -13708470.51421
  18148183.805   -30853095.806 7 -17555632.06323
 91  4 19  0  3 59.9920000  0  4G15G 2G13G 6
  21170214.0394   -8805958.01845  -6760394.97661
  18619765.3204   -5675880.93747  -4383602.32464
  19043298.961   -18086196.592 7 -13749277.15421
  18143893.953   -30875640.423 7 -17573199.28323
 91  4 19  0  4 14.9920000  0  4G15G 2G13G 6
  21169491.234    -8809758.193 5  -6763356.14621
  18618730.5314   -5681317.58747  -4387838.67964
  19033355.047   -18138451.220 7 -13789994.94221
  18139624.828   -30898081.065 7 -17590685.48523
 91  4 19  0  4 29.9920000  0  4G15G 2G13G 6
  21168796.2894   -8813422.89945  -6766211.76261
  18617703.7664   -5686710.93247  -4392041.28964
  19023433.852   -18190591.570 7 -13830623.67721
  18135372.8204  -30920417.55747 -17608090.53463
 91  4 19  0  4 44.9920000  0  4G15G 2G13G 6
  21168124.1804   -8816947.98545  -6768958.57861
  18616687.2974   -5692056.80047  -4396206.90664
  19013534.125   -18242613.503 7 -13871160.14321
  18131143.5864  -30942645.51047 -17625411.00363
 91  4 19  0  4 59.9920000  0  4G15G 2G13G 6
  21167475.8914   -8820332.47545  -6771595.84361
  18615680.1254   -5697354.14347  -4400334.70764
  19003657.359   -18294515.597 7 -13911603.23321
  18126933.9924  -30964763.62147 -17642645.88463
 91  4 19  0  5 14.9920000  0  4G15G 2G13G 6
  21166858.2194   -8823582.94245  -6774128.67661
  18614679.0004   -5702609.55547  -4404429.83764
  18993802.484   -18346304.196 7 -13951957.87621
  18122745.2744  -30986778.33247 -17659800.19663
 91  4 19  0  5 29.9920000  0  4G15G 2G13G 6
  21166271.5314   -8826693.25745  -6776552.29661
  18613686.7344   -5707816.88347  -4408487.50164
  18983969.672   -18397972.957 7 -13992219.14521
  18118576.781   -31008683.106 7 -17676868.83923
 91  4 19  0  5 44.9920000  0  4G15G 2G13G 6
  21165697.8054   -8829665.38845  -6778868.23561
  18612706.2974   -5712978.43547  -4412509.49364
  18974160.3054  -18449523.82747 -14032388.55361
  18114430.0004  -31030480.04147 -17693853.45363
 91  4 19  0  5 59.9920000  0  4G15G 2G13G 6
  21165164.3204   -8832502.81245  -6781079.21461
  18611730.2894   -5718097.17547  -4416498.12264
  18964370.8444  -18500959.70347 -14072468.36561
  18110301.7664  -31052171.92447 -17710756.21163
 91  4 19  0  6 14.9920000  0  4G15G 2G13G 6
  21164645.7814   -8835206.32345  -6783185.84161
  18610766.2504   -5723173.90447  -4420454.02464
  18954605.9694  -18552281.30347 -14112459.13561
  18106193.1644  -31073759.45547 -17727577.65463
 91  4 19  0  6 29.9920000  0  4G15G 2G13G 6
  21164162.7504   -8837770.08245  -6785183.57161
  18609807.6564   -5728202.70047  -4424372.57364
  18944861.7894  -18603482.37247 -14152355.97261
  18102106.7584  -31095236.41747 -17744312.94263
 91  4 19  0  6 44.9920000  0  4G15G 2G13G 6
  21163697.6954   -8840193.53445  -6787071.97561
  18608860.8204   -5733183.35947  -4428253.61864
  18935141.867   -18654562.387 7 -14192158.47521
  18098041.1564  -31116602.16647 -17760961.57163
 91  4 19  0  6 59.9920000  0  4G15G 2G13G 6
  21163262.750    -8842476.585 5  -6788850.96421
  18607922.6494   -5738115.52047  -4432096.86764
  18925444.953   -18705520.905 7 -14231866.31421
  18093994.6804  -31137856.11647 -17777523.08063
 91  4 19  0  7 14.9920000  0  4G15G 2G13G 6
  21162853.977    -8844624.182 5  -6790524.41821
  18606991.6954   -5743004.02048  -4435906.09964
  18915770.6414  -18756362.60347 -14271483.12461
  18089972.9224  -31159003.07447 -17794001.22263
 91  4 19  0  7 29.9920000  0  4G15G 2G13G 6
  21162474.6334   -8846629.78045  -6792087.21461
  18606071.5864   -5747842.13747  -4439676.07064
  18906118.0634  -18807080.71247 -14311003.63461
  18085969.1804  -31180036.00047 -17810390.50463
 91  4 19  0  7 44.9920000  0  4G15G 2G13G 6
  21162118.8524   -8848500.54845  -6793544.95061
  18605158.336    -5752636.742 7  -4443412.13724
  18896489.8134  -18857681.87147 -14350433.02161
  18081987.8754  -31200961.81547 -17826696.32763
 91  4 19  0  7 59.9920000  0  4G15G 2G13G 6
  21161791.0394   -8850236.81045  -6794897.87661
  18604254.1644   -5757388.23447  -4447114.60564
  18886882.5164  -18908166.37047 -14389771.49961
  18078024.9224  -31221780.52547 -17842918.68663
 91  4 19  0  8 14.9920000  0  4G15G 2G13G 6
  21161486.8444   -8851837.66045  -6796145.29161
  18603358.1884   -5762095.96947  -4450782.97864
  18877297.789   -18958533.101 7 -14429018.20221
  18074086.344   -31242491.117 7 -17859056.79623
 91  4 19  0  8 29.9920000  0  4G15G 2G13G 6
  21161208.6724   -8853297.52845  -6797282.84761
  18602472.3364   -5766754.28747  -4454412.84364
  18867736.609   -19008776.494 7 -14468168.79321
  18070164.594   -31263087.849 7 -17875106.18623
 91  4 19  0  8 44.9920000  0  4G15G 2G13G 6
  21160952.586    -8854623.828 5  -6798316.32021
  18601593.8594   -5771370.31847  -4458009.75964
  18858198.445   -19058903.449 7 -14507228.65621
  18066265.984   -31283577.607 7 -17891072.21723
 91  4 19  0  8 59.9920000  0  4G15G 2G13G 6
  21160724.3674   -8855813.00145  -6799242.95461
  18600724.5314   -5775940.42247  -4461570.88664
  18848682.6804  -19108910.14047 -14546194.81461
  18062388.883   -31303956.602 7 -17906951.93823
 91  4 19  0  9 14.9920000  0  4G15G 2G13G 6
  21160525.4614   -8856864.52445  -6800062.31961
  18599863.5474   -5780464.05247  -4465095.80364
  18839188.7814  -19158795.77247 -14585066.64961
  18058531.352   -31324224.098 7 -17922744.77323
 91  4 19  0  9 29.9920000  0  4G15G 2G13G 6
  21160353.0474   -8857779.96045  -6800775.63461
  18599009.6494   -5784942.58647  -4468585.57964
  18829718.1644  -19208561.58247 -14623845.10961
  18054695.375   -31344381.167 7 -17938451.56323
 91  4 19  0  9 44.9920000  0  4G15G 2G13G 6
  21160202.7034   -8858557.78645  -6801381.74461
  18598168.7744   -5789374.47247  -4472039.00264
  18820271.4384  -19258205.82547 -14662528.84161
  18050881.649   -31364426.105 7 -17954070.97523
 91  4 19  0  9 59.9920000  0  4G15G 2G13G 6
  21160083.1564   -8859197.09445  -6801879.89361
  18597333.2194   -5793758.78947  -4475455.36264
  18810848.3204  -19307727.40647 -14701116.99561
  18047087.688   -31384357.780 7 -17969602.13123
 91  4 19  0 10 14.9920000  0  4G15G 2G13G 6
  21159986.3594   -8859702.73345  -6802273.90661
  18596506.6644   -5798100.32647  -4478838.38864
  18801446.3054  -19357130.79947 -14739613.05161
  18043316.539   -31404180.582 7 -17985048.45023
 91  4 19  0 10 29.9920000  0  4G15G 2G13G 6
  21159916.3994   -8860071.70345  -6802561.40761
  18595689.9384   -5802395.95047  -4482185.63464
  18792068.6804  -19406412.88047 -14778014.57661
  18039564.867   -31423891.350 7 -18000407.47323
 91  4 19  0 10 44.9920000  0  4G15G 2G13G 6
  21159867.6254   -8860310.85745  -6802747.75661
  18594880.2814   -5806652.25447  -4485502.24564
  18782713.1804  -19455580.19647 -14816326.67261
  18035834.039   -31443496.466 7 -18015684.16623
 91  4 19  0 10 59.9920000  0  4G15G 2G13G 6
  21159853.3754   -8860410.29145
  18594080.0244   -5810859.53748  -4488780.65264
  18773380.5784  -19504622.65047 -14854541.47361
  18032125.406   -31462985.990 7 -18030870.78823
 91  4 19  0 11 14.9920000  0  4G15G 2G13G 6
  21159858.3054   -8860372.26145
  18593287.641    -5815019.685 8  -4492022.33624
  18764070.6564  -19553542.06647 -14892660.40661
  18028437.945   -31482361.674 7 -18045968.70723
 91  4 19  0 11 29.9920000  0  4G15G 2G13G 6
  21159887.9694   -8860199.33845
  18592505.3134   -5819135.30747  -4495229.32364
  18754785.1334  -19602340.85047 -14930685.33961
  18024773.180   -31501625.951 7 -18060979.81323
 91  4 19  0 11 44.9920000  0  4G15G 2G13G 6
  21159947.2744   -8859891.11145
  18591730.5084   -5823205.70347  -4498401.06764
  18745521.703   -19651018.133 7 -14968615.60221
  18021128.250   -31520777.830 7 -18075903.33823
 91  4 19  0 11 59.9920000  0  4G15G 2G13G 6
  21160033.7664   -8859444.79445  -6802072.89661
  18590965.8914   -5827228.17247  -4501535.46564
  18736281.508   -19699571.135 7 -15006449.02921
  18017505.625   -31539814.461 7 -18090737.06223
 91  4 19  0 12 14.9920000  0  4G15G 2G13G 6
  21160145.8444   -8858865.82245  -6801621.74561
  18590206.7114   -5831208.18047  -4504636.77764
  18727065.6414  -19748005.26247 -15044189.81561
  18013903.742   -31558741.013 7 -18105485.00923
 91  4 19  0 12 29.9920000  0  4G15G 2G13G 6
  21160281.7194   -8858149.69745  -6801063.71561
  18589459.0704   -5835141.04147  -4507701.34964
  18717872.0634  -19796315.28047 -15081833.88961
  18010324.289   -31577552.651 7 -18120143.41423
 91  4 19  0 12 44.9920000  0  4G15G 2G13G 6
  21160440.5944   -8857298.66545  -6800400.57361
  18588720.1414   -5839028.92947  -4510730.87764
  18708701.6494  -19844503.56147 -15119383.10361
  18006765.820   -31596251.235 7 -18134713.72623
 91  4 19  0 12 59.9920000  0  4G15G 2G13G 6
  21160629.438    -8856315.362 5  -6799634.35921
  18587987.6954   -5842874.61147  -4513727.51264
  18699555.0944  -19892572.62047 -15156839.40961
  18003228.859   -31614839.398 7 -18149197.99623
 91  4 19  0 13 14.9920000  0  4G15G 2G13G 6
  21160843.2194   -8855197.15445  -6798763.03061
  18587264.4614   -5846675.15547  -4516688.98164
  18690430.477   -19940519.534 7 -15194200.54221
  17999713.055   -31633314.154 7 -18163593.89823
 91  4 19  0 13 29.9920000  0  4G15G 2G13G 6
  21161084.4304   -8853942.54545  -6797785.39561
  18586549.5634   -5850428.80547  -4519613.90564
  18681330.4064  -19988342.22547 -15231464.88161
  17996219.9924  -31651673.47947 -18177899.85663
 91  4 19  0 13 44.9920000  0  4G15G 2G13G 6
  21161344.7504   -8852553.72745  -6796703.20561
  18585844.5554   -5854137.71147  -4522503.96264
  18672252.6174  -20036042.80547 -15268634.07461
  17992747.3674  -31669919.31047 -18192117.37663
 91  4 19  0 13 59.9920000  0  4G15G 2G13G 6
  21161635.5784   -8851023.26645  -6795510.63661
  18585148.0314   -5857794.20547  -4525353.18064
  18663200.3994  -20083613.30547 -15305701.91661
  17989299.1414  -31688043.70447 -18206240.27063
 91  4 19  0 14 14.9920000  0  4G15G 2G13G 6
  21161958.180    -8849353.804 5  -6794209.74521
  18584461.0474   -5861400.99147  -4528163.66164
  18654172.6174  -20131056.36947 -15342670.44261
  17985871.7814  -31706049.32747 -18220270.61863
 91  4 19  0 14 29.9920000  0  4G15G 2G13G 6
  21162294.945    -8847547.597 5  -6792802.31621
  18583785.2744   -5864960.28347  -4530937.14264
  18645168.094   -20178374.137 7 -15379541.34921
  17982467.5864  -31723937.99547 -18234209.83263
 91  4 19  0 14 44.9920000  0  4G15G 2G13G 6
  21162669.6884   -8845609.40245  -6791292.03461
  18583115.6094   -5868476.64047  -4533677.16264
  18636186.5394  -20225570.89447 -15416317.95261
  17979085.5634  -31741714.10847 -18248061.34163
 91  4 19  0 14 59.9920000  0  4G15G 2G13G 6
  21163061.0164   -8843539.34045  -6789678.99861
  18582454.3134   -5871949.95947  -4536383.64164
  18627228.8134  -20272646.25447 -15452999.96561
  17975724.9224  -31759377.51647 -18261825.03563
 91  4 19  0 15 14.9920000  0  4G15G 2G13G 6
  21163480.461    -8841332.460 5  -6787959.33921
  18581802.5704   -5875375.25647  -4539052.70464
  18618293.7814  -20319595.17647 -15489583.44761
  17972385.4304  -31776922.92347 -18275496.77663
 91  4 19  0 15 29.9920000  0  4G15G 2G13G 6
  21163927.3834   -8838991.93945  -6786135.55561
  18581159.8284   -5878755.56447  -4541686.70464
  18609383.1884  -20366420.54247 -15526070.65261
  17969068.2584  -31794353.37147 -18289078.94063
 91  4 19  0 15 44.9920000  0  4G15G 2G13G 6
  21164400.7744   -8836513.75645  -6784204.50461
  18580524.9224   -5882086.72347  -4544282.41864
  18600497.2664  -20413118.15947 -15562458.31661
  17965773.8994  -31811664.28547 -18302567.96263
 91  4 19  0 15 59.9920000  0  4G15G 2G13G 6
  21164895.4064   -8833899.38445  -6782167.33561
  18579900.4144   -5885370.10447  -4546840.88464
  18591635.4614  -20459689.18647 -15598747.33361
  17962503.2034  -31828856.99747 -18315964.87363
 91  4 19  0 16 14.9920000  0  4G15G 2G13G 6
  21165418.234    -8831147.845 5  -6780023.26021
  18579285.9144   -5888604.58947  -4549361.26064
  18582797.5084  -20506132.41547 -15634936.76561
  17959253.7114  -31845930.06947 -18329268.56263
 91  4 19  0 16 29.9920000  0  4G15G 2G13G 6
  21165967.211    -8828260.590 5  -6777773.44921
  18578678.9924   -5891791.40347  -4551844.48764
  18573983.7504  -20552449.22747 -15671027.69561
  17956027.0084  -31862884.79547 -18342480.03463
 91  4 19  0 16 44.9920000  0  4G15G 2G13G 6
  21166542.8594   -8825235.02445  -6775415.86061
  18578081.8834   -5894927.98047  -4554288.57364
  18565194.0164  -20598636.79947 -15707017.91561
  17952824.5474  -31879718.28047 -18355597.03063
 91  4 19  0 16 59.9920000  0  4G15G 2G13G 6
  21167145.5864   -8822071.91245  -6772951.08961
  18577494.8444   -5898014.87747  -4556693.94764
  18556428.9064  -20644695.48947 -15742907.70661
  17949644.1174  -31896430.82347 -18368619.78663
 91  4 19  0 17 14.9920000  0  4G15G 2G13G 6
  21167773.4614   -8818771.83245  -6770379.59061
  18576916.9534   -5901052.40547  -4559060.84864
  18547689.9454  -20690625.59747 -15778697.31661
  17946487.1884  -31913022.70847 -18381548.52163
 91  4 19  0 17 29.9920000  0  4G15G 2G13G 6
  21168430.6884   -8815335.41645  -6767701.88061
  18576348.0244   -5904041.36747  -4561389.90864
  18538973.8524  -20736427.58047 -15814387.08061
  17943351.4774  -31929494.40947 -18394383.60463
 91  4 19  0 17 44.9920000  0  4G15G 2G13G 6
  21169111.3054   -8811756.98245  -6764913.47461
  18575788.0864   -5906975.81947  -4563676.49064
  18530283.6884  -20782095.10847 -15849972.07862
  17940241.9064  -31945839.82747 -18407120.28663
 91  4 19  0 17 59.9920000  0  4G15G 2G13G 6
  21169816.7274   -8808041.09245  -6762017.98961
  18575240.5394   -5909860.27247  -4565924.11864
  18521617.492   -20827632.573 7 -15885455.72521
  17937154.945   -31962063.180 7 -18419761.85223
 91  4 19  0 18 14.9920000  0  4G15G 2G13G 6
  21170550.0864   -8804191.51945  -6759018.32561
  18574700.7744   -5912698.43347  -4568135.67264
  18512975.6414  -20873043.81747 -15920841.02362
  17934089.1644  -31978168.14947 -18432311.16863
 91  4 19  0 18 29.9910000  0  4G15G 2G13G 6
  21171308.3394   -8800208.01345  -6755914.29261
  18574169.0894   -5915489.27247  -4570310.35364
  18504359.4954  -20918324.82047 -15956124.83561
  17931047.980   -31994152.585 7 -18444766.56123
 91  4 19  0 18 44.9910000  0  4G15G 2G13G 6
  21172092.5194   -8796084.88445  -6752701.46661
  18573648.3234   -5918227.57147  -4572444.09664
  18495767.066   -20963476.446 7 -15991307.83922
  17928029.995   -32010013.093 7 -18457125.38523
 91  4 19  0 18 59.9910000  0  4G15G 2G13G 6
  21172903.7454   -8791825.58345  -6749382.52761
  18573135.9334   -5920916.33247  -4574539.23664
  18487200.816   -21008498.317 7 -16026389.73321
  17925034.9724  -32025751.42647 -18469389.01363
 91  4 19  0 19 14.9910000  0  4G15G 2G13G 6
  21173739.9484   -8787428.62345  -6745956.32861
  18572634.0264   -5923554.07447  -4576594.62164
  18478657.3784  -21053388.73847 -16061369.19461
  17922063.3394  -32041365.85547 -18481556.09063
 91  4 19  0 19 29.9910000  0  4G15G 2G13G 6
  21174600.847    -8782893.911 5  -6742422.77621
  18572141.8704   -5926140.36647  -4578609.92064
  18470139.175   -21098147.241 7 -16096245.86422
  17919115.3234  -32056856.08047 -18493626.38163
 91  4 19  0 19 44.9910000  0  4G15G 2G13G 6
  21175492.2304   -8778222.40845  -6738782.64461
  18571658.6284   -5928676.11847  -4580585.83464
  18461647.3314  -21142774.49747 -16131020.26262
  17916191.2924  -32072222.53847 -18505600.24263
 91  4 19  0 19 59.9910000  0  4G15G 2G13G 6
  21176405.972    -8773406.229 5  -6735029.76221
  18571188.1284   -5931153.82747  -4582516.51964
  18453182.300   -21187262.856 7 -16165686.43022
  17913292.722   -32087457.589 7 -18517471.69223
 91  4 19  0 20 14.9910000  0  4G15G 2G13G 6
  21177350.7924   -8768449.21145  -6731167.14861
  18570727.5264   -5933576.56147  -4584404.37764
  18444741.073   -21231615.613 7 -16200246.93922
  17910417.2144  -32102564.30147 -18529243.14363
 91  4 19  0 20 29.9910000  0  4G15G 2G13G 6
  21178318.8624   -8763356.63645  -6727198.91061
  18570275.9644   -5935949.55747  -4586253.47164
  18436326.7224  -21275837.80847 -16234705.70162
  17907566.4414  -32117547.63447 -18540918.46163
 91  4 19  0 20 44.9910000  0  4G15G 2G13G 6
  21179314.0664   -8758129.06245  -6723125.47861
  18569833.9414   -5938273.38747  -4588064.25864
  18427936.144   -21319929.796 7 -16269063.01222
  17904738.4414  -32132408.03047 -18552497.98163
 91  4 19  0 20 59.9910000  0  4G15G 2G13G 6
  21180335.1984   -8752762.68345  -6718943.87561
  18569401.7374   -5940543.97747  -4589833.55664
  18419570.7694  -21363887.60647 -16303315.76962
  17901935.1754  -32147141.34547 -18563978.48063
 91  4 19  0 21 14.9910000  0  4G15G 2G13G 6
  21181384.8084   -8747258.83845  -6714655.16661
  18568977.6444   -5942762.66847  -4591562.41364
  18411231.0814  -21407712.39647 -16337464.87062
  17899155.4874  -32161748.60347 -18575360.75063
 91  4 19  0 21 29.9910000  0  4G15G 2G13G 6
  21182456.073    -8741616.899 5  -6710258.84421
  18568566.487    -5944928.765 7  -4593250.29624
  18402917.9174  -21451403.37147 -16371509.70162
  17896399.9014  -32176229.14547 -18586644.28063
 91  4 19  0 21 44.9910000  0  4G15G 2G13G 6
  21183555.7224   -8735838.09645  -6705755.88261
  18568164.144    -5947042.923 7  -4594897.70424
  18394628.847   -21494960.901 7 -16405450.54922
  17893668.8004  -32190583.21747 -18597829.26763
 91  4 19  0 21 59.9910000  0  4G15G 2G13G 6
  21184680.3944   -8729924.47745  -6701147.86961
  18567770.917    -5949107.213 7  -4596506.25124
  18386364.2614  -21538386.84347 -16439288.86362
  17890960.0034  -32204812.69347 -18608917.16763
 91  4 19  0 22 14.9910000  0  4G15G 2G13G 6
  21185834.3864   -8723870.59345  -6696430.56061
  18567389.964    -5951116.086 7  -4598071.62224
  18378127.2224  -21581675.70847 -16473020.35862
  17888276.9334  -32218911.91847 -18619903.57063
 91  4 19  0 22 29.9910000  0  4G15G 2G13G 6
  21187011.3474   -8717684.69945  -6691610.38661
  18567015.472    -5953077.673 7  -4599600.14824
  18369912.9954  -21624835.33247 -16506651.14962
  17885617.8474  -32232888.88947 -18630794.71363
 91  4 19  0 22 44.9910000  0  4G15G 2G13G 6
  21188212.2224   -8711362.79445  -6686684.22861
  18566653.175    -5954987.566 7  -4601088.38724
  18361725.5194  -21667861.43247 -16540177.89362
  17882982.1914  -32246739.06147 -18641587.05263
 91  4 19  0 22 59.9910000  0  4G15G 2G13G 6
  21189444.4874   -8704906.97945  -6681653.72961
  18566298.730    -5956847.813 7  -4602537.94724
  18353563.1054  -21710756.28147 -16573602.36762
  17880371.2614  -32260464.41447 -18652282.12363
 91  4 19  0 23 14.9910000  0  4G15G 2G13G 6
  21190698.3474   -8698316.50945  -6676518.30361
  18565954.081    -5958657.225 7  -4603947.89024
  18345425.7454  -21753518.50747 -16606923.49662
  17877782.9254  -32274063.66647 -18662878.95063
 91  4 19  0 23 29.9910000  0  4G15G 2G13G 6
  21191976.4874   -8691591.98745  -6671278.41961
  18565618.675    -5960416.503 7  -4605318.77324
  18337313.409   -21796148.409 7 -16640141.51522
  17875219.3624  -32287537.30347 -18673377.88463
 91  4 19  0 23 44.9910000  0  4G15G 2G13G 6
  21193280.9804   -8684735.32245  -6665935.58361
  18565294.433    -5962127.484 7  -4606652.02124
  18329225.378   -21838647.670 7 -16673257.73922
  17872678.3704  -32300886.98447 -18683780.23263
 91  4 19  0 23 59.9910000  0  4G15G 2G13G 6
  21194612.2224   -8677744.43145  -6660488.13061
  18564977.550    -5963787.808 7  -4607945.79624
  18321163.933   -21881014.162 7 -16706270.50622
  17870161.8704  -32314110.20447 -18694084.03663
 91  4 19  0 24 14.9910000  0  4G15G 2G13G 6
  21195965.737    -8670616.839 5  -6654934.18021
  18564672.933    -5965394.903 7  -4609198.09424
  18313128.175   -21923245.252 7 -16739177.76622
  17867670.0894  -32327204.28447 -18704287.21263
 91  4 19  0 24 29.9910000  0  4G15G 2G13G 6
  21197346.9174   -8663358.92145  -6649278.66761
  18564375.995    -5966954.965 7  -4610413.74724
  18305116.097   -21965346.829 7 -16771984.10722
  17865201.2534  -32340175.28047 -18714394.47963
 91  4 19  0 24 44.9910000  0  4G15G 2G13G 6
  21198754.9174   -8655964.99345  -6643517.18561
  18564088.323    -5968462.150 7  -4611588.19024
  18297130.401   -22007312.983 7 -16804684.92522
  17862757.1514  -32353017.21447 -18724401.18063
 91  4 19  0 24 59.9910000  0  4G15G 2G13G 6
  21200191.3704   -8648434.50445  -6637649.28361
  18563811.737    -5969915.724 7  -4612720.86124
  18289170.566   -22049143.202 7 -16837279.82322
  17860339.0734  -32365729.04847 -18734306.50262
 91  4 19  0 25 14.9910000  0  4G15G 2G13G 6
  21201648.855    -8640769.673 5  -6631676.70021
  18563544.558    -5971317.733 7  -4613813.35224
  18281235.480   -22090839.418 7 -16869770.29822
  17857944.4334  -32378312.81647 -18744112.03063
 91  4 19  0 25 29.9910000  0  4G15G 2G13G 6
  21203131.1594   -8632973.83145  -6625602.02261
  18563286.722    -5972671.077 7  -4614867.91524
  18273326.776   -22132404.215 7 -16902158.36922
  17855574.1124  -32390771.18347 -18753819.84263
 91  4 19  0 25 44.9910000  0  4G15G 2G13G 6
  21204640.112    -8625044.543 5  -6619423.37421
  18563039.464    -5973973.104 7  -4615882.49724
  18265441.753   -22173834.797 7 -16934441.85822
  17853226.9564  -32403101.45347 -18763427.83763
 91  4 19  0 25 59.9910000  0  4G15G 2G13G 6
  21206175.5504   -8616981.51945  -6613140.50361
  18562801.886    -5975223.693 7  -4616856.99524
  18257582.495   -22215131.155 7 -16966620.76122
  17850904.9484  -32415303.26447 -18772935.73263
 91  4 19  0 26 14.9910000  0  4G15G 2G13G 6
  21207732.7064   -8608790.38545  -6606757.81261
  18562572.847    -5976427.843 7  -4617795.30824
  18249748.308   -22256298.329 7 -16998698.99622
  17848606.5814  -32427381.78447 -18782347.55663
 91  4 19  0 26 29.9910000  0  4G15G 2G13G 6
  21209318.5034   -8600465.01545  -6600270.51661
  18562353.987    -5977579.600 7  -4618692.79624
  18241941.706   -22297330.093 7 -17030671.71922
  17846332.9954  -32439330.44847 -18791658.20062
 91  4 19  0 26 44.9910000  0  4G15G 2G13G 6
  21210925.5424   -8592011.36945  -6593683.26661
  18562143.050    -5978684.427 7  -4619553.70924
  18234156.683   -22338231.902 7 -17062543.18322
  17844082.0504  -32451154.85147 -18800872.01162
 91  4 19  0 26 59.9910000  0  4G15G 2G13G 6
  21212559.2534   -8583421.18145  -6586989.62261
  18561944.847    -5979734.025 7  -4620371.59224
  18226401.222   -22378995.430 7 -17094306.89522
  17841857.1204  -32462846.68747 -18809982.53062
 91  4 19  0 27 14.9910000  0  4G15G 2G13G 6
  21214220.495    -8574700.860 5  -6580194.57821
  18561751.8944   -5980734.52947  -4621151.21364
  18218668.589   -22419626.830 7 -17125967.65022
  17839656.7064  -32474411.86647 -18818994.34862
 91  4 19  0 27 29.9910000  0  4G15G 2G13G 6
  21215903.9174   -8565851.98845  -6573299.35561
  18561570.5664   -5981687.36347  -4621893.69264
  18210961.800   -22460127.312 7 -17157526.39522
  17837481.2764  -32485851.73347 -18827908.52662
 91  4 19  0 27 44.9910000  0  4G15G 2G13G 6
  21217612.425    -8556871.673 5  -6566301.73121
  18561400.909    -5982589.397 7  -4622596.58624
  18203280.042   -22500493.700 7 -17188980.64822
  17835328.5114  -32497162.89347 -18836722.41162
 91  4 19  0 27 59.9910000  0  4G15G 2G13G 6
  21219346.003    -8547760.237 5  -6559201.92721
  18561237.9334   -5983441.18747  -4623260.32564
  18195622.784   -22540726.394 7 -17220330.72522
  17833199.8784  -32508345.67547 -18845436.26362
 91  4 19  0 28 14.9910000  0  4G15G 2G13G 6
  21221105.4254   -8538516.28745  -6551998.85961
  18561083.612    -5984240.831 7  -4623883.43724
  18187992.730   -22580823.657 7 -17251575.27522
  17831097.3474  -32519398.19547 -18854048.61362
 91  4 19  0 28 29.9910000  0  4G15G 2G13G 6
  21222890.2614   -8529144.25845  -6544695.99661
  18560941.6124   -5984992.55647  -4624469.20564
  18180389.019   -22620789.491 7 -17282717.40822
  17829017.9484  -32530324.42147 -18862562.55762
 91  4 19  0 28 44.9910000  0  4G15G 2G13G 6
  21224697.1444   -8519640.15045  -6537290.19861
  18560812.089    -5985691.985 7  -4625014.22224
  18172809.253   -22660619.595 7 -17313753.77822
  17826962.9414  -32541120.10747 -18870974.78162
 91  4 19  0 28 59.9910000  0  4G15G 2G13G 6
  21226530.8234   -8510005.59445  -6529782.76761
  18560684.823    -5986340.611 7  -4625519.66024
  18165255.3234  -22700315.36147 -17344685.47762
  17824934.1984  -32551786.34747 -18879286.13662
 91  4 19  0 29 14.9910000  0  4G15G 2G13G 6
  21228389.6914   -8500232.63545  -6522167.47761
  18560572.886    -5986930.146 7  -4625979.04924
  18157728.284   -22739868.251 7 -17375505.84122
  17822928.7534  -32562314.80147 -18887490.12962
 91  4 19  0 29 29.9910000  0  4G15G 2G13G 6
  21230276.6754   -8490335.61445  -6514455.52061
  18560470.3704   -5987474.89447  -4626403.53764
  18150226.1674  -22779292.72447 -17406226.14162
  17820950.6124  -32572719.79547 -18895597.91662
 91  4 19  0 29 44.9910000  0  4G15G 2G13G 6
  21232180.433    -8480317.990 5  -6506649.60321
  18560375.722    -5987978.243 7  -4626795.77024
  18142747.1984  -22818592.20347 -17436849.04862
  17818992.9724  -32583004.63847 -18903612.08562
 91  4 19  0 29 59.9910000  0  4G15G 2G13G 6
  21234112.2694   -8470173.13345  -6498744.52961
  18560288.230    -5988433.382 7  -4627150.43124
  18135293.0344  -22857759.58047 -17467369.01062
  17817059.0974  -32593162.12347 -18911527.01062
 91  4 19  0 30 14.9910000  0  4G15G 2G13G 6
  21236064.9334   -8459903.13845  -6490741.94161
  18560209.1984   -5988842.09847  -4627468.92364
  18127866.3084  -22896796.59147 -17497787.39762
  17815150.4094  -32603194.13547 -18919344.16562
 91  4 19  0 30 29.9910000  0  4G15G 2G13G 6
  21238042.995    -8449506.345 5  -6482640.56821
  18560141.347    -5989202.485 7  -4627749.76024
  18120462.6124  -22935701.65047 -17528102.96162
  17813265.5814  -32613098.70547 -18927062.01662
 91  4 19  0 30 44.9910000  0  4G15G 2G13G 6
  21240045.175    -8438988.797 5  -6474445.08721
  18560082.534    -5989520.304 7  -4627997.42124
  18113083.2144  -22974480.25547 -17558319.99362
  17811405.3234  -32622881.40047 -18934684.90462
 91  4 19  0 30 59.9910000  0  4G15G 2G13G 6
  21242070.355    -8428340.668 5  -6466147.87121
  18560030.331    -5989785.492 7  -4628204.07124
  18105729.1444  -23013122.34047 -17588430.64562
  17809568.6674  -32632531.96347 -18942204.82762
 91  4 19  0 31 14.9910000  0  4G15G 2G13G 6
  21244121.464    -8417564.713 5  -6457751.04221
  18559988.980    -5990000.536 7  -4628371.65124
  18098401.6204  -23051630.32447 -17618436.80262
  17807757.2764  -32642052.84747 -18949623.70762
 91  4 19  0 31 29.9910000  0  4G15G 2G13G 6
  21246196.5974   -8406662.20945  -6449255.59961
  18559957.253    -5990166.568 7  -4628501.04124
  18091099.0114  -23090005.21947 -17648339.25162
  17805968.8234  -32651445.06447 -18956942.32162
 91  4 19  0 31 44.9910000  0  4G15G 2G13G 6
  21248295.378    -8395635.078 5  -6440663.06121
  18559936.566    -5990285.321 7
  18083821.4874  -23128248.99447 -17678139.53562
  17804206.1284  -32660710.33647 -18964162.02262
 91  4 19  0 31 59.9910000  0  4G15G 2G13G 6
  21250416.534    -8384483.112 5  -6431973.23621
  18559921.362    -5990356.377 7
  18076569.0424  -23166360.95747 -17707837.11162
  17802467.4414  -32669848.00947 -18971282.29462
 91  4 19  0 32 14.9910000  0  4G15G 2G13G 6
  21252564.308    -8373205.287 5  -6423185.34321
  18559917.175    -5990378.506 7
  18069341.6834  -23204339.92747 -17737431.04262
  17800753.5584  -32678856.77647 -18978302.11362
 91  4 19  0 32 29.9910000  0  4G15G 2G13G 6
  21254733.823    -8361797.743 5  -6414296.37321
  18559925.448    -5990347.582 7
  18062140.6594  -23242181.87147 -17766918.21062
  17799063.0424  -32687732.47447 -18985218.24762
 91  4 19  0 32 44.9910000  0  4G15G 2G13G 6
  21256928.1984   -8350260.63945  -6405306.43361
  18559941.019    -5990263.652 7
  18054965.9484  -23279886.77247 -17796298.59562
  17797399.2844  -32696474.88847 -18992030.51962
 91  4 19  0 32 59.9910000  0  4G15G 2G13G 6
  21259148.472    -8338595.167 5  -6396216.48421
  18559967.4874   -5990127.47647
  18047816.5734  -23317455.31447 -17825572.71962
  17795762.3394  -32705084.82547 -18998739.56162
 91  4 19  0 33 14.9910000  0  4G15G 2G13G 6
  21261391.3314   -8326809.21245  -6387032.64261
  18560002.5974   -5989947.03847
  18040692.6204  -23354895.15747 -17854746.56362
  17794146.3234  -32713569.91847 -19005351.32662
 91  4 19  0 33 29.9910000  0  4G15G 2G13G 6
  21263658.362    -8314898.231 5  -6377751.38921
  18560045.308    -5989717.291 7  -4628151.06924
  18033593.3314  -23392201.39947 -17883816.30262
  17792557.4724  -32721925.15447 -19011861.90262
 91  4 19  0 33 44.9910000  0  4G15G 2G13G 6
  21265948.776    -8302864.345 5  -6368374.35521
  18560095.300    -5989440.016 7  -4627935.02724
  18026518.5734  -23429375.84647 -17912783.34662
  17790991.4804  -32730152.42047 -19018272.75762
 91  4 19  0 33 59.9910000  0  4G15G 2G13G 6
  21268263.628    -8290707.315 5  -6358901.35521
  18560159.737    -5989114.708 7  -4627681.55524
  18019469.378   -23466418.163 7 -17941647.43522
  17789450.1594  -32738251.15647 -19024583.46162
 91  4 19  0 34 14.9910000  0  4G15G 2G13G 6
  21270597.8944   -8278423.94645  -6349329.93861
  18560231.839    -5988738.017 7  -4627388.04424
  18012446.9874  -23503324.72147 -17970405.73262
  17787933.2844  -32746217.68247 -19030791.13962
 91  4 19  0 34 29.9910000  0  4G15G 2G13G 6
  21272959.987    -8266013.349 5  -6339659.36421
  18560311.136    -5988309.038 7  -4627053.78924
  18005448.9254  -23540094.67147 -17999057.58462
  17786445.3164  -32754051.01647 -19036895.03663
 91  4 19  0 34 44.9910000  0  4G15G 2G13G 6
  21275348.784    -8253476.364 5  -6329890.30721
  18560404.847    -5987828.418 7  -4626679.29524
  17998477.636   -23576728.782 7 -18027603.59322
  17784978.0194  -32761751.80347 -19042895.64763
 91  4 19  0 34 59.9910000  0  4G15G 2G13G 6
  21277757.6124   -8240813.68345  -6320023.32461
  18560504.276    -5987296.123 7  -4626264.52924
  17991533.0034  -23613227.07647 -18056043.76562
  17783537.0584  -32769319.97947 -19048792.92763
 91  4 19  0 35 14.9910000  0  4G15G 2G13G 6
  21280190.831    -8228027.313 5  -6310059.93521
  18560614.6984   -5986714.34447  -4625811.20764
  17984613.151   -23649591.398 7 -18084379.54722
  17782123.3624  -32776757.45547 -19054588.36562
 91  4 19  0 35 29.9910000  0  4G15G 2G13G 6
  21282647.5194   -8215112.65945  -6299996.60261
  18560738.1204   -5986078.06947  -4625315.42264
  17977719.933   -23685816.852 7 -18112607.11722
  17780734.3624  -32784059.30147 -19060278.11462
 91  4 19  0 35 44.9910000  0  4G15G 2G13G 6
  21285131.050    -8202072.286 5  -6289835.29221
  18560865.4564   -5985389.74447  -4624779.07463
  17970852.214   -23721906.102 7 -18140728.55722
  17779370.6754  -32791227.75447 -19065863.91963
 91  4 19  0 35 59.9910000  0  4G15G 2G13G 6
  21287635.0584   -8188904.28245  -6279574.53361
  18561007.8394   -5984647.06847  -4624200.37764
  17964010.073   -23757856.750 7 -18168742.00022
  17778032.9334  -32798260.46747 -19071343.95763
 91  4 19  0 36 14.9910000  0  4G15G 2G13G 6
  21290166.2064   -8175608.49745  -6269214.22161
  18561158.651    -5983849.518 7  -4623578.92224
  17957195.292   -23793668.299 7 -18196647.04722
  17776720.4174  -32805157.06047 -19076717.92763
 91  4 19  0 36 29.9910000  0  4G15G 2G13G 6
  21292717.0894   -8162193.61845  -6258761.08661
  18561321.6204   -5983005.62947  -4622921.35564
  17950406.3704  -23829349.34947 -18224450.40562
  17775431.7534  -32811925.90447 -19081992.35463
 91  4 19  0 36 44.9910000  0  4G15G 2G13G 6
  21295293.011    -8148656.341 5  -6248212.58921
  18561489.6914   -5982111.95547  -4622224.99464
  17943642.222   -23864896.235 7 -18252149.22522
  17774169.0114  -32818563.23847 -19087164.30262
 91  4 19  0 36 59.9910000  0  4G15G 2G13G 6
  21297892.503    -8134996.908 5  -6237568.90521
  18561670.4414   -5981168.51347  -4621489.85864
  17936902.808   -23900308.874 7 -18279743.43622
  17772929.2454  -32825068.96547 -19092233.70563
 91  4 19  0 37 14.9910000  0  4G15G 2G13G 6
  21300515.1754   -8121214.51045  -6226829.40161
  18561861.183    -5980174.324 7  -4620715.17324
  17930189.058   -23935586.415 7 -18307232.37422
  17771715.9414  -32831442.17147 -19097199.84263
 91  4 19  0 37 29.9910000  0  4G15G 2G13G 6
  21303161.9644   -8107308.81945  -6215993.83461
  18562059.714    -5979128.756 7  -4619900.45724
  17923500.964   -23970728.049 7 -18334615.41122
  17770528.2844  -32837682.20547 -19102062.20763
 91  4 19  0 37 44.9910000  0  4G15G 2G13G 6
  21305836.5814   -8093266.80445  -6205052.01161
  18562269.448    -5978018.460 7  -4619035.30624
  17916842.909   -24005720.668 7 -18361882.33022
  17769370.9014  -32843775.63847 -19106810.34063
 91  4 19  0 37 59.9910000  0  4G15G 2G13G 6
  21308528.4954   -8079101.06845  -6194013.81161
  18562493.5194   -5976855.83847  -4618129.37664
  17910209.9174  -24040576.55247 -18389042.69662
  17768233.6914  -32849734.59847 -19111453.68763
 91  4 19  0 38 14.9910000  0  4G15G 2G13G 6
  21311249.1754   -8064812.92345  -6182880.21661
  18562722.6364   -5975641.94947  -4617183.49864
  17903602.159   -24075296.739 7 -18416097.33122
  17767128.1984  -32855560.17147 -19115993.09863
 91  4 19  0 38 29.9910000  0  4G15G 2G13G 6
  21313988.5114   -8050402.39345  -6171651.25061
  18562964.8394   -5974376.36447  -4616197.33664
  17897021.0734  -24109880.93347 -18443045.99662
  17766043.2534  -32861251.96547 -19120428.26263
 91  4 19  0 38 44.9910000  0  4G15G 2G13G 6
  21316757.6284   -8035874.37745  -6160330.75061
  18563211.6674   -5973063.76847  -4615174.53664
  17890466.7614  -24144333.74747 -18469892.28862
  17764987.4874  -32866814.51447 -19124762.71663
 91  4 19  0 38 59.9910000  0  4G15G 2G13G 6
  21319542.394    -8021228.826 5  -6148918.64321
  18563474.5344   -5971703.97747  -4614114.96864
  17883934.8474  -24178655.11147 -18496636.15362
  17763949.8164  -32872247.49547 -19128996.21563
 91  4 19  0 39 14.9910000  0  4G15G 2G13G 6
  21322355.331    -8006460.309 5  -6137410.73821
  18563741.4724   -5970291.40447  -4613014.27164
  17877428.9804  -24212839.36747 -18523273.17462
  17762944.7534  -32877545.35147 -19133124.41763
 91  4 19  0 39 29.9910000  0  4G15G 2G13G 6
  21325186.581    -7991567.924 5  -6125806.30321
  18564019.3164   -5968824.97847  -4611871.61264
  17870950.3314  -24246885.62547 -18549802.66962
  17761962.4644  -32882706.84747 -19137146.36763
 91  4 19  0 39 44.9910000  0  4G15G 2G13G 6
  21328044.394    -7976556.048 5  -6114108.75621
  18564310.0264   -5967308.30247  -4610689.79364
  17864497.667   -24280797.517 7 -18576227.47122
  17761002.9954  -32887735.57547 -19141064.85663
 91  4 19  0 39 59.9910000  0  4G15G 2G13G 6
  21330924.644    -7961421.216 5  -6102315.40221
  18564608.1284   -5965737.75747  -4609465.99864
  17858070.706   -24314571.224 7 -18602544.58722
  17760072.4724  -32892627.96547 -19144877.10863
 91  4 19  0 40 14.9910000  0  4G15G 2G13G 6
  21333825.691    -7946173.394 5  -6090434.01121
  18564915.347    -5964123.260 7  -4608207.96224
  17851667.5504  -24348216.63547 -18628761.73862
  17759167.4014  -32897393.82847 -19148590.77163
 91  4 19  0 40 29.9910000  0  4G15G 2G13G 6
  21336749.6514   -7930807.62745  -6078460.72061
  18565230.9724   -5962459.55747  -4606911.57964
  17845290.2454  -24381728.78347 -18654875.04062
  17758285.6124  -32902027.84147 -19152201.69463
 91  4 19  0 40 44.9910000  0  4G15G 2G13G 6
  21339695.7844   -7915319.67545  -6066392.19361
  18565557.4804   -5960742.18747  -4605573.37964
  17838939.9874  -24415103.25547 -18680881.06262
  17757430.9014  -32906525.51247 -19155706.37562
 91  4 19  0 40 59.9910000  0  4G15G 2G13G 6
  21342667.894    -7899711.400 5  -6054229.93021
  18565894.6204   -5958972.60947  -4604194.49764
  17832614.1514  -24448341.39847 -18706780.85662
  17756600.7844  -32910888.20447 -19159105.87763
 91  4 19  0 41 14.9910000  0  3G 2G13G 6
  18566241.2694   -5957153.13947  -4602776.73564
  17826315.1124  -24481445.61747 -18732576.29462
  17755794.4954  -32915118.16547 -19162401.95263
 91  4 19  0 41 29.9910000  0  3G 2G13G 6
  18566598.8864   -5955282.87747  -4601319.40164
  17820041.5114  -24514414.72747 -18758266.45262
  17755014.3394  -32919214.39347 -19165593.81963
